[[{"header":{"parameterUnit":"m.s-1","parameterCategory":1,"la1":30.6,"la2":28.766,"lo1":-90.7593,"lo2":-88.6598,"dy":0.0162,"dx":0.0183,"nx":116,"ny":114,"refTime":"2023-05-26T12:00:00:Z","depth":0,"parameterNumber":2,"parameterNumberName":"U-component_of_WINDS"},"data":[0.0,0.0,0.0,0.0,0.0,0.0,0.0,0.0,0.0,0.0,0.0,0.0,0.0,0.0,0.0,0.0,0.0,0.0,0.0,0.0,0.0,0.0,0.0,0.0,0.0,0.0,0.0,0.0,0.0,0.0,0.0,0.0,0.0,0.0,0.0,0.0,0.0,0.0,0.0,0.0,0.0,0.0,0.0,0.0,0.0,0.0,0.0,0.0,0.0,0.0,0.0,0.0,0.0,0.0,0.0,0.0,0.0,0.0,0.0,0.0,0.0,0.0,0.0,0.0,0.0,0.0,0.0,0.0,0.0,0.0,0.0,0.0,0.0,0.0,0.0,0.0,0.0,0.0,0.0,0.0,0.0,0.0,0.0,0.0,0.0,0.0,0.0,0.0,0.0,0.0,0.0,0.0,0.0,0.0,0.0,0.0,0.0,0.0,0.0,0.0,0.0,0.0,0.0,0.0,0.0,0.0,0.0,0.0,0.0,0.0,0.0,0.0,0.0,0.0,0.0,0.0,0.0,0.0,0.0,0.0,0.0,0.0,0.0,0.0,0.0,0.0,0.0,0.0,0.0,0.0,0.0,0.0,0.0,0.0,0.0,0.0,0.0,0.0,0.0,0.0,0.0,0.0,0.0,0.0,0.0,0.0,0.0,0.0,0.0,0.0,0.0,0.0,0.0,0.0,0.0,0.0,0.0,0.0,0.0,0.0,0.0,0.0,0.0,0.0,0.0,0.0,0.0,0.0,0.0,0.0,0.0,0.0,0.0,0.0,0.0,0.0,0.0,0.0,0.0,0.0,0.0,0.0,0.0,0.0,0.0,0.0,0.0,0.0,0.0,0.0,0.0,0.0,0.0,0.0,0.0,0.0,0.0,0.0,0.0,0.0,0.0,0.0,0.0,0.0,0.0,0.0,0.0,0.0,0.0,0.0,0.0,0.0,0.0,0.0,0.0,0.0,0.0,0.0,0.0,0.0,0.0,0.0,0.0,0.0,0.0,0.0,0.0,0.0,0.0,0.0,0.0,0.0,0.0,0.0,0.0,0.0,0.0,0.0,0.0,0.0,0.0,0.0,0.0,0.0,0.0,0.0,0.0,0.0,0.0,0.0,0.0,0.0,0.0,0.0,0.0,0.0,0.0,0.0,0.0,0.0,0.0,0.0,0.0,0.0,0.0,0.0,0.0,0.0,0.0,0.0,0.0,0.0,0.0,0.0,0.0,0.0,0.0,0.0,0.0,0.0,0.0,0.0,0.0,0.0,0.0,0.0,0.0,0.0,0.0,0.0,0.0,0.0,0.0,0.0,0.0,0.0,0.0,0.0,0.0,0.0,0.0,0.0,0.0,0.0,0.0,0.0,0.0,0.0,0.0,0.0,0.0,0.0,0.0,0.0,0.0,0.0,0.0,0.0,0.0,0.0,0.0,0.0,0.0,0.0,0.0,0.0,0.0,0.0,0.0,0.0,0.0,0.0,0.0,0.0,0.0,0.0,0.0,0.0,0.0,0.0,0.0,0.0,0.0,0.0,0.0,0.0,0.0,0.0,0.0,0.0,0.0,0.0,0.0,0.0,0.0,0.0,0.0,0.0,0.0,0.0,0.0,0.0,0.0,0.0,0.0,0.0,0.0,0.0,0.0,0.0,0.0,0.0,0.0,0.0,0.0,0.0,0.0,0.0,0.0,0.0,0.0,0.0,0.0,0.0,0.0,0.0,0.0,0.0,0.0,0.0,0.0,0.0,0.0,0.0,0.0,0.0,0.0,0.0,0.0,0.0,0.0,0.0,0.0,0.0,0.0,0.0,0.0,0.0,0.0,0.0,0.0,0.0,0.0,0.0,0.0,0.0,0.0,0.0,0.0,0.0,0.0,0.0,0.0,0.0,0.0,0.0,0.0,0.0,0.0,0.0,0.0,0.0,0.0,0.0,0.0,0.0,0.0,0.0,0.0,0.0,0.0,0.0,0.0,0.0,0.0,0.0,0.0,0.0,0.0,0.0,0.0,0.0,0.0,0.0,0.0,0.0,0.0,0.0,0.0,0.0,0.0,0.0,0.0,0.0,0.0,0.0,0.0,0.0,0.0,0.0,0.0,0.0,0.0,0.0,0.0,0.0,0.0,0.0,0.0,0.0,0.0,0.0,0.0,0.0,0.0,0.0,0.0,0.0,0.0,0.0,0.0,0.0,0.0,0.0,0.0,0.0,0.0,0.0,0.0,0.0,0.0,0.0,0.0,0.0,0.0,0.0,0.0,0.0,0.0,0.0,0.0,0.0,0.0,0.0,0.0,0.0,0.0,0.0,0.0,0.0,0.0,0.0,0.0,0.0,0.0,0.0,0.0,0.0,0.0,0.0,0.0,0.0,0.0,0.0,0.0,0.0,0.0,0.0,0.0,0.0,0.0,0.0,0.0,0.0,0.0,0.0,0.0,0.0,0.0,0.0,0.0,0.0,0.0,0.0,0.0,0.0,0.0,0.0,0.0,0.0,0.0,0.0,0.0,0.0,0.0,0.0,0.0,0.0,0.0,0.0,0.0,0.0,0.0,0.0,0.0,0.0,0.0,0.0,0.0,0.0,0.0,0.0,0.0,0.0,0.0,0.0,0.0,0.0,0.0,0.0,0.0,0.0,0.0,0.0,0.0,0.0,0.0,0.0,0.0,0.0,0.0,0.0,0.0,0.0,0.0,0.0,0.0,0.0,0.0,0.0,0.0,0.0,0.0,0.0,0.0,0.0,0.0,0.0,0.0,0.0,0.0,0.0,0.0,0.0,0.0,0.0,0.0,0.0,0.0,0.0,0.0,0.0,0.0,0.0,0.0,0.0,0.0,0.0,0.0,0.0,0.0,0.0,0.0,0.0,0.0,0.0,0.0,0.0,0.0,0.0,0.0,0.0,0.0,0.0,0.0,0.0,0.0,0.0,0.0,0.0,0.0,0.0,0.0,0.0,0.0,0.0,0.0,0.0,0.0,0.0,0.0,0.0,0.0,0.0,0.0,0.0,0.0,0.0,0.0,0.0,0.0,0.0,0.0,0.0,0.0,0.0,0.0,0.0,0.0,0.0,0.0,0.0,0.0,0.0,0.0,0.0,0.0,0.0,0.0,0.0,0.0,0.0,0.0,0.0,0.0,0.0,0.0,0.0,0.0,0.0,0.0,0.0,0.0,0.0,0.0,0.0,0.0,0.0,0.0,0.0,0.0,0.0,0.0,0.0,0.0,0.0,0.0,0.0,0.0,0.0,0.0,0.0,0.0,0.0,0.0,0.0,0.0,0.0,0.0,0.0,0.0,0.0,0.0,0.0,0.0,0.0,0.0,0.0,0.0,0.0,0.0,0.0,0.0,0.0,0.0,0.0,0.0,0.0,0.0,0.0,0.0,0.0,0.0,0.0,0.0,0.0,0.0,0.0,0.0,0.0,0.0,0.0,0.0,0.0,0.0,0.0,0.0,0.0,0.0,0.0,0.0,0.0,0.0,0.0,0.0,0.0,0.0,0.0,0.0,0.0,0.0,0.0,0.0,0.0,0.0,0.0,0.0,0.0,0.0,0.0,0.0,0.0,0.0,0.0,0.0,0.0,0.0,0.0,0.0,0.0,0.0,0.0,0.0,0.0,0.0,0.0,0.0,0.0,0.0,0.0,0.0,0.0,0.0,0.0,0.0,0.0,0.0,0.0,0.0,0.0,0.0,0.0,0.0,0.0,0.0,0.0,0.0,0.0,0.0,0.0,0.0,0.0,0.0,0.0,0.0,0.0,0.0,0.0,0.0,0.0,0.0,0.0,0.0,0.0,0.0,0.0,0.0,0.0,0.0,0.0,0.0,0.0,0.0,0.0,0.0,0.0,0.0,0.0,0.0,0.0,0.0,0.0,0.0,0.0,0.0,0.0,0.0,0.0,0.0,0.0,0.0,0.0,0.0,0.0,0.0,0.0,0.0,0.0,0.0,0.0,0.0,0.0,0.0,0.0,0.0,0.0,0.0,0.0,0.0,0.0,0.0,0.0,0.0,0.0,0.0,0.0,0.0,0.0,0.0,0.0,0.0,0.0,0.0,0.0,0.0,0.0,0.0,0.0,0.0,0.0,0.0,0.0,0.0,0.0,0.0,0.0,0.0,0.0,0.0,0.0,0.0,0.0,0.0,0.0,0.0,0.0,0.0,0.0,0.0,0.0,0.0,0.0,0.0,0.0,0.0,0.0,0.0,0.0,0.0,0.0,0.0,0.0,0.0,0.0,0.0,0.0,0.0,0.0,0.0,0.0,0.0,0.0,0.0,0.0,0.0,0.0,0.0,0.0,0.0,0.0,0.0,0.0,0.0,0.0,0.0,0.0,0.0,0.0,0.0,0.0,0.0,0.0,0.0,0.0,0.0,0.0,0.0,0.0,0.0,0.0,0.0,0.0,0.0,0.0,0.0,0.0,0.0,0.0,0.0,0.0,0.0,0.0,0.0,0.0,0.0,0.0,0.0,0.0,0.0,0.0,0.0,0.0,0.0,0.0,0.0,0.0,0.0,0.0,0.0,0.0,0.0,0.0,0.0,0.0,0.0,0.0,0.0,0.0,0.0,0.0,0.0,0.0,0.0,0.0,0.0,0.0,0.0,0.0,0.0,0.0,0.0,0.0,0.0,0.0,0.0,0.0,0.0,0.0,0.0,0.0,0.0,0.0,0.0,0.0,0.0,0.0,0.0,0.0,0.0,0.0,0.0,0.0,0.0,0.0,0.0,0.0,0.0,0.0,0.0,0.0,0.0,0.0,0.0,0.0,0.0,0.0,0.0,0.0,0.0,0.0,0.0,0.0,0.0,0.0,0.0,0.0,0.0,0.0,0.0,0.0,0.0,0.0,0.0,0.0,0.0,0.0,0.0,0.0,0.0,0.0,0.0,0.0,0.0,0.0,0.0,0.0,0.0,0.0,0.0,0.0,0.0,0.0,0.0,0.0,0.0,0.0,0.0,0.0,0.0,0.0,0.0,0.0,0.0,0.0,0.0,0.0,0.0,0.0,0.0,0.0,0.0,0.0,0.0,0.0,0.0,0.0,0.0,0.0,0.0,0.0,0.0,0.0,0.0,0.0,0.0,0.0,0.0,0.0,0.0,0.0,0.0,0.0,0.0,0.0,0.0,0.0,0.0,0.0,0.0,0.0,0.0,0.0,0.0,0.0,0.0,0.0,0.0,0.0,0.0,0.0,0.0,0.0,0.0,0.0,0.0,0.0,0.0,0.0,0.0,0.0,0.0,0.0,0.0,0.0,0.0,0.0,0.0,0.0,0.0,0.0,0.0,0.0,0.0,0.0,0.0,0.0,0.0,0.0,0.0,0.0,0.0,0.0,0.0,0.0,0.0,0.0,0.0,0.0,0.0,0.0,0.0,0.0,0.0,0.0,0.0,0.0,0.0,0.0,0.0,0.0,0.0,0.0,0.0,0.0,0.0,0.0,0.0,0.0,0.0,0.0,0.0,0.0,0.0,0.0,0.0,0.0,0.0,0.0,0.0,0.0,0.0,0.0,0.0,0.0,0.0,0.0,0.0,0.0,0.0,0.0,0.0,0.0,0.0,0.0,0.0,0.0,0.0,0.0,0.0,0.0,0.0,0.0,0.0,0.0,0.0,0.0,0.0,0.0,0.0,0.0,0.0,0.0,0.0,0.0,0.0,0.0,0.0,0.0,0.0,0.0,0.0,0.0,0.0,0.0,0.0,0.0,0.0,0.0,0.0,0.0,0.0,0.0,0.0,0.0,0.0,0.0,0.0,0.0,0.0,0.0,0.0,0.0,0.0,0.0,0.0,0.0,0.0,0.0,0.0,0.0,0.0,0.0,0.0,0.0,0.0,0.0,0.0,0.0,0.0,0.0,0.0,0.0,0.0,0.0,0.0,0.0,0.0,0.0,0.0,0.0,0.0,0.0,0.0,0.0,0.0,0.0,0.0,0.0,0.0,0.0,0.0,0.0,0.0,0.0,0.0,0.0,0.0,0.0,0.0,0.0,0.0,0.0,0.0,0.0,0.0,0.0,0.0,0.0,0.0,0.0,0.0,0.0,0.0,0.0,0.0,0.0,0.0,0.0,0.0,0.0,0.0,0.0,0.0,0.0,0.0,0.0,0.0,0.0,0.0,0.0,-4.1023,0.0,0.0,0.0,0.0,0.0,0.0,0.0,0.0,0.0,0.0,0.0,0.0,0.0,0.0,0.0,0.0,0.0,0.0,0.0,0.0,0.0,0.0,0.0,0.0,0.0,0.0,0.0,0.0,0.0,0.0,0.0,0.0,0.0,0.0,0.0,0.0,0.0,0.0,-2.8673,-2.8673,-2.8819,-2.9121,-2.9549,-3.0024,-3.0545,0.0,0.0,0.0,0.0,0.0,0.0,0.0,0.0,0.0,0.0,0.0,0.0,0.0,0.0,0.0,0.0,0.0,0.0,0.0,0.0,0.0,0.0,0.0,0.0,0.0,0.0,0.0,0.0,0.0,0.0,0.0,0.0,0.0,0.0,0.0,0.0,0.0,0.0,0.0,0.0,0.0,0.0,0.0,0.0,0.0,0.0,0.0,0.0,0.0,0.0,0.0,0.0,0.0,0.0,0.0,0.0,0.0,0.0,0.0,0.0,0.0,0.0,0.0,0.0,0.0,0.0,0.0,0.0,0.0,0.0,0.0,-4.0697,0.0,0.0,0.0,0.0,0.0,0.0,0.0,0.0,0.0,0.0,0.0,0.0,0.0,0.0,0.0,0.0,0.0,0.0,0.0,0.0,0.0,0.0,0.0,0.0,-3.0707,-3.0968,-3.0231,-2.9934,0.0,0.0,0.0,0.0,0.0,0.0,0.0,-2.7554,-2.7684,-2.8148,-2.8066,-2.8287,-2.8767,-2.8478,-2.8794,-2.96,-3.0177,0.0,0.0,0.0,0.0,0.0,0.0,0.0,0.0,0.0,0.0,0.0,0.0,0.0,0.0,0.0,0.0,0.0,0.0,0.0,0.0,0.0,0.0,0.0,0.0,0.0,0.0,0.0,0.0,0.0,0.0,0.0,0.0,0.0,0.0,0.0,0.0,0.0,0.0,0.0,0.0,0.0,0.0,0.0,0.0,0.0,0.0,0.0,0.0,0.0,0.0,0.0,0.0,0.0,0.0,0.0,0.0,0.0,0.0,0.0,0.0,0.0,0.0,0.0,-4.2233,-4.2356,-4.2462,-4.2462,-4.2462,-4.2394,-4.145,-4.1018,-4.1001,0.0,0.0,0.0,0.0,0.0,0.0,0.0,0.0,0.0,0.0,0.0,0.0,0.0,0.0,0.0,0.0,0.0,0.0,0.0,0.0,0.0,0.0,-3.0857,-3.1,-3.1255,-3.056,-3.0308,0.0,0.0,0.0,0.0,0.0,0.0,-2.8804,-2.8591,-2.8341,-2.8041,-2.7561,-2.7383,-2.7464,-2.7966,-2.8063,-2.7827,-2.8084,-2.8652,-2.9355,0.0,0.0,0.0,0.0,0.0,0.0,0.0,0.0,0.0,0.0,0.0,0.0,0.0,0.0,0.0,0.0,0.0,0.0,0.0,0.0,0.0,0.0,0.0,0.0,0.0,0.0,0.0,0.0,0.0,0.0,0.0,0.0,0.0,0.0,0.0,0.0,0.0,0.0,0.0,0.0,0.0,-3.7431,-3.7519,0.0,0.0,0.0,0.0,0.0,0.0,0.0,0.0,0.0,0.0,0.0,0.0,0.0,-4.045,-4.0577,-4.1144,-4.1427,-4.1427,-4.2028,-4.2313,-4.233,-4.233,-4.233,-4.2339,-4.2285,0.0,-4.2201,-4.1588,0.0,0.0,0.0,0.0,0.0,0.0,0.0,0.0,0.0,0.0,0.0,0.0,0.0,0.0,0.0,0.0,0.0,0.0,0.0,0.0,0.0,-3.0724,-3.0871,-3.1095,-3.0189,-2.9725,-3.006,-2.9719,0.0,0.0,0.0,-2.9519,-2.8841,-2.8743,-2.8597,-2.8379,-2.7897,-2.7656,-2.7644,-2.714,-2.6787,-2.6569,-2.6121,-2.7128,-2.9081,-2.8976,0.0,0.0,0.0,0.0,0.0,0.0,0.0,0.0,0.0,0.0,0.0,0.0,0.0,0.0,0.0,0.0,0.0,0.0,0.0,0.0,0.0,0.0,0.0,0.0,0.0,0.0,0.0,0.0,0.0,0.0,0.0,0.0,0.0,0.0,0.0,0.0,0.0,0.0,0.0,-3.7049,-3.7468,-3.7468,-3.8263,-3.8858,0.0,0.0,0.0,0.0,0.0,0.0,0.0,0.0,0.0,-4.0908,-4.0924,-4.1102,-4.152,-4.1824,-4.1975,-4.1991,-4.2259,-4.2406,-4.2406,-4.2406,-4.2406,-4.2406,-4.2464,-4.251,-4.2469,-4.2226,-4.2176,-4.2185,0.0,0.0,0.0,0.0,-4.0935,-4.0583,0.0,0.0,0.0,0.0,0.0,0.0,0.0,0.0,0.0,0.0,0.0,0.0,-2.9578,-2.9669,-2.9829,-3.0125,-2.9176,-2.8738,-2.8993,-2.8947,0.0,-2.8143,-2.9038,-2.9136,-2.8321,-2.8187,-2.812,-2.812,-2.792,-2.7822,-2.7768,-2.685,-2.6292,-2.6028,-2.5232,-2.6133,-2.8267,-2.8079,-2.8542,-2.9341,0.0,0.0,0.0,0.0,0.0,0.0,0.0,0.0,0.0,0.0,0.0,0.0,0.0,0.0,0.0,0.0,0.0,0.0,0.0,0.0,0.0,0.0,0.0,0.0,0.0,0.0,0.0,0.0,0.0,0.0,0.0,0.0,0.0,0.0,0.0,0.0,0.0,-3.7338,-3.7754,-3.7754,-3.8354,-3.8769,0.0,0.0,0.0,0.0,0.0,0.0,-4.0322,-4.0338,-4.0608,-4.1151,-4.1167,-4.1438,-4.1981,-4.2173,-4.2237,-4.2237,-4.2426,-4.252,-4.252,-4.252,-4.252,-4.252,-4.252,-4.252,-4.2486,-4.2394,-4.2486,-4.2603,-4.2417,-4.2106,-4.1776,-4.1827,-4.1494,-4.0982,0.0,0.0,0.0,0.0,0.0,0.0,0.0,0.0,0.0,0.0,0.0,-2.7778,-2.7074,-2.7226,-2.7474,-2.7731,-2.7474,-2.751,-2.797,-2.7804,-2.7673,-2.7652,-2.7699,-2.7584,-2.7259,-2.6786,-2.6521,-2.6521,-2.6977,-2.725,-2.7239,-2.7694,-2.7426,-2.6529,-2.605,-2.5874,-2.5986,-2.5944,-2.6442,-2.7354,-2.8211,0.0,0.0,0.0,0.0,0.0,0.0,0.0,0.0,0.0,0.0,0.0,0.0,0.0,0.0,0.0,0.0,0.0,0.0,0.0,0.0,0.0,0.0,0.0,0.0,0.0,0.0,0.0,0.0,0.0,0.0,0.0,0.0,0.0,0.0,0.0,0.0,0.0,0.0,-3.8462,-3.9046,0.0,0.0,0.0,0.0,-4.0416,-4.0451,-4.0451,-4.0485,-4.0485,-4.05,-4.0531,-4.0547,-4.0547,-4.0593,-4.1243,-4.1558,-4.1558,-4.2205,-4.252,-4.252,-4.252,-4.252,-4.252,-4.252,-4.252,-4.2456,-4.1758,-4.1841,-4.2348,-4.1636,-4.1732,-4.2289,-4.2411,-4.2447,-4.2311,0.0,0.0,0.0,0.0,0.0,0.0,0.0,0.0,0.0,-2.6282,-2.6628,-2.6771,-2.6788,-2.7037,-2.7237,-2.7332,-2.6675,-2.6302,-2.6484,-2.6522,-2.6522,-2.636,-2.7163,-2.7484,-2.7189,-2.7034,-2.6894,-2.6894,-2.6773,-2.669,-2.668,-2.693,-2.6714,-2.6096,-2.6289,-2.6181,-2.5865,-2.5838,-2.6318,-2.7151,-2.7476,-2.7597,0.0,0.0,0.0,0.0,0.0,0.0,0.0,0.0,0.0,0.0,0.0,0.0,0.0,0.0,0.0,0.0,0.0,0.0,0.0,0.0,0.0,0.0,0.0,0.0,0.0,0.0,0.0,0.0,0.0,0.0,0.0,0.0,0.0,0.0,0.0,0.0,0.0,-3.8938,-3.9653,0.0,-4.0136,-4.0351,-4.0489,-4.0489,-4.0489,-4.0489,-4.0489,-4.0489,-4.0489,-4.0489,-4.0489,-4.0489,-4.0489,-4.0749,-4.087,-4.087,-4.1091,-4.1209,-4.1209,-4.1209,-4.1209,-4.1209,-4.1209,-4.1209,-4.1194,-4.0925,-4.147,-4.2423,-4.2162,-4.1936,-4.1778,-4.2271,-4.2139,-4.1743,0.0,0.0,0.0,0.0,0.0,0.0,0.0,0.0,-2.4236,-2.4679,-2.5129,-2.547,-2.5499,-2.5848,-2.6041,-2.6041,-2.5538,-2.5206,-2.5206,-2.5333,-2.5333,-2.5216,-2.6022,-2.6398,-2.6196,-2.6196,-2.6196,-2.6196,-2.6192,-2.6135,-2.6182,-2.636,-2.6198,-2.5696,-2.6142,-2.6034,-2.5517,-2.5728,-2.6096,-2.6501,-2.6782,-2.6806,-2.6737,0.0,0.0,0.0,0.0,0.0,0.0,0.0,0.0,0.0,0.0,0.0,0.0,0.0,0.0,0.0,0.0,0.0,0.0,0.0,0.0,0.0,0.0,0.0,0.0,0.0,0.0,0.0,0.0,0.0,0.0,0.0,0.0,0.0,0.0,0.0,-3.9539,-3.947,-4.0075,-4.0489,-4.0436,-4.0455,-4.0489,-4.0489,-4.0489,-4.0489,-4.0489,-4.0489,-4.0489,-4.0489,-4.0489,-4.0489,-4.0489,-4.0489,-4.0489,-4.0489,-4.0489,-4.0489,-4.0489,-4.0489,-4.0489,-4.0489,-4.0489,-4.0489,-4.0489,-4.0489,-4.1024,-4.1836,-4.2078,-4.1995,-4.1824,-4.225,-4.2134,-4.1778,0.0,0.0,0.0,0.0,0.0,0.0,0.0,-2.3543,-2.375,-2.2979,-2.3578,-2.3786,-2.3097,-2.3497,-2.3805,-2.3805,-2.4053,-2.4202,-2.4202,-2.4202,-2.4202,-2.4202,-2.4202,-2.4202,-2.4202,-2.4202,-2.4202,-2.4202,-2.5167,-2.5645,-2.5684,-2.6145,-2.6026,-2.5397,-2.5671,-2.5396,-2.4766,-2.5599,-2.5668,-2.5319,-2.6163,-2.6203,-2.5915,0.0,0.0,0.0,0.0,0.0,0.0,0.0,0.0,0.0,0.0,0.0,0.0,0.0,0.0,0.0,0.0,0.0,0.0,0.0,0.0,0.0,0.0,0.0,0.0,0.0,0.0,0.0,0.0,0.0,0.0,0.0,0.0,0.0,-3.8817,-3.9725,-4.0207,-3.9996,-4.0296,-4.0436,-4.0296,-4.0401,-4.0489,-4.0489,-4.0489,-4.0489,-4.0489,-4.0489,-4.0489,-4.0489,-4.0489,-4.0489,-4.0489,-4.0489,-4.0489,-4.0489,-4.0489,-4.0489,-4.0489,-4.0489,-4.0489,-4.0489,-4.0489,-4.0489,-4.0489,-4.0489,-4.0489,-4.0558,-4.1209,-4.1868,-4.2458,-4.2458,-4.2489,-4.2486,0.0,0.0,0.0,0.0,0.0,0.0,0.0,-2.2467,-2.2426,-2.2636,-2.3038,-2.3247,-2.2996,-2.3497,-2.3805,-2.3805,-2.4053,-2.4202,-2.4202,-2.4202,-2.4202,-2.4202,-2.4202,-2.4202,-2.4202,-2.4202,-2.4202,-2.4202,-2.4489,-2.4587,-2.4627,-2.547,-2.546,-2.4781,-2.5658,-2.5894,-2.5734,-2.5972,-2.6097,-2.6221,-2.6093,-2.6007,-2.5969,0.0,0.0,0.0,0.0,0.0,0.0,0.0,0.0,0.0,0.0,0.0,0.0,0.0,0.0,0.0,0.0,0.0,0.0,0.0,0.0,0.0,0.0,0.0,0.0,0.0,0.0,0.0,0.0,0.0,0.0,0.0,0.0,-3.7305,-3.826,-3.9239,-3.9824,-3.9803,-3.998,-4.0137,-4.0101,-4.0242,-4.0331,-4.0331,-4.047,-4.0489,-4.0489,-4.0489,-4.0489,-4.0489,-4.0489,-4.0489,-4.0489,-4.0489,-4.0489,-4.0489,-4.0489,-4.0489,-4.0489,-4.0489,-4.0489,-4.0489,-4.0489,-4.0489,-4.0489,-4.0489,-4.0489,-4.0524,-4.0715,-4.0904,-4.1125,-4.1591,-4.2078,-4.2488,0.0,0.0,0.0,0.0,0.0,0.0,0.0,-2.1776,-2.1827,-2.219,-2.2594,-2.2846,-2.2846,-2.3297,-2.3646,-2.3646,-2.4003,-2.4202,-2.4202,-2.4202,-2.4202,-2.4202,-2.4202,-2.4202,-2.4202,-2.4202,-2.4202,-2.4202,-2.4202,-2.4202,-2.4202,-2.4784,-2.4726,-2.4093,-2.5001,-2.5294,-2.5157,-2.58,-2.6192,-2.6404,-2.6465,-2.6273,-2.5965,-2.6449,-2.6491,-2.6344,-2.7246,-2.7992,-2.8662,-2.9001,0.0,0.0,0.0,0.0,0.0,0.0,0.0,0.0,0.0,0.0,0.0,0.0,0.0,0.0,0.0,0.0,0.0,0.0,0.0,0.0,0.0,0.0,0.0,0.0,-3.5843,-3.6557,-3.7092,-3.8308,-3.9133,-3.909,-3.9625,-3.996,-3.9889,-4.0066,-4.0207,-4.0312,-4.0366,-4.0401,-4.0401,-4.047,-4.0455,-4.0436,-4.0455,-4.0489,-4.0489,-4.0489,-4.0489,-4.0489,-4.0489,-4.0489,-4.0489,-4.0489,-4.0489,0.0,-4.0489,-4.0489,-4.0489,-4.0489,-4.0489,0.0,0.0,0.0,0.0,0.0,-4.1343,-4.1706,0.0,0.0,0.0,0.0,0.0,0.0,0.0,-2.1428,-2.1827,-2.1827,-2.2291,-2.2594,-2.2644,-2.3097,-2.3397,-2.3447,-2.3904,-2.4202,-2.4202,-2.4202,-2.4202,-2.4202,-2.4202,-2.4202,-2.4202,-2.4202,-2.4202,-2.4202,-2.4202,-2.4202,-2.4202,-2.4202,-2.3895,-2.3447,-2.4093,-2.4134,-2.3777,-2.5206,-2.5945,-2.6139,-2.687,-2.6718,-2.6086,-2.6086,-2.6055,-2.6083,-2.6836,-2.7711,-2.8654,-2.9404,0.0,0.0,0.0,0.0,0.0,0.0,0.0,0.0,0.0,0.0,0.0,0.0,0.0,0.0,0.0,0.0,0.0,0.0,0.0,0.0,0.0,0.0,0.0,0.0,-3.5032,-3.5575,-3.5643,-3.7109,-3.8165,-3.8075,-3.9039,-3.973,-3.9643,-3.9877,-4.0137,-4.0436,-4.0456,-4.0491,-4.0526,0.0,0.0,0.0,0.0,-4.0566,-4.0489,-4.0489,-4.0489,-4.0489,-4.0489,-4.0489,-4.0489,-4.0489,-4.0489,-4.0489,-4.0489,-4.0489,-4.0489,-4.0489,-4.0489,-4.0489,-4.0489,-4.0489,-4.0489,-4.0489,-4.0489,-4.0593,0.0,0.0,0.0,0.0,0.0,0.0,0.0,-2.1784,-2.2443,-2.2443,-2.2544,-2.2695,-2.2896,-2.3197,-2.3506,-2.3696,-2.4003,-2.4202,-2.4202,-2.4202,-2.4202,-2.4202,-2.4202,-2.4202,-2.4202,-2.4202,-2.4202,-2.4202,-2.4202,-2.4202,-2.4202,-2.4202,-2.3895,-2.3406,-2.3546,-2.3637,-2.3728,-2.4026,-2.4913,-2.6091,-2.6294,-2.6625,-2.704,-2.704,-2.6812,-2.648,-2.6664,-2.7038,-2.7536,-2.7667,-2.8881,-3.0301,-3.0301,-3.0852,0.0,0.0,0.0,0.0,0.0,0.0,0.0,0.0,0.0,0.0,0.0,0.0,0.0,0.0,0.0,0.0,0.0,0.0,0.0,-3.4397,-3.4551,-3.4805,-3.5305,-3.6223,-3.6939,-3.712,-3.7788,-3.849,-3.9156,-3.9853,-4.0573,-4.1361,-4.1553,-4.1684,-4.1882,-4.1918,0.0,-4.1381,-4.1351,-4.1109,-4.0505,-4.0489,-4.0489,-4.0489,0.0,0.0,-4.0489,-4.0489,-4.0489,-4.0489,-4.0489,-4.0489,-4.0489,-4.0489,-4.0489,-4.0489,-4.0489,-4.0489,-4.0489,-4.0489,-4.0489,-4.0524,0.0,0.0,0.0,0.0,0.0,0.0,0.0,-2.2241,-2.2594,-2.2594,-2.2594,-2.2644,-2.2795,-2.3147,-2.3447,-2.3605,-2.3954,-2.4202,-2.4202,-2.4202,-2.4202,-2.4202,-2.4301,-2.4341,-2.4341,-2.4341,-2.4341,-2.4341,-2.4251,-2.4202,-2.4202,-2.4202,-2.3895,-2.3397,-2.3397,-2.3297,-2.3188,-2.3538,-2.4174,-2.4962,-2.58,-2.6342,-2.6726,-2.7167,-2.7164,-2.6957,-2.6957,-2.7395,-2.7958,-2.7958,-2.8891,-3.0082,-3.0082,-3.0733,-3.1527,0.0,0.0,0.0,0.0,0.0,0.0,0.0,0.0,0.0,0.0,0.0,0.0,0.0,0.0,-3.4397,0.0,0.0,-3.4502,-3.4803,-3.4842,-3.5051,-3.5626,-3.6065,-3.6513,-3.7071,-3.7753,-3.838,-3.882,-3.9621,-4.0202,-4.0295,-4.0799,-4.0952,-4.0615,-4.0693,-4.0598,-4.0273,-4.0334,-4.0099,-3.9417,-3.9616,-3.9612,-3.9305,-3.9529,-3.9651,-3.9651,-3.995,-4.0106,-4.0106,-4.0106,-4.0106,-4.0071,-3.9773,-3.9844,-4.0106,-4.0106,-4.0246,-4.0489,-4.0489,-4.0489,-4.0489,0.0,0.0,0.0,0.0,0.0,0.0,0.0,-2.2544,-2.2594,-2.2594,-2.2594,-2.2644,-2.2745,-2.3147,-2.3447,-2.3555,-2.3954,-2.4202,-2.4202,-2.4202,-2.4202,-2.4202,-2.439,-2.448,-2.448,-2.448,-2.448,-2.448,-2.4291,-2.4202,-2.4202,-2.4202,-2.3954,-2.3497,-2.3397,-2.3147,-2.2695,-2.3238,-2.3578,-2.3827,-2.5109,-2.58,-2.6197,-2.6822,-2.7156,-2.7309,-2.7309,-2.7809,-2.8445,-2.8445,-2.9084,-2.9897,-2.9897,-3.0576,-3.1359,-3.1392,-3.2064,0.0,0.0,0.0,0.0,0.0,0.0,0.0,0.0,-3.4397,-3.4397,-3.4397,-3.4397,-3.4437,-3.4554,-3.4567,-3.4763,-3.5365,-3.5456,-3.5652,-3.6201,-3.6279,-3.6582,-3.7397,-3.7959,-3.8367,-3.8533,-3.9316,-3.9672,-3.925,-3.9914,-4.0049,-3.9318,-3.944,-3.9398,-3.9148,-3.9311,-3.9062,-3.8318,-3.8673,-3.8563,-3.7988,-3.8457,-3.8657,-3.8694,-3.9271,-3.9538,-3.9538,-3.9538,-3.9538,-3.9502,-3.9017,-3.909,-3.9538,-3.9538,-3.9859,-4.0351,-4.0455,-4.0489,-4.0489,0.0,0.0,0.0,0.0,0.0,0.0,0.0,0.0,-2.2594,-2.2594,-2.2594,-2.2795,-2.3247,-2.3347,-2.3596,-2.4053,-2.4152,-2.4202,-2.4202,-2.4202,-2.4202,-2.4202,-2.439,-2.448,-2.448,-2.448,-2.448,-2.448,-2.4291,-2.4202,-2.4202,-2.4202,-2.4053,-2.3755,-2.3506,-2.3247,-2.2946,-2.2795,-2.3088,-2.3728,-2.3877,-2.4815,-2.6091,-2.6197,-2.6678,-2.7309,-2.7309,-2.7357,-2.7441,-2.7441,-2.8081,-2.8863,-2.8863,-2.9532,-3.0384,-3.0586,-3.0598,-3.0654,-3.1009,-3.1948,-3.2993,-3.3894,-3.4285,-3.4397,0.0,-3.4397,-3.4397,-3.4397,-3.4397,-3.4554,-3.5103,-3.5195,-3.5378,-3.5926,-3.6018,-3.6227,-3.6815,-3.6907,-3.7148,-3.7775,-3.7445,-3.7502,-3.8347,-3.897,-3.9605,-4.0336,-4.052,-4.0591,-4.0689,-4.0689,-4.0517,-4.0046,-4.0073,-3.9503,-3.8318,-3.8357,-3.811,-3.7548,-3.7988,-3.8175,-3.8175,-3.8694,-3.8892,-3.8892,-3.8892,-3.8892,-3.8892,-3.8819,-3.8819,-3.8892,-3.8892,-3.9271,-3.9859,-4.0316,-4.0489,-4.0489,0.0,0.0,0.0,0.0,0.0,0.0,0.0,0.0,0.0,0.0,-2.2745,-2.2896,-2.3147,-2.3456,-2.3805,-2.4152,-2.4202,-2.4202,-2.4202,-2.4301,-2.439,-2.439,-2.4735,-2.499,-2.499,-2.4833,-2.4735,-2.4735,-2.435,-2.4202,-2.4202,-2.4202,-2.4053,-2.3805,-2.3497,-2.3247,-2.2996,-2.2695,-2.2795,-2.3138,-2.4016,-2.4796,-2.5489,-2.6428,-2.7013,-2.7309,-2.7309,-2.7309,0.0,0.0,-2.7584,-2.7904,-2.7904,-2.8538,-2.9349,-2.9429,-2.9795,-3.0249,-3.053,-3.1288,-3.2103,-3.255,-3.3232,-3.381,-3.381,-3.4105,-3.4502,-3.4842,-3.492,-3.509,-3.5665,-3.577,-3.5953,0.0,-3.6619,-3.6841,-3.7442,-3.7521,-3.7625,-3.7874,-3.7678,-3.7657,-3.8081,-3.8791,-3.9135,-3.9042,-3.9489,-3.9607,-3.9193,-3.9149,-3.9084,-3.8884,-3.8871,-3.845,-3.7526,-3.7794,-3.7496,-3.6591,-3.7019,-3.7023,-3.6727,-3.7271,-3.7653,-3.7866,-3.8173,-3.8075,-3.7734,-3.7734,-3.7962,-3.8263,-3.8263,-3.8634,-3.9235,-3.9824,-4.0211,-4.0489,0.0,0.0,0.0,0.0,0.0,0.0,0.0,0.0,0.0,0.0,-2.2896,-2.3046,-2.3197,-2.3646,-2.4003,-2.4202,-2.4202,-2.4202,-2.4202,-2.4341,-2.444,-2.444,-2.4833,-2.5137,-2.5186,-2.4932,-2.4833,-2.4883,-2.4449,-2.4202,-2.4202,-2.4202,-2.4102,-2.3904,-2.3546,-2.3297,-2.3097,-2.2745,-2.2594,-2.2695,-2.4066,-2.4698,-2.5041,-2.6428,-2.7109,-2.7309,-2.7309,-2.7309,0.0,0.0,-2.7309,-2.7309,-2.7309,-2.7762,-2.8315,-2.8315,-2.8806,-2.9486,-2.9875,-3.0463,-3.1,-3.14,-3.2281,-3.317,-3.3528,-3.4114,-3.4743,-3.5387,-3.5521,-3.5691,-3.6253,-3.6358,-3.6554,-3.7155,-3.726,-3.7403,-3.7848,-3.79,-3.79,-3.79,-3.79,-3.79,-3.79,-3.8472,-3.8594,-3.7946,-3.8472,-3.8549,-3.7946,-3.79,-3.79,-3.79,-3.79,-3.7612,-3.7011,-3.7324,-3.6985,-3.5966,-3.627,-3.6169,-3.575,-3.6166,-3.6492,-3.6791,-3.726,-3.725,-3.6836,-3.694,-3.725,-3.7658,-3.7658,-3.8037,-3.8598,-3.9053,-3.9666,-4.0281,0.0,0.0,0.0,0.0,0.0,0.0,0.0,0.0,0.0,0.0,0.0,0.0,0.0,-2.4003,-2.4202,-2.4202,-2.4202,-2.4202,-2.4202,-2.4202,-2.4202,-2.4202,-2.439,-2.4637,-2.4883,-2.4637,-2.4637,-2.4883,-2.4449,-2.4202,-2.4202,-2.4202,-2.4202,-2.4152,-2.3646,-2.3397,-2.3347,-2.2795,-2.2594,-2.2695,-2.3438,-2.4214,-2.4992,-2.5839,-2.663,-2.7309,-2.7309,0.0,0.0,-2.7309,-2.7309,-2.7309,-2.7309,-2.7309,-2.7357,-2.7357,-2.7347,-2.7584,-2.8491,-2.8945,-2.9475,-3.0866,-3.1783,-3.2674,-3.3884,-3.4591,-3.5188,-3.5939,-3.6083,-3.6266,-3.6867,-3.6972,-3.7168,-3.7782,-3.7874,-3.7887,-3.79,-3.79,-3.79,-3.79,-3.79,-3.79,0.0,-3.79,-3.7946,-3.79,-3.79,-3.7946,-3.79,-3.79,-3.79,-3.79,-3.79,-3.7612,-3.7011,-3.6998,-3.6698,-3.607,-3.6005,-3.5896,-3.5911,-3.5777,-3.571,-3.575,-3.6218,-3.6445,-3.6431,-3.6836,-3.7017,-3.7017,-3.7017,-3.7404,-3.7924,-3.7962,-3.8708,-3.9788,0.0,0.0,0.0,0.0,0.0,0.0,0.0,0.0,0.0,0.0,0.0,0.0,0.0,0.0,0.0,0.0,-2.4341,-2.4341,-2.4202,-2.4489,-2.4637,-2.4637,-2.4735,-2.4981,-2.544,-2.4833,-2.4627,-2.4883,-2.4449,-2.4202,-2.4202,-2.4202,-2.4102,-2.3954,-2.4093,-2.4035,-2.3886,-2.4066,-2.4115,-2.4205,-2.4962,-2.545,-2.579,-2.6582,-2.7061,-2.7309,0.0,0.0,-2.7309,-2.7309,-2.7309,-2.7309,-2.7309,-2.7309,-2.7372,-2.7614,-2.7696,-2.7745,-2.8072,-2.8727,-2.9332,-2.9506,-3.0809,-3.2218,-3.2635,-3.3515,-3.4549,-3.5698,-3.5955,-3.6283,-3.7391,-3.7599,-3.7665,-3.7874,-3.79,-3.79,-3.79,-3.79,-3.79,-3.79,-3.79,0.0,0.0,0.0,0.0,-3.79,-3.79,-3.79,-3.79,-3.79,-3.79,-3.79,-3.79,-3.7808,-3.7599,-3.7599,-3.7299,-3.6684,-3.624,-3.5854,-3.5499,-3.5752,-3.5652,-3.5318,-3.5764,-3.5938,-3.5938,-3.6071,-3.6151,-3.6151,-3.6151,-3.6429,-3.6954,-3.7323,-3.7895,-3.8598,0.0,0.0,0.0,0.0,0.0,0.0,0.0,0.0,0.0,0.0,0.0,0.0,0.0,0.0,0.0,0.0,0.0,-2.4341,-2.4202,-2.4833,-2.5216,-2.5294,-2.5586,-2.5974,-2.6456,-2.5829,-2.5586,-2.5877,-2.5489,-2.5294,-2.5294,-2.5294,-2.5099,-2.4766,-2.4962,-2.4864,-2.4569,-2.4796,-2.4894,-2.4992,-2.579,-2.61,-2.6197,-2.6965,-2.7309,0.0,0.0,0.0,-2.7309,-2.7309,-2.7309,-2.7309,-2.7309,-2.7413,-2.7552,-2.7841,-2.8038,-2.8173,-2.8173,-2.8637,-2.9091,-2.8981,-3.031,-3.1732,-3.22,-3.3185,-3.4426,-3.5869,-3.6189,-3.6534,-3.7684,-3.79,-3.79,-3.79,-3.79,-3.79,-3.79,-3.79,-3.79,-3.79,-3.79,-3.79,0.0,0.0,0.0,-3.79,-3.79,-3.79,-3.79,-3.79,-3.79,-3.79,-3.79,-3.79,-3.79,-3.79,-3.7599,-3.6998,-3.6606,-3.6031,-3.5299,-3.5584,-3.5381,-3.4867,-3.5318,-3.548,-3.5521,-3.5642,-3.571,-3.571,-3.571,-3.5884,-3.6178,-3.6545,-3.6975,-3.7519,0.0,0.0,0.0,0.0,0.0,0.0,0.0,0.0,0.0,0.0,0.0,0.0,0.0,0.0,0.0,0.0,0.0,0.0,-2.4341,-2.5255,-2.5868,-2.6079,-2.6798,-2.7416,-2.7876,-2.7463,-2.7332,-2.7589,-2.7332,-2.7189,-2.7189,-2.7189,-2.6962,-2.6494,-2.6244,-2.5868,-2.5343,-2.5138,-2.5041,-2.5089,-2.5839,-2.6139,-2.6245,-2.7013,-2.7309,0.0,-2.7309,-2.7309,-2.7309,-2.7309,-2.7309,-2.7309,-2.7309,-2.7572,-2.7875,-2.7955,-2.8286,-2.8649,-2.8649,-2.8659,-2.878,-2.9257,-3.0134,-3.1219,-3.244,-3.3494,-3.4678,-3.6225,-3.6568,-3.6862,0.0,0.0,-3.79,-3.79,-3.79,-3.79,-3.79,-3.79,-3.79,0.0,0.0,0.0,0.0,0.0,0.0,-3.79,0.0,-3.79,-3.79,-3.79,-3.79,-3.79,-3.79,-3.79,-3.79,-3.79,-3.7612,-3.705,-3.705,-3.6462,-3.5391,-3.5391,-3.5051,-3.4531,-3.4959,-3.5165,-3.5165,-3.5561,-3.5724,-3.5724,-3.5697,-3.5683,-3.5724,-3.5683,-3.5978,-3.6589,0.0,0.0,0.0,0.0,0.0,0.0,0.0,0.0,0.0,0.0,0.0,0.0,0.0,0.0,0.0,0.0,0.0,0.0,-2.6388,-2.6867,-2.7163,-2.72,-2.7189,-2.7437,-2.7977,-2.7484,-2.7332,-2.7589,-2.7332,-2.7189,-2.7189,-2.7189,-2.7047,-2.6751,-2.6877,-2.6744,-2.6446,-2.661,-2.6668,-2.6716,-2.6918,-2.6965,-2.7023,-2.7214,-2.7309,-2.7309,-2.7309,-2.7309,-2.7309,-2.7309,-2.7309,-2.7309,-2.7309,-2.7572,-2.7997,-2.8338,-2.8763,-2.9125,-2.9125,-2.9384,-2.9611,-2.9371,-3.0071,-3.0912,-3.1258,-3.1814,-3.27,-3.408,-3.4848,-3.5582,-3.6769,-3.7505,0.0,-3.79,-3.79,0.0,-3.79,-3.79,0.0,-3.79,0.0,-3.79,-3.79,-3.79,0.0,0.0,-3.79,-3.79,-3.79,-3.79,-3.79,-3.79,-3.79,-3.79,-3.79,-3.79,-3.7821,-3.7678,-3.7678,-3.7286,-3.6567,-3.6567,-3.624,-3.5665,-3.5795,-3.5851,-3.5838,-3.5967,-3.6009,-3.597,-3.5561,-3.5571,-3.5797,-3.5397,-3.5521,-3.5924,0.0,0.0,0.0,0.0,0.0,0.0,0.0,0.0,0.0,0.0,0.0,0.0,0.0,0.0,0.0,0.0,0.0,0.0,0.0,-2.7861,-2.8247,-2.8247,-2.8552,-2.8841,-2.9141,-2.8749,-2.8609,-2.876,-2.8609,-2.8516,-2.8516,-2.8516,-2.8319,-2.7992,-2.7919,-2.7647,-2.7315,-2.7299,-2.7309,0.0,0.0,-2.7309,-2.7309,-2.7309,-2.7309,-2.7309,-2.7309,-2.7309,-2.7309,-2.7309,-2.7309,-2.7309,-2.7309,-2.7707,-2.8276,-2.8535,-2.9083,-2.9611,-2.9611,-2.9798,-2.9932,-2.9673,-3.0192,-3.0785,-3.0785,-3.1208,-3.1964,-3.33,-3.3932,-3.4715,-3.6367,-3.7062,-3.7505,-3.7854,0.0,0.0,-3.79,-3.79,-3.79,0.0,-3.79,0.0,-3.79,-3.79,-3.79,0.0,-3.79,-3.79,-3.79,-3.79,-3.79,-3.79,-3.79,-3.79,-3.79,-3.79,-3.79,-3.79,-3.79,-3.7586,-3.6998,-3.6998,-3.6671,-3.6109,0.0,-3.6109,-3.6109,-3.6109,-3.6109,-3.607,-3.577,-3.5637,-3.5587,-3.5299,-3.5299,-3.544,0.0,0.0,0.0,0.0,0.0,0.0,0.0,0.0,0.0,0.0,0.0,0.0,0.0,0.0,0.0,0.0,0.0,0.0,0.0,0.0,-2.9268,-2.9268,-3.0057,-3.0532,-3.0532,-3.0306,-3.0216,-3.0216,-3.0216,-3.0216,-3.0216,-3.0216,-2.9943,-2.9485,-2.8956,-2.8456,-2.7998,-2.7489,-2.7309,-2.7309,-2.7309,-2.7309,-2.7309,0.0,0.0,-2.7309,-2.7309,-2.7309,-2.7309,-2.7309,-2.7309,-2.732,-2.7382,-2.7935,-2.8628,-2.869,-2.9321,-2.9994,-2.9994,-2.9994,-2.9994,-2.9994,-3.0339,-3.0692,-3.0692,-3.1054,-3.1761,-3.2951,-3.3289,-3.3981,-3.6023,-3.6508,-3.6862,-3.7703,-3.7854,-3.79,-3.79,-3.79,-3.79,-3.79,-3.79,-3.79,-3.79,-3.79,-3.79,-3.79,-3.79,-3.79,-3.79,-3.79,-3.79,-3.79,-3.79,-3.79,-3.79,-3.79,-3.79,-3.79,-3.79,-3.7639,-3.7116,-3.7116,-3.6841,-3.6345,0.0,0.0,-3.6345,-3.6345,-3.6345,-3.6332,-3.6253,-3.5887,-3.5391,-3.5325,-3.5173,-3.499,0.0,0.0,0.0,0.0,0.0,0.0,0.0,0.0,0.0,0.0,-2.984,-2.9886,0.0,0.0,0.0,0.0,0.0,0.0,0.0,0.0,0.0,-3.0023,-3.017,-3.0261,-3.0261,-3.0216,-3.0216,-3.0216,-3.0216,-3.0216,-3.0216,-3.0216,-2.9943,-2.9485,-2.8956,-2.8456,-2.7998,-2.7489,-2.7309,-2.7309,-2.7309,-2.7309,-2.7309,0.0,0.0,0.0,-2.7309,-2.7309,-2.7309,-2.7309,-2.7309,-2.7372,-2.7696,-2.8183,-2.869,-2.9073,-2.957,-2.9994,-2.9994,-2.9994,-2.9994,-2.9994,-3.0047,-3.0151,-3.0151,-3.0193,-3.0453,-3.1146,-3.183,-3.2778,-3.4471,-3.5474,-3.6389,-3.74,-3.7762,-3.79,-3.79,-3.79,-3.79,0.0,-3.79,-3.79,-3.79,-3.79,0.0,0.0,0.0,-3.79,-3.79,-3.79,-3.79,-3.79,-3.79,-3.79,-3.79,-3.79,-3.79,-3.79,-3.79,-3.7848,-3.7743,-3.7743,-3.7691,-3.7586,-3.7586,0.0,-3.7586,-3.7586,-3.7586,-3.7547,-3.7037,-3.6488,-3.5913,-3.5456,-3.4962,-3.4522,0.0,0.0,0.0,0.0,0.0,0.0,0.0,-3.0442,-3.0216,-3.0216,-3.0216,-3.0216,-3.0216,-2.9749,0.0,0.0,0.0,0.0,0.0,0.0,0.0,0.0,-3.0352,-3.0532,-3.0758,-3.0758,-3.0758,-3.0758,0.0,-3.0758,-3.0758,-3.0125,-2.9886,-2.9966,-2.8817,-2.8222,-2.7998,-2.7489,-2.7309,-2.7309,-2.7309,-2.7309,0.0,0.0,0.0,0.0,-2.7309,-2.7309,-2.7309,-2.7309,-2.7309,-2.7382,-2.7779,-2.8245,-2.87,-2.9166,-2.9632,-2.9994,-2.9994,-2.9994,-2.9994,-2.9994,-2.9994,-2.9994,-2.9994,-2.9994,-3.0141,-3.0692,-3.1084,-3.183,-3.33,-3.441,-3.5426,-3.632,-3.7062,-3.7505,-3.7657,-3.7703,-3.7749,-3.79,-3.79,-3.79,0.0,-3.79,0.0,0.0,0.0,-3.79,-3.79,-3.79,-3.79,-3.79,-3.79,-3.79,-3.79,-3.79,-3.79,-3.79,-3.79,-3.79,-3.79,-3.79,-3.79,-3.79,-3.79,0.0,-3.79,-3.79,-3.79,-3.7874,-3.7586,-3.692,-3.607,-3.5809,-3.5155,-3.4397,0.0,0.0,0.0,0.0,0.0,0.0,0.0,-3.1015,-3.0611,-3.0442,-3.0442,-3.0397,-3.0216,-3.0216,-3.0216,0.0,0.0,0.0,0.0,0.0,0.0,0.0,0.0,0.0,-3.1516,0.0,0.0,-3.1516,-3.1516,0.0,0.0,0.0,0.0,0.0,-2.9037,-2.8362,-2.8445,-2.7857,-2.7584,0.0,0.0,-2.7489,0.0,0.0,0.0,0.0,0.0,-2.7309,-2.7309,-2.7309,-2.7372,-2.7479,-2.7924,-2.8317,-2.8721,-2.929,-2.9715,-2.9994,-2.9994,-2.9994,-2.9994,-2.9994,-2.9994,-2.9994,-2.9994,-2.9994,-3.0141,-3.0536,-3.064,-3.1043,-3.2297,-3.3289,-3.4166,-3.4945,-3.6023,-3.6815,-3.7062,-3.7307,-3.7564,-3.7808,-3.7854,0.0,-3.79,-3.79,0.0,0.0,0.0,0.0,-3.79,-3.79,-3.79,-3.79,-3.79,-3.79,-3.79,-3.79,-3.79,-3.79,-3.79,-3.79,-3.79,-3.79,-3.79,-3.79,-3.79,0.0,0.0,-3.79,-3.79,-3.79,-3.79,-3.7168,-3.6109,-3.6109,-3.5378,-3.4397,0.0,0.0,0.0,0.0,0.0,0.0,0.0,-3.2127,-3.1877,-3.1294,-3.1217,-3.0937,-3.0261,-3.0216,-3.0216,0.0,0.0,0.0,0.0,0.0,0.0,0.0,0.0,0.0,0.0,0.0,0.0,-3.2227,-3.2227,0.0,0.0,0.0,0.0,0.0,0.0,-2.96,-2.9943,-2.8991,0.0,0.0,0.0,0.0,0.0,0.0,0.0,0.0,0.0,-2.7309,-2.7309,-2.7309,-2.7531,-2.7945,-2.8411,-2.8587,-2.8794,-2.9673,-2.9963,-2.9994,-2.9994,-2.9994,-2.9994,-2.9994,-2.9994,-2.9994,-2.9994,-2.9994,-2.9994,-3.0047,-3.0088,-3.0391,-3.1534,-3.1982,-3.2566,-3.3601,-3.4836,-3.5678,-3.5678,-3.6722,-3.7505,-3.7551,0.0,0.0,-3.79,0.0,0.0,0.0,0.0,0.0,-3.79,-3.79,-3.79,-3.79,-3.79,-3.79,-3.79,-3.79,-3.79,-3.79,-3.79,-3.79,-3.79,-3.79,-3.79,-3.79,-3.79,0.0,0.0,-3.79,-3.79,-3.79,-3.79,-3.7168,-3.6109,-3.6109,-3.5378,-3.4397,0.0,0.0,0.0,0.0,0.0,0.0,-3.2945,-3.2575,-3.2183,-3.1933,-3.1548,-3.1172,-3.0892,-3.0847,-3.0668,0.0,0.0,0.0,0.0,0.0,0.0,0.0,0.0,0.0,0.0,0.0,-3.2945,-3.2945,-3.2945,0.0,0.0,0.0,0.0,0.0,0.0,-3.0125,-3.017,-2.9761,0.0,0.0,0.0,0.0,0.0,0.0,0.0,0.0,0.0,0.0,-2.7309,-2.7309,-2.7552,-2.8007,-2.8473,-2.8804,-2.9156,-2.9808,-2.9994,-2.9994,-2.9994,-2.9994,-2.9994,-2.9994,-2.9994,-2.9994,-2.9994,-2.9994,-2.9994,-2.9994,-2.9994,-3.0141,-3.0536,-3.1227,-3.188,-3.2314,-3.3365,-3.4422,-3.521,-3.5738,-3.6414,-3.7366,-3.7598,0.0,0.0,0.0,0.0,0.0,0.0,0.0,-3.79,-3.79,-3.79,-3.79,-3.79,-3.79,-3.79,-3.79,-3.79,-3.79,-3.79,-3.79,-3.79,-3.79,-3.79,-3.79,-3.79,0.0,0.0,-3.79,-3.79,-3.7861,-3.7508,-3.6841,-3.607,-3.5744,-3.5103,-3.4397,0.0,0.0,0.0,0.0,0.0,-3.3056,-3.3526,-3.3159,-3.2791,-3.2618,-3.2208,-3.1825,-3.1605,-3.1593,-3.146,-3.1036,0.0,0.0,0.0,0.0,0.0,0.0,0.0,0.0,0.0,0.0,-3.381,-3.3683,-3.3683,-3.3683,0.0,0.0,-3.2519,-3.2791,0.0,0.0,0.0,0.0,0.0,0.0,0.0,0.0,0.0,0.0,0.0,0.0,0.0,0.0,0.0,0.0,0.0,-2.8183,-2.8514,-2.9032,-2.957,-2.9901,-2.9994,-2.9994,-2.9994,-2.9994,-2.9994,-2.9994,-2.9994,-2.9994,-2.9994,-2.9994,-2.9994,-2.9994,-2.9994,-2.9994,-2.9994,-3.064,-3.1135,-3.1135,-3.2044,-3.3039,-3.3981,-3.4459,-3.5186,-3.6628,0.0,-3.7108,0.0,0.0,0.0,0.0,0.0,0.0,0.0,-3.79,-3.79,-3.79,-3.79,-3.79,-3.79,-3.79,-3.79,-3.79,-3.79,-3.79,-3.79,-3.79,-3.79,-3.79,0.0,0.0,0.0,-3.79,-3.7795,-3.7599,-3.7168,-3.6541,-3.5822,-3.5443,-3.492,-3.4397,0.0,0.0,0.0,0.0,0.0,0.0,-3.4034,-3.4076,-3.3907,-3.3441,-3.3398,-3.3086,-3.2358,-3.2302,-3.2476,-3.295,0.0,0.0,0.0,0.0,0.0,0.0,0.0,0.0,0.0,0.0,-3.4867,-3.4397,-3.4397,-3.4397,-3.4397,-3.416,-3.4076,-3.4034,0.0,0.0,0.0,0.0,0.0,0.0,0.0,0.0,0.0,0.0,0.0,0.0,0.0,0.0,0.0,0.0,0.0,0.0,0.0,-2.9249,-2.9984,-2.9994,-2.9994,-2.9994,-2.9994,-2.9994,-2.9994,-2.9994,-2.9994,-2.9994,-2.9994,-2.9994,-2.9994,-2.9994,-2.9994,-2.9994,-2.9994,-2.9994,-2.9994,-2.9994,-3.094,-3.1626,-3.1626,-3.2767,-3.4007,0.0,0.0,-3.5928,0.0,0.0,0.0,0.0,0.0,0.0,0.0,-3.79,-3.79,-3.79,-3.79,-3.79,-3.79,-3.79,-3.79,-3.79,-3.79,-3.79,-3.79,-3.79,-3.79,0.0,0.0,0.0,0.0,-3.79,-3.7547,-3.7011,-3.6998,-3.6305,-3.5312,-3.5299,-3.492,-3.4397,0.0,0.0,0.0,0.0,0.0,0.0,0.0,-3.4118,-3.4118,-3.4063,-3.3683,-3.33,-3.3074,-3.3031,-3.3232,-3.3645,0.0,0.0,0.0,0.0,0.0,0.0,0.0,0.0,0.0,0.0,-3.4867,-3.4397,-3.4397,-3.4397,-3.4397,-3.4314,-3.4243,-3.4076,-3.3458,-3.3245,0.0,0.0,0.0,0.0,0.0,0.0,0.0,0.0,0.0,0.0,0.0,0.0,0.0,0.0,0.0,0.0,0.0,0.0,0.0,-2.9901,-2.9994,-2.9994,-2.9994,-2.9994,-2.9994,-2.9994,-2.9994,-2.9994,-2.9994,-2.9994,-2.9994,-2.9994,-2.9994,-2.9994,-2.9994,-2.9994,-2.9994,-2.9994,-3.0297,-3.0733,0.0,0.0,0.0,-3.4969,-3.6036,-3.6722,0.0,0.0,0.0,0.0,0.0,0.0,0.0,-3.7505,-3.7703,-3.79,-3.79,-3.79,-3.79,-3.79,-3.79,-3.79,-3.79,-3.79,-3.79,-3.79,0.0,0.0,0.0,0.0,0.0,-3.7456,-3.7168,-3.692,-3.6136,-3.5626,-3.5247,-3.4842,-3.4554,-3.4397,0.0,0.0,0.0,0.0,0.0,0.0,0.0,-3.3937,-3.4063,-3.4356,-3.4021,-3.3768,-3.3768,-3.3768,-3.3937,-3.4384,0.0,0.0,0.0,0.0,0.0,0.0,0.0,0.0,-3.5616,-3.5413,-3.5113,-3.4647,-3.4481,-3.4397,-3.4397,-3.4397,-3.4314,-3.4202,-3.3852,-3.3641,0.0,0.0,0.0,0.0,0.0,0.0,-2.7809,0.0,0.0,0.0,0.0,0.0,0.0,0.0,0.0,0.0,0.0,0.0,0.0,0.0,-2.9994,-2.9994,-2.9994,-2.9994,-2.9994,-2.9994,-2.9994,-2.9994,-2.9994,-2.9994,-2.9994,-2.9994,-2.9994,-2.9994,-2.9994,-2.9994,-2.9994,-2.9994,-2.9994,-3.0245,0.0,0.0,0.0,-3.3624,0.0,0.0,0.0,0.0,0.0,0.0,0.0,0.0,0.0,-3.7261,-3.7459,-3.7749,-3.7854,-3.79,-3.79,-3.79,-3.7795,-3.756,-3.756,-3.7442,-3.722,-3.722,0.0,0.0,0.0,0.0,0.0,-3.6547,-3.6319,-3.6292,-3.5574,-3.5155,-3.4907,-3.4541,-3.4397,-3.4397,0.0,0.0,0.0,0.0,0.0,0.0,0.0,-3.3713,-3.3839,-3.4314,-3.4397,-3.4397,-3.4397,-3.4397,-3.4564,-3.5044,0.0,0.0,0.0,0.0,0.0,0.0,0.0,0.0,-3.6405,-3.5924,-3.5521,-3.5086,-3.4605,-3.4397,-3.4397,-3.4397,-3.4397,-3.4397,-3.3924,-3.367,-3.3641,0.0,0.0,0.0,-3.1536,-3.0362,0.0,0.0,0.0,0.0,0.0,0.0,0.0,0.0,0.0,0.0,0.0,0.0,0.0,0.0,0.0,0.0,0.0,-2.9994,-2.9994,-2.9994,-2.9994,-2.9994,-2.9994,-2.9994,0.0,-2.9994,-2.9994,-2.9994,-2.9994,-2.9994,-2.9994,-2.9994,-2.9994,-2.9994,0.0,-3.0047,0.0,0.0,-3.2538,0.0,0.0,0.0,0.0,0.0,0.0,0.0,0.0,-3.7015,-3.7214,-3.7459,-3.7703,-3.7828,-3.7789,-3.7789,-3.7488,-3.6888,-3.6888,-3.6645,-3.6109,-3.6109,0.0,0.0,0.0,0.0,0.0,-3.5232,-3.5045,-3.5158,-3.5161,-3.4809,-3.4314,-3.4397,-3.4356,-3.4314,0.0,0.0,0.0,0.0,0.0,0.0,0.0,0.0,0.0,0.0,-3.4314,-3.4397,-3.4397,-3.4397,-3.4564,0.0,0.0,0.0,0.0,0.0,0.0,0.0,0.0,0.0,-3.6405,-3.5924,-3.5521,-3.5086,-3.4605,-3.4397,-3.4397,-3.4397,-3.4397,-3.4397,-3.3924,-3.3513,-3.324,-3.3154,0.0,0.0,-3.0812,-2.9806,0.0,0.0,0.0,0.0,-2.6736,-2.6747,0.0,0.0,0.0,0.0,0.0,0.0,0.0,0.0,-2.9715,-2.9994,-2.9994,0.0,-2.9994,-2.9994,-2.9994,-2.9994,0.0,-2.9994,-2.9994,-2.9994,-2.9994,-2.9994,-2.9994,-2.9994,-2.9994,-2.9994,-2.9994,-2.9994,-2.9994,0.0,0.0,-3.1575,0.0,0.0,0.0,0.0,0.0,0.0,0.0,0.0,0.0,-3.6285,-3.6815,-3.6909,-3.7155,-3.7193,-3.6962,-3.6767,-3.6457,-3.6054,-3.6054,-3.6077,-3.6109,-3.6109,0.0,0.0,0.0,0.0,-3.4502,-3.3911,-3.3675,-3.369,-3.3797,-3.3769,-3.3683,-3.423,-3.4063,-3.3654,0.0,0.0,0.0,0.0,0.0,0.0,0.0,0.0,0.0,0.0,0.0,0.0,0.0,0.0,0.0,0.0,0.0,0.0,0.0,0.0,0.0,0.0,0.0,-3.6915,-3.6693,-3.6031,-3.5602,-3.5399,-3.4729,-3.4397,-3.4397,-3.4397,-3.4397,-3.4397,-3.3924,-3.3513,-3.324,-3.3154,-3.281,-3.222,-3.1214,0.0,0.0,0.0,0.0,0.0,-2.6534,-2.6554,0.0,-2.6448,-2.64,-2.6625,0.0,0.0,0.0,0.0,-2.9321,-2.9617,-2.9774,-2.9889,-2.9994,-2.9994,-2.9994,-2.9994,-2.9994,-2.9994,-2.9994,-2.9994,-2.9994,-2.9994,-2.9994,-2.9994,-2.9994,-2.9994,-2.9994,0.0,0.0,0.0,-3.0888,-3.0888,0.0,0.0,0.0,0.0,0.0,0.0,0.0,0.0,0.0,-3.521,-3.5893,-3.5988,-3.6247,-3.6399,-3.6515,-3.6366,-3.5942,-3.5252,-3.5339,-3.5327,-3.5197,-3.5282,-3.4826,0.0,0.0,0.0,-3.2881,-3.2244,-3.2269,-3.2776,-3.2884,-3.3086,-3.3386,-3.3445,-3.3416,-3.3356,0.0,0.0,0.0,0.0,0.0,0.0,0.0,0.0,0.0,0.0,0.0,0.0,0.0,0.0,0.0,0.0,0.0,0.0,0.0,0.0,0.0,0.0,-3.6978,-3.6978,-3.6978,-3.6151,-3.571,-3.571,-3.4812,-3.4397,-3.4397,-3.4397,-3.4397,-3.4356,-3.3882,-3.3598,-3.3398,-3.3197,-3.3124,-3.3025,-3.1989,0.0,0.0,0.0,0.0,0.0,0.0,0.0,0.0,-2.6197,-2.6207,-2.647,-2.69,0.0,0.0,0.0,0.0,0.0,-2.9428,-2.9669,-2.9879,-2.9994,-2.9994,-2.9994,-2.9994,-2.9994,-2.9994,-2.9994,-2.9994,-2.9994,-2.9994,-2.9994,-2.9994,-2.9994,0.0,0.0,-2.9994,-2.9994,-2.9994,-2.9994,0.0,0.0,0.0,0.0,0.0,0.0,0.0,0.0,0.0,-3.3981,-3.4678,-3.4872,-3.5149,-3.5399,-3.562,-3.5818,-3.5405,-3.4425,-3.4585,-3.4358,-3.381,-3.4008,-3.3377,0.0,0.0,0.0,-3.1089,-3.0486,-3.0845,-3.1765,-3.1853,-3.2314,-3.2815,-3.2358,-3.2544,-3.2902,0.0,0.0,0.0,0.0,0.0,0.0,0.0,0.0,0.0,0.0,0.0,0.0,0.0,0.0,0.0,0.0,0.0,0.0,0.0,0.0,0.0,-3.6978,-3.6978,-3.6978,-3.6978,-3.6151,-3.571,-3.571,-3.4812,-3.4397,-3.4397,-3.4397,-3.4314,-3.4118,-3.3852,-3.3598,-3.3398,-3.3197,-3.3124,-3.3025,-3.1989,0.0,0.0,0.0,0.0,0.0,0.0,0.0,0.0,-2.5927,-2.5781,-2.5888,-2.618,0.0,0.0,0.0,0.0,0.0,-2.9084,-2.9185,-2.9353,-2.9889,-2.9994,-2.9994,-2.9994,-2.9994,-2.9994,-2.9994,-2.9994,-2.9994,-2.9994,-2.9994,-2.9994,-2.9994,0.0,-2.9994,0.0,0.0,-2.9994,0.0,0.0,0.0,0.0,0.0,0.0,0.0,0.0,0.0,0.0,-3.2839,-3.3449,-3.3499,-3.3982,-3.3623,-3.2417,-3.3629,-3.4041,-3.3568,-3.3611,-3.3248,-3.2575,-3.2605,-3.1765,0.0,0.0,-2.9715,-2.913,-2.9037,-2.9084,-2.9303,-2.9943,-3.026,-3.0474,-3.1368,-3.1368,-3.0991,0.0,0.0,0.0,0.0,0.0,0.0,0.0,0.0,0.0,0.0,0.0,0.0,0.0,0.0,0.0,0.0,0.0,0.0,0.0,0.0,-3.6978,-3.6978,-3.6978,-3.6978,-3.6978,-3.6151,-3.571,-3.571,-3.4812,-3.4397,-3.4397,-3.4397,-3.4356,-3.4243,-3.4021,-3.3768,-3.3556,-3.3356,-3.3197,-3.3025,0.0,0.0,0.0,0.0,0.0,0.0,0.0,0.0,0.0,0.0,-2.5693,-2.5732,-2.6004,0.0,0.0,0.0,0.0,0.0,-2.8767,-2.8877,-2.8983,-2.9406,-2.9669,-2.9774,-2.9774,-2.9889,-2.9994,-2.9994,-2.9994,-2.9994,-2.9994,-2.9994,-2.9994,-2.9994,0.0,-2.9994,-2.9994,0.0,0.0,0.0,0.0,0.0,0.0,0.0,0.0,0.0,0.0,0.0,0.0,0.0,-3.2336,-3.2336,-3.2626,-3.2404,-3.1685,-3.1837,-3.1809,-3.1645,-3.1765,-3.1665,-3.1356,-3.1432,-3.0721,-2.9395,0.0,-2.8991,-2.8315,-2.8315,-2.8445,-2.8724,-2.9095,-2.9463,-2.9852,-3.0429,-3.0351,-2.9966,0.0,0.0,0.0,0.0,0.0,0.0,0.0,0.0,0.0,0.0,0.0,0.0,0.0,0.0,0.0,0.0,0.0,0.0,0.0,-3.6443,-3.6915,-3.6978,-3.6915,-3.6915,-3.6978,-3.6151,-3.571,-3.571,-3.4812,-3.4397,-3.4397,-3.4397,-3.4397,-3.4397,-3.4202,-3.3937,-3.367,-3.3471,-3.3283,-3.3025,0.0,0.0,0.0,0.0,0.0,0.0,0.0,0.0,0.0,0.0,0.0,0.0,0.0,0.0,0.0,-2.6981,-2.7312,-2.766,-2.8301,-2.8552,-2.8674,-2.8877,-2.9237,-2.9606,-2.9606,-2.9827,-2.9994,-2.9994,-2.9994,-2.9994,-2.9994,-2.9994,-2.9994,-2.9994,-2.9994,-2.9994,-2.9994,0.0,0.0,0.0,0.0,0.0,0.0,0.0,0.0,0.0,0.0,0.0,0.0,0.0,-3.1238,-3.1238,-3.1288,-3.1208,-3.0967,-3.0213,-2.9988,-3.0215,-3.0373,-3.0316,-3.009,-3.0259,-2.9727,-2.8667,-2.8667,-2.8351,-2.7857,-2.7857,-2.8045,-2.8362,-2.842,-2.8828,-2.9406,-2.9406,-2.9371,-2.9244,0.0,0.0,0.0,0.0,0.0,0.0,0.0,0.0,0.0,0.0,0.0,0.0,0.0,0.0,0.0,0.0,0.0,0.0,0.0,0.0,-3.6628,-3.6978,-3.6654,-3.6628,-3.6978,-3.6151,-3.571,-3.571,-3.4812,-3.4397,-3.4397,-3.4397,-3.4397,-3.4397,-3.4202,-3.3937,-3.367,-3.3471,-3.3283,-3.3068,-3.3025,0.0,0.0,0.0,0.0,0.0,0.0,0.0,0.0,0.0,0.0,0.0,0.0,0.0,-2.5869,-2.6309,-2.6728,-2.7158,-2.765,-2.8051,-2.8344,-2.8344,-2.8973,-2.9606,-2.9606,-2.9827,-2.9994,-2.9994,-2.9994,-2.9994,-2.9994,-2.9994,-2.9994,-2.9994,-2.9994,-2.9994,0.0,0.0,0.0,0.0,0.0,0.0,0.0,0.0,0.0,0.0,0.0,0.0,0.0,0.0,0.0,-3.0141,-3.0192,-2.9785,-2.8807,-2.8826,-2.9268,-3.0215,-3.0215,-2.9715,-2.8806,-2.8852,-2.8351,-2.7441,-2.7441,-2.7404,-2.7347,-2.7347,-2.7357,-2.7404,-2.7404,-2.7715,-2.8128,-2.8128,-2.8409,-2.8771,0.0,0.0,0.0,0.0,0.0,0.0,0.0,0.0,0.0,0.0,0.0,0.0,0.0,0.0,0.0,0.0,0.0,0.0,0.0,-3.5737,-3.6178,-3.6615,-3.647,-3.6589,-3.6978,-3.6151,-3.571,-3.571,-3.4812,-3.4397,-3.4397,-3.4397,-3.4397,-3.4397,-3.4314,-3.416,-3.3937,-3.3683,-3.3471,-3.3283,-3.3154,-3.2295,0.0,0.0,0.0,0.0,0.0,0.0,0.0,0.0,-2.6352,-2.6294,-2.6004,-2.5965,-2.6005,-2.6309,-2.6504,-2.6777,-2.748,-2.7836,-2.7969,-2.8232,-2.8664,-2.9036,-2.9036,-2.9248,-2.9511,-2.9722,-2.9774,-2.9774,-2.9994,-2.9994,-2.9994,-2.9994,-2.9994,-2.9994,0.0,0.0,0.0,0.0,0.0,0.0,0.0,0.0,0.0,0.0,0.0,0.0,0.0,0.0,0.0,-2.9994,-2.9448,-2.9006,-2.8618,-2.8093,-2.8034,-2.8398,-2.8398,-2.8222,-2.7809,-2.7809,-2.7631,-2.7309,-2.7309,-2.7309,-2.7309,-2.7309,-2.7309,-2.7309,-2.7309,-2.7394,-2.7584,-2.7584,-2.7857,-2.8222,0.0,0.0,0.0,0.0,0.0,0.0,0.0,0.0,0.0,0.0,0.0,0.0,0.0,0.0,0.0,0.0,0.0,0.0,-3.5673,-3.5909,-3.6239,-3.6715,-3.6755,-3.6863,-3.7117,-3.6552,-3.609,-3.571,-3.4812,-3.4397,-3.4397,-3.4397,-3.4397,-3.4397,-3.4397,-3.4272,-3.4076,-3.3797,-3.3598,-3.3398,-3.3197,-3.2481,0.0,0.0,0.0,0.0,0.0,0.0,0.0,0.0,-2.6651,-2.6602,-2.6294,-2.6149,-2.616,-2.6379,-2.6428,-2.6593,-2.741,-2.7663,-2.7826,-2.8193,-2.8461,-2.8568,-2.8568,-2.8877,-2.9185,-2.9396,-2.9554,-2.9659,-2.9942,-2.9994,0.0,0.0,-2.9994,0.0,0.0,0.0,0.0,0.0,0.0,0.0,0.0,0.0,0.0,0.0,0.0,0.0,0.0,0.0,0.0,0.0,-2.9239,-2.8763,-2.8618,-2.7852,-2.7444,-2.7309,-2.7309,-2.7309,-2.7309,-2.7309,-2.7309,-2.7309,-2.7309,-2.7309,-2.7309,-2.7309,-2.7309,-2.7309,-2.7309,-2.7309,-2.7309,-2.7309,-2.7489,-2.7715,0.0,0.0,0.0,0.0,0.0,0.0,0.0,0.0,0.0,0.0,0.0,0.0,0.0,0.0,0.0,0.0,0.0,0.0,-3.686,-3.6774,-3.6989,-3.736,-3.7445,-3.7487,-3.7402,-3.7445,-3.6904,-3.5696,-3.4825,-3.441,-3.441,-3.441,-3.441,-3.4397,-3.4397,-3.4272,-3.4076,-3.3797,-3.3598,-3.3398,-3.3197,-3.2481,-3.1625,0.0,0.0,0.0,0.0,0.0,0.0,0.0,-2.69,-2.6853,-2.6602,-2.6294,-2.6149,-2.64,-2.6428,-2.6565,-2.723,-2.7572,-2.7816,-2.8184,-2.8291,-2.8291,-2.8291,-2.8708,-2.9079,-2.9079,-2.9343,-2.9659,-2.9942,-2.9994,0.0,-2.9994,0.0,0.0,0.0,0.0,0.0,0.0,0.0,0.0,0.0,0.0,0.0,0.0,0.0,0.0,0.0,0.0,0.0,0.0,-2.9539,-2.9083,-2.8618,-2.8152,-2.7696,-2.7309,-2.7309,-2.7309,-2.7309,-2.7309,-2.7309,-2.7309,-2.7309,-2.7309,-2.7309,-2.7309,-2.7309,-2.7309,-2.7309,-2.7309,-2.7309,-2.7309,-2.7309,-2.7309,0.0,0.0,0.0,0.0,0.0,0.0,0.0,0.0,0.0,0.0,0.0,0.0,0.0,0.0,0.0,0.0,0.0,0.0,-3.6371,-3.6328,-3.6501,-3.6946,-3.7317,-3.7487,-3.7402,-3.7147,-3.6687,-3.5986,-3.5729,-3.5404,-3.5025,-3.5025,-3.4803,-3.4397,-3.4397,-3.4356,-3.4272,-3.3882,-3.367,-3.3598,-3.324,-3.2939,-3.2667,0.0,0.0,0.0,0.0,0.0,0.0,0.0,0.0,0.0,-2.689,-2.6747,-2.6651,-2.6544,-2.65,-2.6624,-2.7251,-2.7437,-2.7621,-2.8158,-2.8291,-2.8291,-2.8291,-2.8398,-2.8611,-2.8781,-2.9036,-2.929,-2.9343,-2.9564,0.0,0.0,0.0,0.0,0.0,0.0,0.0,0.0,0.0,0.0,0.0,0.0,0.0,0.0,0.0,0.0,0.0,0.0,0.0,0.0,-2.9539,-2.9083,-2.8618,-2.8152,-2.7696,-2.7309,-2.7309,-2.7309,-2.7309,-2.7309,-2.7309,-2.7309,-2.7309,-2.7309,-2.7309,-2.7309,-2.7309,-2.7309,-2.7309,-2.7309,-2.7309,-2.7309,-2.7309,-2.7309,0.0,0.0,0.0,0.0,0.0,0.0,0.0,0.0,0.0,0.0,-4.2216,-4.2,0.0,0.0,0.0,0.0,0.0,0.0,0.0,-3.7338,-3.7395,-3.7523,-3.7786,-3.7903,-3.7873,-3.7435,-3.7095,-3.6815,-3.6332,-3.5926,-3.5626,-3.5626,-3.5312,-3.4763,-3.4763,-3.462,-3.4397,-3.4021,-3.3852,-3.381,-3.3398,-3.324,-3.3197,0.0,0.0,0.0,0.0,0.0,0.0,0.0,0.0,0.0,-2.7129,-2.6996,-2.69,-2.6832,-2.6688,-2.6639,-2.7372,-2.75,-2.7556,-2.8288,-2.8398,-2.8291,-2.8291,-2.8291,-2.8398,-2.8621,-2.8834,-2.8973,-2.9079,-2.929,0.0,0.0,0.0,0.0,0.0,0.0,0.0,0.0,0.0,0.0,0.0,0.0,0.0,0.0,0.0,0.0,0.0,0.0,0.0,0.0,-2.9725,-2.927,-2.8618,-2.8338,-2.7883,-2.7309,-2.7309,-2.7309,-2.7309,-2.7309,-2.7309,-2.7309,-2.7309,-2.7309,-2.7309,-2.7309,-2.7309,-2.7309,-2.7309,-2.7309,-2.7309,-2.7309,-2.7309,-2.7309,0.0,0.0,0.0,0.0,0.0,0.0,0.0,0.0,0.0,0.0,-4.2092,-4.2175,0.0,0.0,0.0,0.0,0.0,0.0,0.0,0.0,-3.906,-3.8679,-3.8602,-3.8557,-3.8602,-3.8116,-3.79,-3.79,-3.6802,-3.624,-3.6188,-3.6188,-3.59,-3.5365,-3.5312,-3.4999,-3.4476,-3.4228,-3.4118,-3.4076,-3.3611,-3.3441,-3.3398,-3.3197,0.0,0.0,0.0,0.0,0.0,0.0,0.0,0.0,-2.7309,-2.7129,-2.6996,-2.7214,-2.6928,-2.6736,-2.7572,-2.7622,-2.7648,-2.8407,-2.8315,-2.8067,-2.796,-2.795,-2.8121,-2.8568,-2.8674,-2.8727,-2.8973,-2.9026,-2.9185,0.0,0.0,0.0,0.0,0.0,0.0,0.0,0.0,0.0,0.0,0.0,0.0,0.0,0.0,0.0,0.0,0.0,0.0,-2.9994,-2.9994,-2.9549,-2.8618,-2.8618,-2.8162,0.0,-2.7309,-2.7309,-2.7309,-2.7309,-2.7309,-2.7309,-2.7309,-2.7309,-2.7309,-2.7309,-2.7309,-2.7309,-2.7309,-2.7309,-2.7309,-2.7309,-2.7309,-2.7309,0.0,0.0,0.0,0.0,0.0,0.0,0.0,0.0,0.0,0.0,0.0,0.0,0.0,0.0,0.0,0.0,0.0,0.0,0.0,0.0,-3.9166,-3.9046,-3.8408,-3.8207,-3.8602,-3.8116,-3.79,-3.79,-3.7639,-3.7273,-3.6815,-3.6815,-3.6488,-3.5913,-3.5482,-3.5221,-3.5077,-3.4396,-3.4118,-3.4076,-3.3768,-3.3556,-3.3398,-3.3356,-3.324,0.0,0.0,0.0,0.0,0.0,0.0,0.0,-2.7309,-2.7262,-2.7225,-2.7262,-2.7214,-2.7195,-2.7494,-2.7802,-2.7955,-2.7594,-2.6826,-2.6063,-2.5562,-2.5443,-2.6,-2.796,-2.8408,-2.8398,-2.8451,-2.8621,0.0,0.0,0.0,0.0,0.0,0.0,0.0,0.0,0.0,0.0,0.0,0.0,0.0,0.0,0.0,0.0,0.0,0.0,0.0,-2.9994,-2.9994,-2.9549,-2.8618,-2.8618,-2.8162,0.0,-2.7309,-2.7309,-2.7309,-2.7309,-2.7309,-2.7309,-2.7309,-2.7309,-2.7309,-2.7309,-2.7309,-2.7309,-2.7309,-2.7309,-2.7309,-2.7309,-2.7309,-2.7309,0.0,0.0,0.0,0.0,0.0,0.0,0.0,0.0,0.0,0.0,0.0,0.0,0.0,0.0,0.0,0.0,0.0,0.0,0.0,0.0,-3.9475,-3.8594,-3.8376,-3.8253,-3.8253,-3.8037,-3.79,-3.79,-3.79,-3.7743,-3.7429,-3.7429,-3.7116,-3.6528,-3.624,-3.5809,-3.5273,-3.4845,-3.4743,-3.4799,-3.4134,-3.405,-3.4233,-3.3641,-3.3313,-3.324,-3.3111,0.0,0.0,0.0,0.0,0.0,0.0,0.0,-2.7309,-2.7309,-2.7309,-2.7307,-2.748,-2.7841,-2.8087,-2.7616,-2.6686,-2.568,-2.5232,-2.4893,-2.5058,-2.6336,-2.7015,-2.7628,-2.8184,0.0,0.0,0.0,0.0,0.0,0.0,0.0,0.0,0.0,0.0,0.0,0.0,0.0,0.0,0.0,0.0,0.0,0.0,-2.9994,-2.9994,-2.9994,-2.9994,-2.9549,-2.8618,-2.8618,-2.8162,-2.7309,-2.7309,-2.7309,-2.7309,-2.7309,-2.7309,-2.7309,-2.7309,-2.7309,-2.7309,-2.7309,-2.7309,-2.7309,-2.7309,-2.7309,-2.7309,-2.7309,-2.7309,-2.7309,0.0,0.0,0.0,0.0,0.0,0.0,0.0,0.0,0.0,0.0,0.0,0.0,0.0,0.0,0.0,0.0,0.0,0.0,0.0,0.0,0.0,-3.8194,-3.833,-3.8298,-3.79,-3.79,-3.79,-3.79,-3.79,-3.79,-3.79,-3.79,-3.7639,-3.7155,-3.705,-3.6511,-3.5644,-3.5539,-3.5662,-3.5816,-3.4799,-3.4731,-3.5142,-3.3911,-3.3441,-3.3356,-3.3154,-3.2438,-3.1492,-3.0711,0.0,0.0,0.0,0.0,-2.7309,-2.7309,-2.7309,-2.7345,-2.7437,-2.7769,-2.7974,-2.7665,-2.6672,-2.5634,-2.5131,-2.4514,-2.4172,-2.4339,-2.5516,-2.6808,-2.7799,0.0,0.0,0.0,0.0,0.0,0.0,0.0,0.0,0.0,0.0,0.0,0.0,0.0,0.0,0.0,0.0,0.0,-2.9994,-2.9994,-2.9994,-2.9994,-2.9994,-2.9549,-2.8618,-2.8618,-2.8162,-2.7309,-2.7309,-2.7309,-2.7309,-2.7309,-2.7309,-2.7309,-2.7309,-2.7309,-2.7309,-2.7309,-2.7309,-2.7309,-2.7309,-2.7309,-2.7309,-2.7309,-2.7309,-2.7309,0.0,0.0,0.0,0.0,0.0,0.0,0.0,0.0,0.0,0.0,-4.2092,-4.2092,0.0,0.0,0.0,0.0,0.0,0.0,0.0,0.0,0.0,-3.9077,-3.8349,-3.7946,-3.79,-3.79,-3.79,-3.79,-3.79,-3.79,-3.79,-3.79,-3.7861,-3.7756,-3.7233,-3.7017,-3.7084,-3.6545,-3.647,-3.666,-3.5816,-3.5413,-3.5183,-3.4066,-3.3556,-3.3356,-3.3154,-3.2438,-3.1581,-3.1448,-3.0215,0.0,0.0,0.0,-2.7309,-2.7309,-2.7309,-2.732,-2.7334,-2.7367,-2.7322,-2.6773,-2.5608,-2.4181,-2.2877,-2.2101,-2.1979,0.0,-2.4974,-2.6527,0.0,0.0,0.0,0.0,0.0,0.0,0.0,0.0,0.0,0.0,0.0,0.0,0.0,0.0,0.0,0.0,0.0,0.0,-2.9994,-2.9994,-2.9994,-2.9994,-2.9994,-2.9549,-2.8618,-2.8618,-2.8162,-2.7309,-2.7309,-2.7309,-2.7309,-2.7309,-2.7309,-2.7309,-2.7309,-2.7309,-2.7309,-2.7309,-2.7309,-2.7309,-2.7309,-2.7309,-2.7309,-2.7309,-2.7309,-2.7309,0.0,0.0,0.0,0.0,0.0,0.0,0.0,0.0,0.0,0.0,0.0,-4.2092,0.0,0.0,0.0,-4.2688,0.0,0.0,0.0,0.0,0.0,-3.9197,-3.8349,-3.79,-3.79,-3.79,-3.79,-3.79,-3.79,-3.79,-3.79,-3.79,-3.79,-3.79,-3.7625,-3.7393,-3.7183,-3.7041,-3.7167,-3.7347,-3.6642,-3.6306,-3.6055,-3.4869,-3.4079,-3.3513,-3.3197,-3.281,-3.2351,-3.1801,-3.1036,-3.0125,-2.9037,0.0,0.0,0.0,-2.7309,-2.7423,-2.7883,-2.7691,-2.7373,-2.7646,-2.6273,-2.4569,-2.3584,-2.249,-2.1767,-2.193,-2.3368,-2.4744,0.0,0.0,0.0,0.0,0.0,0.0,0.0,0.0,0.0,0.0,0.0,0.0,0.0,0.0,0.0,0.0,0.0,-2.9994,-2.9994,-2.9994,-2.9994,-2.9994,-2.9994,-2.9549,-2.8618,-2.8618,-2.8162,-2.7309,-2.7309,-2.7309,-2.7309,-2.7309,-2.7309,-2.7309,-2.7309,-2.7309,-2.7309,-2.7309,-2.7309,-2.7309,-2.7309,-2.7309,-2.7309,-2.7309,-2.7309,-2.7309,0.0,0.0,0.0,0.0,0.0,0.0,0.0,0.0,0.0,0.0,0.0,0.0,0.0,0.0,0.0,0.0,-4.2875,0.0,0.0,0.0,0.0,-3.9549,-3.8485,-3.79,-3.79,-3.79,-3.79,-3.79,-3.79,-3.79,-3.79,-3.79,-3.79,-3.79,-3.79,-3.7819,-3.7687,-3.7881,-3.8158,-3.84,-3.7707,-3.7384,-3.7063,-3.5588,-3.4673,-3.4172,-3.3528,-3.337,-3.3383,-3.2465,-3.2007,-3.1526,-2.9943,-2.9084,0.0,0.0,0.0,-2.7506,-2.8369,-2.8146,-2.7792,-2.8427,-2.6933,-2.5177,-2.4569,-2.3095,-2.1774,0.0,-2.2044,0.0,0.0,0.0,0.0,0.0,0.0,0.0,0.0,0.0,0.0,0.0,0.0,0.0,0.0,0.0,0.0,0.0,0.0,-2.9994,-2.9994,-2.9994,-2.9994,-2.9994,-2.9994,-2.9549,-2.8618,-2.839,-2.7935,-2.7309,-2.7309,-2.7309,-2.7309,-2.7309,-2.7309,-2.7309,-2.7309,-2.7309,-2.7309,-2.7309,-2.7309,-2.7309,-2.7309,-2.7309,-2.7309,-2.7309,-2.7309,-2.7309,0.0,0.0,0.0,0.0,0.0,0.0,0.0,0.0,0.0,0.0,0.0,0.0,-4.2092,-4.2284,-4.2459,-4.2688,-4.2875,-4.3076,-4.321,-4.1532,0.0,-4.0504,-3.8832,0.0,-3.79,-3.79,-3.79,-3.79,-3.79,-3.79,-3.79,-3.79,-3.79,-3.79,-3.79,-3.8497,-3.9466,-3.948,-3.9811,-4.0196,-3.9341,-3.8634,-3.791,-3.5789,-3.5284,-3.5524,-3.4303,-3.4198,-3.4505,-3.3991,-3.3145,-3.225,-3.1636,-3.017,-2.8678,0.0,0.0,0.0,-2.8369,-2.8568,-2.8472,-2.8341,-2.6933,-2.5434,-2.488,-2.2942,-2.1375,-2.1945,-2.166,0.0,0.0,0.0,0.0,0.0,0.0,0.0,0.0,0.0,0.0,0.0,0.0,0.0,0.0,0.0,0.0,0.0,0.0,-2.9994,-2.9994,-2.9994,-2.9994,-2.9994,-2.9994,-2.9549,-2.8618,-2.7759,-2.7351,-2.7309,-2.7309,-2.7309,-2.7309,-2.7309,-2.7309,-2.7309,-2.7309,-2.7309,-2.7309,-2.7309,-2.7309,-2.7309,-2.7309,-2.7309,-2.7309,-2.7309,-2.7309,-2.7309,0.0,0.0,0.0,0.0,0.0,0.0,0.0,0.0,0.0,0.0,0.0,0.0,0.0,-4.2742,-4.2707,-4.2544,-4.2795,-4.3076,-4.329,-4.163,0.0,-4.0603,-3.8877,-3.79,-3.79,-3.79,-3.79,-3.79,-3.79,-3.79,-3.79,-3.79,-3.79,-3.79,-3.79,-3.8456,-3.9337,-3.955,-4.0055,-4.0769,-4.0628,-4.0112,-3.93,-3.8288,-3.7277,-3.6319,-3.5583,-3.5048,-3.4688,-3.45,-3.4187,-3.3658,-3.2499,-3.1644,-3.0755,-2.9172,-2.8034,-2.7444,-2.8007,-2.839,-2.8662,-2.8869,-2.8259,-2.7194,-2.5663,-2.4236,-2.2862,-2.1767,-2.1375,0.0,0.0,0.0,0.0,0.0,0.0,0.0,0.0,0.0,0.0,0.0,0.0,0.0,0.0,0.0,0.0,0.0,0.0,0.0,-2.9994,-2.9994,-2.9994,-2.9994,-2.9994,-2.9549,-2.8618,-2.7717,-2.7309,-2.7309,-2.7309,-2.7309,-2.7309,-2.7309,-2.7309,-2.7309,-2.7309,-2.7309,-2.7309,-2.7309,-2.7309,-2.7309,-2.7309,-2.7309,-2.7309,-2.7309,-2.7309,-2.7309,0.0,0.0,0.0,0.0,0.0,0.0,0.0,0.0,-4.317,-4.3257,0.0,0.0,0.0,0.0,-4.2829,-4.245,-4.2769,-4.2915,-4.2754,-4.1421,-4.0461,-4.0159,-3.8697,-3.79,-3.79,-3.79,-3.79,-3.79,-3.79,-3.79,-3.79,-3.79,-3.79,-3.79,-3.79,-3.8395,-3.9227,-3.9728,-4.0346,-4.1044,-4.1516,-4.1205,-4.031,-3.941,-3.8367,-3.7276,-3.6257,-3.5621,-3.524,-3.5064,-3.4956,-3.4765,-3.3568,-3.2798,-3.1936,-2.9637,-2.8387,-2.7773,-2.7897,-2.8266,-2.8671,-2.9095,-2.879,-2.8072,-2.6816,-2.5498,-2.4125,-2.2587,-2.1979,0.0,0.0,0.0,0.0,0.0,0.0,0.0,0.0,0.0,0.0,0.0,0.0,0.0,0.0,0.0,0.0,0.0,0.0,0.0,-2.9994,-2.9994,-2.9994,-2.9994,-2.9694,-2.9239,-2.8618,-2.7717,-2.7309,-2.7309,-2.7309,-2.7309,-2.7309,-2.7309,-2.7309,-2.7309,-2.7309,-2.7309,-2.7309,-2.7309,-2.7309,-2.7309,-2.7309,-2.7309,-2.7309,-2.7309,-2.7309,-2.7309,0.0,0.0,0.0,0.0,0.0,0.0,0.0,0.0,-4.2381,-4.2582,0.0,0.0,0.0,0.0,0.0,-4.248,-4.2799,-4.2648,-4.1785,-4.1,-4.0159,-3.9285,0.0,0.0,-3.79,-3.79,-3.79,-3.79,-3.79,-3.79,-3.79,-3.79,-3.79,-3.79,-3.79,-3.8349,-3.9197,-4.0202,-4.0772,-4.1116,-4.206,-4.1936,-4.0932,-3.8995,-3.8406,-3.8342,-3.6353,-3.5952,-3.6329,-3.5696,-3.552,-3.542,-3.4868,-3.3683,-3.2077,-3.0144,-2.9211,-2.8611,0.0,0.0,0.0,-2.885,-2.8361,-2.7965,-2.8228,0.0,-2.5122,-2.445,0.0,0.0,0.0,0.0,0.0,0.0,0.0,0.0,0.0,0.0,0.0,0.0,0.0,0.0,0.0,0.0,0.0,0.0,0.0,-2.9994,-2.9994,-2.9994,-2.9994,-2.9994,-2.9094,-2.8618,-2.8618,-2.7717,-2.7309,-2.7309,-2.7309,-2.7309,-2.7309,-2.7309,-2.7309,-2.7309,-2.7309,-2.7309,-2.7309,-2.7309,-2.7309,-2.7309,-2.7309,-2.7309,-2.7309,-2.7309,-2.7309,-2.7309,0.0,0.0,0.0,0.0,0.0,-4.2111,-4.2634,-4.2727,-4.2762,0.0,0.0,0.0,-4.3401,-4.3617,-4.3542,-4.3096,-4.3163,-4.2984,-4.2474,-4.1141,-4.0287,-4.0027,-3.8666,-3.79,-3.79,-3.79,-3.79,-3.79,-3.79,-3.79,-3.79,-3.79,-3.79,-3.79,-3.79,-3.8024,-3.8349,-3.9927,-4.1013,-4.1811,-4.2688,-4.2837,-4.2382,-4.1697,-4.0519,-3.9144,-3.8421,-3.7436,-3.638,-3.6194,-3.6132,-3.6044,-3.5445,-3.4262,-3.2959,-3.2404,-3.083,-2.9336,-2.9516,0.0,0.0,0.0,0.0,0.0,0.0,0.0,-2.6752,-2.548,0.0,0.0,0.0,0.0,0.0,0.0,0.0,0.0,0.0,0.0,0.0,0.0,0.0,0.0,0.0,0.0,0.0,0.0,-2.9501,-2.9711,-2.9711,-2.9879,-2.9994,-2.9994,-2.9094,-2.8618,-2.8618,-2.7717,-2.7309,-2.7309,-2.7309,-2.7309,-2.7309,-2.7309,-2.7309,-2.7309,-2.7309,-2.7309,-2.7309,-2.7309,-2.7309,-2.7309,-2.7309,-2.7309,-2.7309,-2.7309,-2.7309,-2.7309,0.0,0.0,0.0,0.0,0.0,-4.2149,-4.2528,-4.2465,-4.2414,0.0,0.0,0.0,-4.3545,-4.4052,-4.4037,-4.3248,-4.3259,-4.2758,-4.1493,-4.0617,-3.9853,-3.9162,-3.8226,-3.7808,-3.79,-3.79,-3.79,-3.79,-3.79,-3.79,-3.79,-3.79,-3.79,-3.79,-3.79,-3.79,-3.7992,-3.9401,-4.0332,-4.0944,-4.2237,-4.236,-4.174,-4.2017,-4.0717,-3.8783,-3.8675,-3.7658,-3.6405,-3.6405,-3.6405,-3.6355,-3.5994,-3.5108,-3.4142,-3.3758,-3.243,-3.0965,-3.0337,-2.9893,-2.9542,-2.933,0.0,0.0,-2.889,-2.8615,-2.8169,0.0,0.0,0.0,0.0,0.0,0.0,0.0,0.0,0.0,0.0,0.0,0.0,0.0,0.0,0.0,0.0,0.0,0.0,-2.893,-2.9237,-2.9448,-2.9606,-2.9827,-2.9994,-2.9994,-2.9094,-2.8618,-2.8618,-2.7717,-2.7309,-2.7309,-2.7309,-2.7309,-2.7309,-2.7309,-2.7309,-2.7309,-2.7309,-2.7309,-2.7309,-2.7309,-2.7309,-2.7309,-2.7309,-2.7309,-2.7309,-2.7309,-2.7309,-2.7309,0.0,0.0,-4.2851,-4.3399,-4.2992,-4.2584,-4.2584,-4.2093,-4.1787,0.0,-4.1978,-4.2423,-4.3459,-4.4326,-4.4429,-4.3297,-4.3321,-4.238,-3.9961,-3.9823,-3.9179,-3.7631,-3.7551,-3.7611,-3.7854,-3.79,-3.79,-3.79,-3.79,-3.79,-3.79,-3.79,-3.79,-3.79,-3.79,-3.79,-3.7946,-3.8715,-3.9046,-3.921,-4.1071,-4.1029,-3.9986,-4.0802,-3.9724,-3.7808,-3.7808,-3.7176,-3.6405,-3.6405,-3.6405,0.0,-3.6405,-3.6031,-3.5444,-3.4599,-3.3881,-3.3005,-3.1176,-3.0904,-3.0815,-2.9802,-2.9891,0.0,-3.0047,-2.9827,-2.9333,0.0,0.0,0.0,0.0,0.0,0.0,0.0,0.0,0.0,0.0,0.0,0.0,0.0,0.0,0.0,0.0,-2.8514,-2.8674,-2.8674,-2.893,-2.9237,-2.9606,-2.9827,-2.9994,-2.9994,-2.9094,-2.8618,-2.8618,-2.7717,-2.7309,-2.7309,-2.7309,-2.7309,-2.7309,-2.7309,-2.7309,-2.7309,-2.7309,-2.7309,-2.7309,-2.7309,-2.7309,-2.7309,-2.7309,-2.7309,-2.7309,-2.7309,-2.7309,-2.7309,0.0,-4.3399,-4.3357,-4.3469,-4.2992,-4.2584,-4.2584,-4.2472,-4.2249,-4.1729,-4.1877,-4.2336,-4.3269,-4.4135,-4.463,-4.4545,-4.4124,-4.3113,-4.1345,-4.026,-3.9162,-3.8122,-3.7677,-3.7505,-3.7564,-3.7808,-3.79,-3.79,-3.79,-3.79,-3.79,-3.79,-3.79,-3.79,-3.79,-3.79,-3.79,-3.807,-3.8148,-3.8272,-3.9885,-4.0304,-3.9899,-3.9871,-3.9006,-3.7808,-3.7808,-3.7176,-3.6405,-3.6405,-3.6405,-3.6405,0.0,0.0,0.0,-3.5993,0.0,0.0,0.0,0.0,0.0,0.0,0.0,0.0,-3.0193,-2.9942,-2.9879,0.0,0.0,0.0,0.0,0.0,0.0,0.0,0.0,0.0,0.0,0.0,0.0,0.0,0.0,0.0,0.0,-2.8354,-2.8398,-2.8398,-2.8814,-2.9237,-2.9606,-2.9827,-2.9994,-2.9994,-2.9094,-2.8618,-2.8618,-2.7717,-2.7309,-2.7309,-2.7309,-2.7309,-2.7309,-2.7309,-2.7309,-2.7309,-2.7309,-2.7309,-2.7309,-2.7309,-2.7309,-2.7309,-2.7309,-2.7309,-2.7309,-2.7309,-2.7309,-2.7309,-4.3764,-4.3708,-4.3497,-4.3497,-4.2992,-4.2584,-4.2584,-4.2584,-4.2458,-4.2135,-4.2582,-4.3057,-4.3503,-4.401,-4.4191,-4.3987,-4.3299,-4.2123,-4.0219,-3.9473,-3.8614,-3.7513,-3.7248,-3.7155,-3.7307,-3.7551,-3.7703,-3.7703,-3.7854,-3.79,-3.79,-3.79,-3.79,-3.79,-3.79,-3.79,-3.79,-3.79,-3.7808,-3.7828,-3.9046,-3.9121,-3.8599,-3.9258,-3.8514,-3.7176,-3.7625,-3.7176,-3.6405,-3.6405,-3.6405,0.0,-3.6405,-3.6405,-3.6405,0.0,-3.5861,-3.5167,0.0,0.0,0.0,-3.2632,0.0,0.0,0.0,-3.0785,-3.064,-3.0099,-2.9669,-2.929,-2.9132,0.0,0.0,0.0,0.0,0.0,0.0,0.0,0.0,0.0,0.0,0.0,0.0,-2.8291,-2.8291,-2.8291,-2.8664,-2.9036,-2.9343,-2.9669,-2.9879,-2.9994,-2.9094,-2.8618,-2.8618,-2.7717,-2.7309,-2.7309,-2.7309,-2.7309,-2.7309,-2.7309,-2.7309,-2.7309,-2.7177,-2.7081,-2.7081,-2.6976,-2.688,-2.6928,-2.7214,-2.7309,-2.7309,-2.7309,-2.7214,-2.7081,-4.4172,-4.4017,-4.3666,-4.3666,-4.3259,-4.2935,-4.2935,-4.2935,-4.2879,-4.2781,-4.3243,-4.3556,-4.3505,-4.3585,-4.3443,-4.2948,-4.2064,-4.0824,-3.9037,-3.8637,-3.7971,-3.6839,-3.6725,-3.6815,-3.7015,-3.7307,-3.7459,-3.7505,-3.7703,-3.7854,-3.79,-3.79,-3.79,-3.79,-3.79,-3.79,-3.79,-3.79,-3.7762,-3.7551,-3.8291,-3.7959,-3.7142,-3.8424,-3.7848,-3.6499,-3.7268,-3.7036,-3.6405,-3.6405,-3.6405,-3.6405,-3.6405,-3.6405,0.0,0.0,0.0,0.0,0.0,0.0,0.0,0.0,0.0,-3.325,0.0,0.0,0.0,-3.0495,-2.9921,-2.9501,-2.9237,0.0,0.0,0.0,0.0,0.0,0.0,0.0,0.0,0.0,0.0,0.0,0.0,-2.8291,-2.8291,-2.8291,-2.8568,-2.8834,-2.9079,-2.9396,-2.9722,-2.9994,-2.9094,-2.8618,-2.8618,-2.7717,-2.7309,-2.7309,-2.7309,-2.7309,-2.7309,-2.7309,-2.7262,-2.7214,-2.6986,-2.6853,-2.6805,-2.6602,-2.6496,-2.6544,-2.7023,-2.7214,-2.7167,-2.7214,-2.7034,-2.6805,-4.4172,-4.4355,-4.4312,-4.4312,-4.4242,-4.4214,-4.4214,-4.4214,-4.4003,-4.3469,-4.3023,-4.267,-4.2425,-4.2395,-4.2425,-4.2457,-4.141,-4.0602,-4.0245,-3.8749,-3.7645,-3.7169,-3.6846,-3.6709,-3.6722,-3.7015,-3.7261,-3.7505,-3.7505,-3.7657,-3.79,-3.79,-3.79,-3.79,-3.79,-3.79,-3.79,-3.79,-3.7762,-3.7505,-3.7341,-3.7095,0.0,-3.6756,-3.6628,-3.6405,-3.6499,-3.6499,-3.6405,0.0,-3.6405,-3.6405,0.0,-3.6405,-3.6405,-3.6405,0.0,0.0,0.0,0.0,0.0,0.0,-3.4629,0.0,0.0,0.0,-3.1586,-3.1432,0.0,-2.9606,-2.9554,0.0,0.0,0.0,0.0,0.0,0.0,0.0,0.0,0.0,0.0,0.0,0.0,0.0,-2.8291,-2.8291,-2.8568,-2.8834,-2.9079,-2.9396,-2.9722,-2.9994,-2.9094,-2.8618,-2.8618,-2.7717,-2.7309,-2.7309,-2.7309,-2.7309,-2.7309,-2.7309,-2.7177,-2.6948,-2.69,-2.6757,-2.6544,-2.6496,-2.6496,-2.6544,-2.6853,-2.6794,-2.664,-2.6842,-2.6805,-2.6554,-4.4172,-4.4411,-4.4411,-4.4411,-4.4411,-4.4411,-4.4411,-4.4411,-4.4064,-4.3208,-4.3408,-4.3138,-4.1793,-4.1758,-4.1706,-4.1267,-4.0378,-3.9746,-3.9533,-3.85,-3.7696,-3.7235,-3.6742,-3.6534,-3.6534,-3.6769,-3.6909,-3.7062,-3.7201,-3.7413,-3.7657,-3.7657,-3.7749,-3.79,-3.79,-3.79,-3.79,-3.7749,-3.7505,-3.7261,0.0,-3.6722,0.0,-3.6452,-3.6405,-3.6405,-3.6405,-3.6405,-3.6405,0.0,-3.6405,0.0,0.0,0.0,0.0,0.0,0.0,0.0,0.0,0.0,0.0,0.0,0.0,0.0,-3.4385,0.0,-3.3277,0.0,0.0,0.0,0.0,0.0,0.0,0.0,-2.8386,0.0,0.0,0.0,0.0,0.0,0.0,0.0,0.0,0.0,0.0,0.0,0.0,-2.8568,-2.8824,-2.9132,-2.9448,-2.9774,-2.8992,-2.8618,-2.8618,-2.7717,-2.7309,-2.7309,-2.7309,-2.7309,-2.7309,-2.7129,-2.6996,-2.69,-2.6544,-2.6342,-2.6255,-2.611,-2.6024,-2.6072,-2.6352,-2.6448,-2.6496,-2.6651,-2.6496,-2.6245,-4.3919,-4.4298,-4.4411,-4.4411,-4.4411,-4.4411,-4.4411,-4.4162,-4.3695,-4.2889,-4.3204,-4.2819,-4.0969,-4.0956,-4.0705,-3.9917,-3.9251,-3.8809,-3.878,-3.8229,-3.7665,-3.7211,-3.6845,-3.6568,-3.6405,-3.6534,-3.6628,-3.6709,-3.6909,-3.7168,-3.7505,-3.7505,-3.7598,-3.7808,-3.7808,-3.7749,-3.7657,-3.7459,-3.7261,-3.6956,-3.6769,-3.6581,-3.6405,-3.6405,-3.6405,-3.6405,-3.6405,-3.6405,-3.6405,-3.6405,-3.6405,0.0,-3.6405,0.0,0.0,0.0,0.0,0.0,-3.6405,0.0,0.0,0.0,0.0,0.0,0.0,0.0,0.0,0.0,0.0,0.0,0.0,0.0,-3.0441,0.0,0.0,0.0,0.0,0.0,0.0,0.0,0.0,0.0,0.0,0.0,0.0,0.0,0.0,0.0,-2.8684,-2.8877,-2.9185,-2.9606,-2.889,-2.8518,-2.8507,-2.762,-2.7167,-2.7071,-2.7071,-2.7071,-2.7071,-2.689,-2.6747,-2.6651,-2.6245,-2.6052,-2.5955,-2.5781,-2.5693,-2.5742,-2.5917,-2.611,-2.6304,-2.6352,-2.6197,-2.6004,-4.3273,-4.4003,-4.4411,-4.4411,-4.4411,-4.4411,-4.4411,-4.3505,-4.284,-4.2792,-4.1914,-4.0869,-3.9751,-3.9661,-3.9351,-3.8514,-3.7986,-3.7876,-3.8362,-3.7929,-3.7481,-3.7211,-3.7161,-3.6958,-3.6417,-3.6405,-3.6499,-3.6709,-3.6709,-3.6968,-3.7505,-3.7505,-3.7505,-3.7505,-3.7505,-3.7366,-3.7108,-3.7108,-3.6968,-3.6709,-3.6709,-3.6581,-3.6405,0.0,-3.6405,-3.6405,-3.6405,0.0,0.0,-3.6405,-3.6405,0.0,0.0,0.0,0.0,0.0,0.0,0.0,0.0,0.0,0.0,-3.6405,0.0,0.0,0.0,0.0,-3.4775,0.0,0.0,0.0,0.0,-3.2095,-3.0922,0.0,0.0,0.0,0.0,0.0,0.0,0.0,0.0,0.0,0.0,0.0,0.0,0.0,0.0,0.0,-2.8684,-2.8727,-2.8993,-2.9606,-2.8697,-2.8217,-2.8186,-2.7329,-2.6805,-2.6544,-2.6544,-2.6544,-2.6544,-2.6496,-2.6342,-2.61,-2.61,-2.5965,-2.5684,-2.5693,-2.5693,-2.5693,-2.5684,-2.5742,-2.5781,-2.6014,-2.5965,-2.5684,-4.2725,-4.3385,-4.3933,-4.434,-4.4411,-4.4162,-4.3444,-4.3047,-4.2293,-4.0843,-4.0956,-4.0516,-3.8752,-3.9144,-3.926,-3.8461,-3.8238,-3.8402,-3.8972,-3.8463,-3.8004,-3.7751,-3.7374,-3.6923,0.0,0.0,0.0,-3.6499,-3.6499,-3.6675,-3.6968,-3.6968,-3.7062,-3.7261,-3.7261,-3.7168,-3.7108,-3.6909,-3.6769,0.0,0.0,-3.6452,-3.6405,0.0,0.0,-3.6405,-3.6405,-3.6405,0.0,-3.6405,-3.6405,-3.6405,-3.6405,-3.6405,-3.6405,-3.6405,-3.6405,0.0,0.0,0.0,-3.6405,-3.6405,0.0,0.0,0.0,0.0,0.0,0.0,0.0,0.0,0.0,0.0,0.0,0.0,0.0,0.0,0.0,0.0,0.0,0.0,0.0,0.0,0.0,0.0,0.0,0.0,0.0,0.0,0.0,-2.8621,-2.8781,-2.8993,-2.862,-2.8269,-2.7955,-2.7319,-2.6837,-2.6496,-2.6496,-2.6496,-2.6496,-2.6294,-2.6197,-2.61,-2.5917,-2.5781,-2.5693,-2.5693,-2.5693,-2.5693,-2.5693,-2.5693,-2.5684,-2.5781,-2.5781,-2.5693,-4.2416,-4.2893,-4.3441,-4.427,-4.4054,-4.36,-4.2889,-4.2146,-4.1143,-3.9802,-3.9853,-3.9558,-3.8133,-3.8647,-3.8792,-3.8303,-3.8356,-3.8546,-3.883,-3.8561,-3.8178,-3.7751,-3.7374,-3.6923,0.0,0.0,0.0,0.0,0.0,-3.6499,-3.6709,-3.6709,-3.6815,-3.6968,-3.6968,-3.6922,-3.6828,-3.6675,-3.6581,0.0,0.0,-3.6405,0.0,0.0,-3.6405,-3.6405,0.0,-3.6405,-3.6405,-3.6405,-3.6405,-3.6405,-3.6405,-3.6405,-3.6405,-3.6405,-3.6405,-3.6405,-3.6405,-3.6405,0.0,-3.6405,-3.6405,0.0,-3.6405,0.0,0.0,0.0,0.0,0.0,0.0,0.0,0.0,0.0,0.0,0.0,0.0,-2.8172,0.0,0.0,0.0,0.0,0.0,0.0,0.0,0.0,-2.8291,0.0,0.0,0.0,-2.8621,-2.8684,-2.8458,-2.8113,-2.7662,-2.7212,-2.6733,-2.6217,-2.6217,-2.6217,-2.6217,-2.6062,-2.5965,-2.5965,-2.5781,-2.5693,-2.5693,-2.5693,-2.5693,-2.5693,-2.5693,-2.5693,-2.5693,-2.5693,-2.5693,-2.5693,-4.2331,-4.2626,-4.3034,-4.4107,-4.3505,-4.2792,-4.2744,-4.0943,-3.9609,-3.9558,-3.8647,-3.7986,-3.7986,-3.7986,-3.7986,-3.7986,-3.825,-3.8294,-3.8052,-3.8234,0.0,0.0,-3.7199,-3.6923,-3.6417,0.0,0.0,0.0,0.0,-3.6499,-3.6675,-3.6675,-3.6675,-3.6675,-3.6675,-3.6581,-3.6405,-3.6405,-3.6405,-3.6405,-3.6405,-3.6405,-3.6405,-3.6405,-3.6405,-3.6405,-3.6405,-3.6405,-3.6405,-3.6405,-3.6405,-3.6405,-3.6405,-3.6405,-3.6405,-3.6405,-3.6405,-3.6405,-3.6405,-3.6405,-3.6405,-3.6405,0.0,0.0,0.0,0.0,-3.6405,0.0,0.0,0.0,0.0,0.0,0.0,0.0,0.0,0.0,0.0,0.0,0.0,0.0,0.0,0.0,0.0,0.0,-2.7894,-2.8262,-2.8291,-2.8291,0.0,0.0,-2.8408,-2.8674,-2.8269,-2.7833,-2.7429,-2.6953,-2.6389,-2.5713,-2.5713,-2.5713,-2.5693,-2.5693,-2.5693,-2.5693,-2.5693,-2.5693,-2.5693,-2.5693,-2.5693,-2.5693,-2.5693,-2.5693,-2.5693,-2.5693,-2.5693,-2.5693,-4.2331,-4.3315,-4.3785,-4.3293,-4.2985,-4.2536,-4.1703,-4.0465,-3.9299,-3.8542,-3.8185,-3.7986,-3.7986,-3.7986,-3.7986,-3.7986,-3.8092,-3.8243,0.0,0.0,0.0,-3.7777,-3.74,-3.6923,-3.6417,-3.6405,0.0,-3.6405,0.0,-3.6452,-3.6499,-3.6499,-3.6499,-3.6499,-3.6499,-3.6452,-3.6405,-3.6405,-3.6405,-3.6405,-3.6405,-3.6405,0.0,0.0,-3.6405,-3.6405,-3.6405,-3.6405,-3.6405,-3.6405,-3.6405,-3.6405,-3.6405,-3.6405,-3.6405,-3.6405,-3.6405,-3.6405,-3.6405,-3.6405,-3.6405,-3.6405,-3.6405,-3.6405,0.0,0.0,0.0,0.0,0.0,0.0,0.0,0.0,0.0,0.0,0.0,0.0,0.0,0.0,0.0,-2.7236,0.0,0.0,0.0,-2.7718,-2.7894,-2.8262,-2.8291,-2.8291,0.0,0.0,0.0,-2.8408,-2.83,-2.8025,-2.7656,-2.7486,-2.7055,-2.6221,-2.6221,-2.6055,-2.5693,-2.5693,-2.5693,-2.5693,-2.5693,-2.5693,-2.5693,-2.5693,-2.5693,-2.5693,-2.5693,-2.5693,-2.5693,-2.5693,-2.5693,-2.5693,-4.2388,-4.3568,-4.4054,-4.2999,-4.239,-4.1752,-4.0654,-3.9609,-3.8687,-3.808,-3.7986,-3.7986,-3.7986,-3.7986,-3.7986,-3.7986,-3.8092,0.0,-3.8631,0.0,0.0,-3.7842,-3.7201,-3.6732,-3.6417,-3.6405,0.0,-3.6405,0.0,-3.6405,-3.6405,-3.6405,-3.6405,-3.6405,-3.6405,-3.6405,-3.6405,-3.6405,-3.6405,-3.6405,-3.6405,0.0,0.0,-3.6405,-3.6405,-3.6405,-3.6405,-3.6405,-3.6405,-3.6405,-3.6405,-3.6405,-3.6405,-3.6405,-3.6405,-3.6405,-3.6405,-3.6405,-3.6405,-3.6405,-3.6405,-3.6405,-3.6405,-3.6405,-3.6405,-3.6405,-3.6405,0.0,0.0,0.0,0.0,0.0,0.0,0.0,0.0,0.0,0.0,0.0,0.0,0.0,-2.7305,0.0,0.0,-2.7559,-2.7894,-2.8262,-2.8291,0.0,0.0,0.0,0.0,-2.8291,-2.8291,-2.8096,-2.7718,-2.7718,-2.7324,-2.666,-2.6475,-2.626,-2.6016,-2.5771,-2.5693,-2.5693,-2.5693,-2.5693,-2.5693,-2.5693,-2.5693,-2.5693,-2.5693,-2.5693,-2.5693,-2.5693,-2.5693,-2.5693,-4.2556,-4.3624,-4.4007,-4.2792,-4.1815,-4.0768,-3.9609,-3.8594,-3.7986,-3.7986,0.0,-3.7986,-3.7986,-3.7986,-3.7986,-3.7986,-3.8198,-3.8356,-3.8409,-3.7894,-3.7617,-3.7593,-3.6843,-3.6445,-3.6405,-3.6405,-3.6405,0.0,0.0,-3.6405,-3.6405,-3.6405,-3.6405,-3.6405,-3.6405,0.0,0.0,-3.6405,-3.6405,-3.6405,-3.6405,-3.6405,-3.6405,-3.6405,-3.6405,-3.6405,-3.6405,-3.6405,-3.6405,-3.6405,-3.6405,-3.6405,-3.6405,-3.6405,-3.6405,-3.6405,-3.6405,-3.6405,-3.6405,-3.6405,-3.6405,-3.6405,-3.6405,-3.6405,-3.6405,-3.6405,-3.6405,-3.6405,-3.6181,-3.6015,0.0,0.0,0.0,0.0,0.0,0.0,0.0,0.0,0.0,0.0,0.0,0.0,0.0,0.0,-2.7822,-2.8184,-2.8262,0.0,0.0,0.0,0.0,-2.8291,-2.8291,0.0,-2.7806,0.0,-2.7529,-2.71,-2.6728,-2.6523,-2.6455,-2.6016,-2.5771,-2.5771,-2.5713,-2.5693,-2.5693,-2.5693,-2.5693,-2.5693,-2.5693,-2.5693,-2.5693,-2.5693,-2.5693,-2.5693,-4.3104,-4.3919,-4.3757,-4.1815,-4.1319,-4.0516,-3.8594,-3.8133,-3.7986,-3.7986,-3.7986,-3.7986,-3.7986,-3.7986,-3.7986,-3.7986,-3.8039,0.0,0.0,0.0,0.0,-3.7618,-3.7022,-3.6655,-3.6417,-3.6405,-3.6405,0.0,0.0,0.0,-3.6405,-3.6405,-3.6405,-3.6405,-3.6405,0.0,-3.6405,-3.6405,0.0,-3.6405,-3.6405,-3.6405,-3.6405,-3.6405,-3.6405,-3.6405,-3.6405,-3.6405,-3.6405,-3.6405,-3.6405,-3.6405,-3.6405,-3.6405,-3.6405,-3.6405,-3.6405,-3.6405,-3.6405,-3.6405,-3.6405,-3.6405,-3.6405,-3.6405,-3.6405,-3.6405,-3.6405,-3.6405,-3.6358,-3.6181,-3.5764,0.0,0.0,0.0,0.0,0.0,0.0,0.0,0.0,0.0,0.0,0.0,0.0,0.0,0.0,0.0,0.0,0.0,0.0,0.0,0.0,0.0,-2.8291,0.0,0.0,0.0,-2.7969,-2.7559,-2.7532,-2.7256,-2.6894,-2.6465,-2.6279,-2.625,-2.5889,-2.5693,-2.5693,-2.5693,-2.5693,-2.5693,-2.5693,-2.5693,-2.5693,-2.5693,-2.5693,-2.5693,-4.3793,-4.4214,-4.3912,-4.2306,-4.1568,0.0,0.0,-3.8344,-3.7986,-3.7986,-3.7986,-3.7986,-3.7986,-3.7986,-3.7986,-3.7986,-3.7986,-3.8039,-3.8198,-3.7806,-3.7478,-3.7205,-3.6924,-3.6623,-3.6193,-3.6323,-3.6405,-3.6405,0.0,0.0,-3.6405,0.0,0.0,-3.6405,0.0,-3.6405,0.0,0.0,0.0,-3.6405,-3.6405,-3.6405,-3.6405,-3.6405,-3.6405,-3.6405,-3.6405,-3.6405,-3.6405,-3.6405,-3.6405,-3.6405,-3.6405,-3.6405,-3.6405,-3.6405,-3.6405,-3.6405,-3.6405,-3.6405,-3.6405,-3.6405,-3.6405,-3.6405,-3.6405,-3.6275,-3.6228,-3.6358,-3.6168,-3.5692,-3.4751,-3.2476,0.0,0.0,0.0,0.0,0.0,0.0,0.0,0.0,0.0,0.0,0.0,0.0,0.0,0.0,0.0,0.0,0.0,0.0,0.0,0.0,0.0,0.0,0.0,0.0,0.0,-2.7988,-2.7826,-2.7559,-2.7344,-2.6914,-2.6592,-2.6377,-2.6162,-2.5947,-2.5693,-2.5693,-2.5693,-2.5693,-2.5693,-2.5693,-2.5693,-2.5693,-2.5693,-2.5693,-4.4284,-4.4411,-4.4054,-4.2999,-4.19,-4.0818,-3.9751,-3.8699,-3.7986,-3.7986,-3.7986,-3.7986,-3.7986,-3.7986,-3.7986,-3.7986,-3.7986,-3.7986,-3.7986,-3.7811,-3.7445,-3.6852,-3.6875,-3.6601,-3.6028,-3.6275,-3.6405,0.0,0.0,0.0,0.0,0.0,0.0,0.0,0.0,0.0,0.0,0.0,-3.6405,-3.6405,-3.6405,-3.6263,-3.6061,-3.631,-3.6263,-3.6108,-3.631,-3.6405,-3.6405,-3.6405,-3.6405,-3.6405,-3.6405,-3.6405,-3.6405,-3.6405,-3.6405,-3.6405,-3.6405,-3.6405,-3.6405,-3.6405,-3.6405,-3.6405,-3.6405,-3.6193,-3.6051,-3.6275,-3.5692,-3.4702,-3.3178,-3.1246,0.0,0.0,0.0,0.0,0.0,0.0,0.0,0.0,0.0,0.0,0.0,0.0,0.0,0.0,0.0,0.0,0.0,0.0,0.0,0.0,0.0,-2.8291,-2.8291,0.0,-2.8291,0.0,-2.7959,-2.7855,-2.7783,-2.7353,-2.6973,-2.665,-2.6465,-2.6143,-2.5693,-2.5693,-2.5693,-2.5693,-2.5693,-2.5693,-2.5693,-2.5693,-2.5693,-2.5693,-4.4284,-4.4411,-4.4054,0.0,0.0,-4.0818,-3.9751,-3.8699,-3.7986,-3.7986,-3.7986,-3.7986,-3.7986,-3.7986,-3.7986,-3.7986,-3.7986,-3.7986,-3.7986,-3.7991,-3.7613,-3.6802,-3.7031,-3.6826,-3.604,-3.6275,-3.6405,0.0,0.0,0.0,0.0,0.0,0.0,0.0,0.0,0.0,0.0,-3.6405,-3.6405,-3.6405,-3.6405,-3.5823,-3.5078,-3.6013,-3.581,-3.5078,-3.6061,-3.6405,-3.6405,-3.6405,-3.6405,-3.6405,-3.6405,-3.6405,-3.6405,-3.6405,-3.6405,-3.6405,-3.6405,-3.6405,-3.6405,-3.6405,-3.6405,-3.6405,-3.6405,-3.6193,-3.6015,-3.6015,-3.4848,-3.3128,-3.0979,-3.0224,-2.9565,0.0,0.0,0.0,0.0,0.0,0.0,0.0,0.0,0.0,0.0,0.0,0.0,0.0,0.0,0.0,0.0,0.0,0.0,-2.8291,0.0,-2.8291,-2.8291,-2.8291,0.0,-2.8291,-2.8252,-2.8232,-2.8223,-2.7793,-2.764,-2.7552,-2.6728,-2.6143,-2.5693,-2.5693,-2.5693,-2.5693,-2.5693,-2.5693,-2.5693,-2.5693,-2.5693,-2.5693,0.0,0.0,0.0,0.0,0.0,0.0,0.0,-3.9661,-3.8739,-3.808,-3.7986,-3.7986,-3.7986,-3.7986,-3.7986,-3.7986,-3.7986,-3.7986,-3.7986,-3.7986,-3.7569,-3.6599,-3.6967,-3.6776,-3.5789,-3.6181,-3.6405,0.0,0.0,0.0,0.0,0.0,0.0,0.0,0.0,-3.6061,-3.5415,-3.5415,-3.5078,-3.4483,-3.4483,-3.4239,-3.3895,-3.4337,-3.419,-3.3895,-3.4337,-3.4483,-3.4483,-3.4483,-3.5319,-3.6405,-3.6405,-3.5966,-3.5415,-3.5415,-3.5415,-3.5319,-3.4629,-3.5427,-3.6108,-3.4775,-3.4981,-3.5271,-3.4629,-3.4141,-3.3883,-3.403,-3.2767,-3.1338,-3.0473,-2.9565,-2.8804,0.0,0.0,0.0,0.0,0.0,0.0,0.0,0.0,0.0,0.0,0.0,0.0,0.0,0.0,0.0,0.0,0.0,0.0,-2.8291,0.0,-2.8291,-2.8291,-2.8291,-2.8291,-2.8291,-2.8291,-2.8291,-2.8281,-2.8115,-2.791,-2.7669,-2.6758,-2.6289,-2.6113,-2.5801,-2.5693,-2.5693,-2.5693,-2.5693,-2.5693,-2.5693,-2.5693,-2.5693,-4.4411,0.0,-4.4411,0.0,-4.3505,-4.2452,-4.1369,-4.0313,-3.9196,-3.8133,-3.7986,-3.7986,-3.7986,-3.7986,-3.7986,-3.7986,-3.7986,-3.7986,-3.7986,-3.7986,-3.7577,-3.6675,-3.6901,0.0,-3.5879,-3.6125,-3.6323,-3.6405,-3.6405,0.0,0.0,0.0,0.0,0.0,-3.6061,-3.5523,-3.4787,-3.4483,-3.3895,-3.3201,-3.3201,-3.3001,-3.2739,-3.3101,-3.3001,-3.275,-3.3101,-3.3201,-3.3201,-3.3201,-3.419,-3.5511,-3.5823,-3.5415,-3.4775,-3.4775,-3.4581,-3.4141,-3.34,-3.4288,-3.5078,-3.3598,-3.3685,-3.4019,-3.3239,-3.2678,-3.2213,-3.1999,-3.0989,-3.0068,-2.9765,-2.8953,-2.8291,-2.8291,0.0,0.0,0.0,0.0,0.0,0.0,-2.8291,-2.8291,-2.8291,0.0,0.0,0.0,0.0,0.0,0.0,0.0,0.0,0.0,0.0,0.0,0.0,-2.8291,-2.8291,-2.8291,-2.8291,-2.8291,-2.8291,-2.8291,-2.8066,-2.7689,-2.7031,-2.6621,-2.6367,-2.6055,-2.5801,-2.5693,-2.5693,-2.5693,-2.5693,-2.5693,-2.5693,-2.5693,-4.4411,-4.4411,-4.4411,-4.4411,-4.3505,-4.2452,-4.1369,-4.0313,-3.9196,-3.8133,-3.7986,-3.7986,-3.7986,-3.7986,-3.7986,-3.7986,-3.7986,-3.7986,-3.7986,-3.7986,-3.7745,0.0,0.0,-3.6673,-3.6383,-3.6144,-3.6146,-3.6405,0.0,0.0,-3.6405,0.0,-3.6405,-3.6358,-3.5271,-3.4824,-3.4727,-3.3648,-3.3201,-3.3201,-3.3201,-3.2549,-3.1728,-3.2801,-3.2538,-3.1779,-3.2801,-3.3201,-3.3201,-3.3201,-3.3201,-3.34,-3.4483,-3.4824,-3.4775,-3.4775,-3.4042,-3.3201,-3.3201,-3.3201,-3.325,-3.3201,-3.3028,-3.2817,-3.2817,-3.2364,-3.1615,-3.0235,-2.9922,-2.9565,-2.8495,-2.8291,-2.8291,-2.8291,0.0,0.0,0.0,0.0,0.0,0.0,-2.8291,-2.8291,-2.8291,0.0,0.0,0.0,0.0,0.0,0.0,0.0,0.0,-2.8291,-2.8291,0.0,-2.8291,-2.8291,-2.8291,-2.8291,-2.8291,-2.8291,-2.8291,-2.8291,-2.8066,-2.7718,-2.7708,-2.7229,-2.6387,-2.6387,-2.6133,-2.5693,-2.5693,-2.5693,-2.5693,-2.5693,-2.5693,-2.5693,-4.4411,-4.4411,-4.4411,-4.4411,-4.4115,-4.3553,-4.2452,-4.1356,-4.0313,-3.9248,-3.8437,-3.7986,-3.7986,-3.7986,-3.7986,0.0,-3.7986,-3.7986,0.0,-3.7986,-3.7745,-3.7216,-3.6943,-3.6573,-3.6136,-3.6048,-3.6063,-3.6146,0.0,0.0,0.0,-3.6405,-3.6405,-3.6358,-3.5271,-3.4385,-3.3648,-3.2538,-3.1699,-3.1002,-3.1002,-3.0795,-3.0536,-3.0899,-3.0795,-3.0536,-3.0899,-3.1002,-3.1002,-3.1002,-3.1494,-3.2185,-3.2527,-3.2627,-3.2627,-3.2627,-3.2387,-3.1942,-3.1197,-3.2106,-3.2851,-3.1403,-3.1392,-3.1524,-3.0815,-3.0151,-2.9586,-2.8963,-2.8804,-2.8698,-2.8344,-2.8291,-2.8291,-2.8291,-2.8291,0.0,0.0,0.0,0.0,0.0,-2.8291,-2.8291,0.0,-2.8291,0.0,0.0,0.0,0.0,0.0,0.0,0.0,0.0,-2.8291,0.0,-2.8291,-2.8291,-2.8291,-2.8291,-2.8291,-2.8291,-2.8291,-2.8291,-2.8223,-2.8076,-2.7845,-2.7562,-2.7268,-2.6631,-2.6309,-2.6152,-2.5801,-2.5693,-2.5693,-2.5693,-2.5693,-2.5693,-4.4411,-4.4411,-4.4411,-4.4411,-4.4411,-4.3899,-4.2404,-4.1617,-4.0667,-3.9196,-3.8449,-3.7986,-3.7986,-3.7986,0.0,-3.7986,-3.7986,-3.7986,-3.7986,-3.7986,-3.7829,-3.7505,-3.6949,-3.6557,-3.6329,0.0,0.0,-3.6015,-3.6275,-3.6405,-3.6405,-3.6405,-3.6405,-3.6358,-3.4884,-3.3845,-3.3101,-3.1648,-3.0588,-2.9994,-2.9994,-2.9994,-2.9994,-2.9994,-2.9994,-2.9994,-2.9994,-2.9994,-2.9994,-2.9994,-3.0443,-3.0981,-3.0981,-3.0981,-3.1084,-3.1483,-3.133,-3.0836,-3.0193,-3.1002,-3.1648,-3.0235,-3.012,-3.0151,-2.929,-2.8824,-2.8514,-2.8344,-2.8291,-2.8291,-2.8291,-2.8291,-2.8291,-2.8291,-2.8291,-2.8291,-2.8291,0.0,0.0,0.0,0.0,0.0,0.0,-2.8291,0.0,0.0,0.0,0.0,0.0,0.0,0.0,-2.8291,-2.8291,0.0,-2.8291,-2.8291,-2.8291,-2.8291,-2.8291,-2.8291,-2.8291,-2.8291,-2.8291,-2.8281,-2.8018,-2.7812,-2.7679,-2.709,-2.668,-2.6357,-2.6084,-2.5879,-2.5693,-2.5693,-2.5693,-2.5693,-4.4411,-4.4411,0.0,0.0,-4.4364,0.0,-4.1617,-4.1169,-4.0363,-3.8384,-3.8039,-3.7986,-3.7986,-3.7986,-3.7986,-3.7986,0.0,0.0,0.0,-3.7986,-3.7986,-3.7986,-3.6976,-3.6512,-3.6765,-3.6027,-3.5716,-3.6015,-3.6275,-3.6405,-3.6405,-3.6405,-3.6405,-3.631,-3.4141,-3.3201,-3.3051,-3.0899,-2.9994,-2.9994,-2.9994,-2.9994,-2.9994,-2.9994,-2.9994,-2.9994,-2.9994,-2.9994,-2.9994,-2.9994,-2.9994,-2.9994,-2.9994,-2.9994,-3.0193,-3.1187,-3.0785,-2.9994,-2.9994,-2.9994,-2.9889,-2.9606,-2.9343,-2.892,-2.8398,-2.8291,-2.8291,-2.8291,-2.8291,-2.8291,-2.8291,-2.8291,-2.8291,-2.8291,-2.8291,-2.8291,-2.8291,0.0,0.0,0.0,0.0,0.0,0.0,-2.8291,-2.8291,0.0,0.0,0.0,0.0,0.0,-2.8291,-2.8291,-2.8291,-2.8291,-2.8291,-2.8291,-2.8291,-2.8291,-2.8291,-2.8291,-2.8291,-2.8291,-2.8291,-2.8291,-2.8291,-2.8066,-2.7757,-2.7728,-2.7197,-2.6465,-2.6406,-2.6143,-2.5732,-2.5703,-2.5693,-2.5684,0.0,0.0,-4.4411,-4.4411,-4.3695,-4.2999,-4.2501,-4.1056,-3.9802,-3.9299,-3.8489,-3.7986,-3.7986,-3.7986,-3.7986,-3.7986,-3.7986,-3.7986,-3.7986,-3.7986,-3.7986,-3.7986,-3.6976,-3.6411,-3.6512,-3.5917,-3.5847,-3.6323,-3.6358,-3.6405,-3.6405,-3.6405,-3.6405,-3.631,-3.4141,-3.3201,-3.3051,-3.0899,-2.9994,-2.9994,-2.9994,-2.9994,-2.9994,-2.9994,-2.9994,-2.9994,-2.9994,-2.9994,-2.9994,-2.9994,-2.9994,-2.9994,-2.9994,-2.9994,-3.0047,-3.0287,-3.0193,-2.9942,-2.9774,-2.9711,-2.9617,-2.929,-2.8983,-2.8727,-2.8398,-2.8291,-2.8291,-2.8291,-2.8291,-2.8291,-2.8291,-2.8291,-2.8291,-2.8291,-2.8291,-2.8291,-2.8291,-2.8291,0.0,0.0,-2.8291,-2.8291,-2.8291,-2.8291,-2.8291,0.0,0.0,0.0,0.0,-2.8291,-2.8291,-2.8291,-2.8291,-2.8291,-2.8291,-2.8291,-2.8291,-2.8291,-2.8291,-2.8291,-2.8291,-2.8291,-2.8291,-2.8291,-2.8291,-2.8232,-2.8125,-2.7855,-2.7601,-2.7356,-2.6641,-2.6328,-2.6191,-2.581,-2.5693,-2.5586,-4.4355,-4.4411,-4.427,-4.3757,-4.3191,-4.2488,-4.1492,-4.0351,-3.9403,-3.8948,-3.8332,-3.7986,-3.7986,-3.7986,-3.7986,-3.7986,-3.7986,-3.7986,-3.7986,-3.7986,-3.7986,-3.7986,-3.7204,-3.6651,-3.6411,-3.6112,-3.6095,-3.6405,-3.6405,-3.6405,-3.6405,-3.6405,-3.6168,-3.5619,-3.3944,-3.2951,-3.2336,-3.0692,-2.9994,-2.9994,-2.9994,-2.9994,-2.9994,-2.9994,-2.9994,-2.9994,-2.9994,-2.9994,-2.9994,-2.9994,-2.9994,-2.9994,-2.9994,-2.9994,-2.9994,-2.9994,-2.9994,-2.9942,-2.9659,-2.9606,-2.9501,-2.9036,-2.8727,-2.8461,-2.8344,-2.8291,-2.8291,-2.8291,-2.8291,-2.8291,-2.8291,-2.8291,-2.8291,-2.8291,-2.8291,-2.8291,-2.8291,-2.8291,0.0,-2.8291,-2.8291,-2.8291,-2.8291,-2.8291,-2.8291,-2.8291,0.0,0.0,-2.8291,-2.8291,-2.8291,-2.8291,-2.8291,-2.8291,-2.8291,-2.8291,-2.8291,-2.8291,-2.8291,-2.8291,-2.8291,-2.8291,-2.8291,-2.8291,-2.8291,-2.8291,-2.8271,-2.8047,-2.7894,-2.7669,-2.7158,-2.6846,-2.6621,-2.6191,-2.6035,-2.5849,-4.4284,-4.4411,-4.4054,-4.2999,-4.2647,-4.19,-3.9905,-3.9454,-3.9052,-3.8133,-3.7986,-3.7986,-3.7986,-3.7986,-3.7986,-3.7986,-3.7986,-3.7986,-3.7986,-3.7986,-3.7986,-3.7986,-3.7481,-3.6952,-3.6411,-3.6319,-3.6318,-3.6405,-3.6405,-3.6405,-3.6405,-3.6203,-3.5667,-3.4727,-3.3499,-3.2437,-3.1524,-3.0443,-2.9994,-2.9994,-2.9994,-2.9994,-2.9994,-2.9994,-2.9994,-2.9994,-2.9994,-2.9994,-2.9994,-2.9994,-2.9994,-2.9994,-2.9994,-2.9994,-2.9994,-2.9942,-2.9942,-2.9879,-2.9606,-2.9448,-2.929,-2.8781,-2.8461,-2.8291,-2.8291,-2.8291,-2.8291,-2.8291,-2.8291,-2.8291,-2.8291,-2.8291,-2.8291,-2.8291,-2.8291,-2.8291,-2.8291,0.0,-2.8291,-2.8291,-2.8291,-2.8291,-2.8291,-2.8291,-2.8291,-2.8291,-2.8291,-2.8291,0.0,-2.8291,-2.8291,-2.8291,-2.8291,-2.8291,-2.8291,-2.8291,-2.8291,-2.8291,-2.8291,-2.8291,-2.8291,-2.8291,-2.8291,-2.8291,-2.8291,-2.8291,-2.8291,-2.8291,-2.8086,-2.7806,-2.7738,-2.7441,-2.706,-2.6641,-2.6345,-2.5969,-4.4284,-4.4411,-4.4054,-4.2999,-4.2048,-4.1019,-3.9802,-3.8844,-3.8185,-3.8027,-3.7986,-3.7986,-3.7986,-3.7986,-3.7986,-3.7986,-3.7986,-3.7986,-3.7986,-3.7986,-3.7986,-3.7986,-3.7481,-3.6952,-3.6411,-3.5954,-3.5934,-3.6405,-3.6405,-3.6405,-3.6358,-3.5475,-3.4981,-3.4727,-3.2728,-3.1779,-3.1524,-3.0443,-2.9994,-2.9994,-2.9994,-2.9994,-2.9994,-2.9994,-2.9994,-2.9994,-2.9994,-2.9994,-2.9994,-2.9994,-2.9994,-2.9994,-2.9994,-2.9994,-2.9942,-2.9722,-2.9659,-2.9606,-2.929,-2.8867,-2.8504,-2.8398,-2.8344,-2.8291,-2.8291,-2.8291,-2.8291,-2.8291,-2.8291,-2.8291,-2.8291,-2.8291,-2.8291,-2.8291,-2.8291,-2.8291,-2.8291,0.0,-2.8291,-2.8291,-2.8291,-2.8291,-2.8291,-2.8291,-2.8291,-2.8291,-2.8291,-2.8291,-2.8291,-2.8291,-2.8291,-2.8291,-2.8291,-2.8291,-2.8291,-2.8291,-2.8291,-2.8291,-2.8291,-2.8291,-2.8291,-2.8291,-2.8291,-2.8291,-2.8291,-2.8291,-2.8291,-2.8291,-2.8252,-2.8164,-2.7855,-2.7679,-2.7562,-2.708,-2.6123,-2.4882,-4.4228,-4.396,-4.3204,-4.211,-4.1056,-3.9956,-3.8896,-3.8344,-3.7986,-3.7986,-3.7986,-3.7986,-3.7986,-3.7986,-3.7986,-3.7986,-3.7986,-3.7986,-3.7986,-3.7986,-3.7986,-3.7986,-3.7745,-3.7292,-3.6626,-3.6259,-3.6096,-3.6193,-3.6323,-3.6108,-3.5523,-3.503,-3.4178,-3.3028,-3.2022,-3.1278,-3.0692,-3.0193,-2.9994,-2.9994,-2.9994,-2.9994,-2.9994,-2.9994,-2.9994,-2.9994,-2.9994,-2.9994,-2.9994,-2.9994,-2.9994,-2.9994,-2.9994,-2.9994,-2.9994,-2.9827,-2.9459,-2.9089,-2.894,-2.8611,-2.8291,-2.8291,-2.8291,-2.8291,-2.8291,-2.8291,-2.8291,-2.8291,-2.8291,-2.8291,-2.8291,-2.8291,-2.8291,-2.8291,-2.8291,0.0,0.0,-2.8291,-2.8291,-2.8291,-2.8291,-2.8291,-2.8291,-2.8291,-2.8291,-2.8291,-2.8291,-2.8291,-2.8291,-2.8291,-2.8291,-2.8291,-2.8291,-2.8291,-2.8291,-2.8291,-2.8291,-2.8291,-2.8291,-2.8291,-2.8291,-2.8291,-2.8291,-2.8291,-2.8291,-2.8291,-2.8291,-2.8291,-2.8291,-2.8271,-2.8086,-2.7617,-2.7028,-2.6559,-2.5589,-2.4228,-4.3682,-4.3252,-4.239,-4.1069,-4.016,-3.9248,-3.8185,-3.7986,-3.7986,-3.7986,-3.7986,-3.7986,-3.7986,-3.7986,-3.7986,-3.7986,-3.7986,-3.7986,-3.7986,-3.7986,-3.7986,-3.7986,-3.7866,-3.7517,-3.679,-3.6504,-3.621,-3.6015,-3.6181,-3.5775,-3.4775,-3.4532,-3.3426,-3.1575,-3.133,-3.0785,-2.9994,-2.9994,-2.9994,-2.9994,-2.9994,-2.9994,-2.9994,-2.9994,-2.9994,-2.9994,-2.9994,-2.9994,-2.9994,-2.9994,-2.9994,-2.9994,-2.9994,-2.9994,-2.9994,-2.9942,-2.9311,-2.8684,-2.8621,-2.8461,-2.8291,-2.8291,-2.8291,-2.8291,-2.8291,-2.8291,-2.8291,-2.8291,-2.8291,-2.8291,-2.8291,-2.8291,-2.8291,-2.8291,0.0,0.0,0.0,-2.8291,-2.8291,-2.8291,-2.8291,-2.8291,-2.8291,-2.8291,-2.8291,-2.8291,-2.8291,-2.8291,-2.8291,-2.8291,-2.8291,-2.8291,-2.8291,-2.8291,-2.8291,-2.8291,-2.8291,-2.8291,-2.8291,-2.8291,-2.8291,-2.8291,-2.8291,-2.8291,-2.8291,-2.8291,-2.8291,-2.8291,-2.8291,-2.8291,-2.8291,-2.7736,-2.6879,-2.6241,-2.5245,-2.3911,-4.2139,-4.246,-4.2146,-4.0109,-3.9648,-3.9248,-3.8185,-3.7986,-3.7986,-3.7986,-3.7986,-3.7986,-3.7986,-3.7986,-3.7986,-3.7986,-3.7986,-3.7986,-3.7986,-3.7986,-3.7986,-3.7986,-3.7517,-3.7091,-3.6828,-3.6293,-3.6015,-3.6015,-3.6015,-3.5608,-3.4787,-3.3796,-3.2689,-3.1575,-3.0536,-3.0088,-2.9994,-2.9994,-2.9994,-2.9994,-2.9994,-2.9994,-2.9994,-2.9994,-2.9994,-2.9994,-2.9994,-2.9994,-2.9994,-2.9994,-2.9994,-2.9994,-2.9994,-2.9994,-2.9942,-2.9722,-2.9195,-2.8631,-2.8408,-2.8291,-2.8291,-2.8291,-2.8291,-2.8291,-2.8291,-2.8291,-2.8291,-2.8291,-2.8291,-2.8291,-2.8291,-2.8291,-2.8291,-2.8291,0.0,0.0,-2.8291,-2.8291,-2.8291,-2.8291,-2.8291,-2.8291,-2.8291,-2.8291,-2.8291,-2.8291,-2.8291,-2.8291,-2.8291,-2.8291,-2.8291,-2.8291,-2.8291,-2.8291,-2.8291,-2.8291,-2.8291,-2.8291,-2.8291,-2.8291,-2.8291,-2.8291,-2.8291,-2.8291,-2.8291,-2.8291,-2.8291,-2.8291,-2.8291,-2.8291,-2.8291,-2.8237,-2.8014,-2.6879,-2.5522,-2.4116,-4.1835,-4.1293,-4.0553,-3.9751,-3.904,-3.8489,-3.8092,-3.7986,-3.7986,-3.7986,-3.7986,-3.7986,-3.7986,-3.7986,-3.7986,-3.7986,-3.7986,-3.7986,-3.7986,-3.7986,-3.7986,-3.7986,-3.7793,-3.7485,-3.7058,-3.6691,-3.6405,-3.627,-3.6081,-3.5259,-3.3796,-3.34,-3.2246,-3.0588,-3.0193,-2.9994,-2.9994,-2.9994,-2.9994,-2.9994,-2.9994,-2.9994,-2.9994,-2.9994,-2.9994,-2.9994,-2.9994,-2.9994,-2.9994,-2.9994,-2.9994,-2.9994,-2.9994,-2.9994,-2.9889,-2.9448,-2.9132,-2.8877,-2.8398,-2.8291,-2.8291,-2.8291,-2.8291,-2.8291,-2.8291,-2.8291,-2.8291,-2.8291,-2.8291,-2.8291,-2.8291,-2.8291,-2.8291,-2.8291,0.0,-2.8291,-2.8291,-2.8291,-2.8291,-2.8291,-2.8291,-2.8291,-2.8291,-2.8291,-2.8291,-2.8291,-2.8291,-2.8291,-2.8291,-2.8291,-2.8291,-2.8291,-2.8291,-2.8291,-2.8291,-2.8291,-2.8291,-2.8291,-2.8291,-2.8291,-2.8291,-2.8291,-2.8291,-2.8291,-2.8291,-2.8291,-2.8291,-2.8291,-2.8291,-2.8291,-2.8291,-2.7394,-2.6,-2.5562,-2.4097,-2.228,-4.1079,-4.0145,-3.9306,-3.9119,-3.8489,-3.7986,-3.7986,-3.7986,-3.7986,-3.7986,-3.7986,-3.7986,-3.7986,-3.7986,-3.7986,-3.7986,-3.7986,-3.7986,-3.7986,-3.7986,-3.7986,-3.7986,-3.7986,-3.7733,-3.7204,-3.6828,-3.656,-3.6419,-3.6036,-3.4957,-3.3201,-3.3201,-3.2055,-2.9994,-2.9994,-2.9994,-2.9994,-2.9994,-2.9994,-2.9994,-2.9994,-2.9994,-2.9994,-2.9994,-2.9994,-2.9994,-2.9994,-2.9994,-2.9994,-2.9994,-2.9994,-2.9994,-2.9994,-2.9994,-2.9889,-2.929,-2.9079,-2.8973,-2.8451,-2.8291,-2.8291,-2.8291,-2.8291,-2.8291,-2.8291,-2.8291,-2.8291,-2.8291,-2.8291,-2.8291,-2.8291,-2.8291,-2.8291,-2.8291,-2.8291,-2.8291,-2.8291,-2.8291,-2.8291,-2.8291,-2.8291,-2.8291,-2.8291,-2.8291,-2.8291,-2.8291,-2.8291,-2.8291,-2.8291,-2.8291,-2.8291,-2.8291,-2.8291,-2.8291,-2.8291,-2.8291,-2.8291,-2.8291,-2.8291,-2.8291,-2.8291,-2.8291,-2.8291,-2.8291,-2.8291,-2.8291,-2.8291,-2.8291,-2.8291,-2.8237,-2.7906,-2.6735,-2.5177,-2.4458,-2.3135,-2.1702,-3.9498,-3.9049,-3.8613,-3.8089,-3.7986,-3.7986,-3.7986,-3.7986,-3.7986,-3.7986,-3.7986,-3.7986,-3.7986,-3.7986,-3.7986,-3.7986,-3.7986,-3.7986,-3.7986,-3.7986,-3.7986,-3.7986,-3.7986,-3.7733,-3.7216,-3.6675,-3.641,-3.6432,-3.5891,-3.4775,-3.3201,-3.3201,-3.2055,-2.9994,-2.9994,-2.9994,-2.9994,-2.9994,-2.9994,-2.9994,-2.9994,-2.9994,-2.9994,-2.9994,-2.9994,-2.9994,-2.9994,-2.9994,-2.9994,-2.9994,-2.9994,-2.9994,-2.9994,-2.9994,-2.9889,-2.929,-2.9079,-2.8973,-2.8451,-2.8291,-2.8291,-2.8291,-2.8291,-2.8291,-2.8291,-2.8291,-2.8291,-2.8291,-2.8291,-2.8291,-2.8291,-2.8291,-2.8291,-2.8291,-2.8291,-2.8291,-2.8291,-2.8291,-2.8291,-2.8291,-2.8291,-2.8291,-2.8291,-2.8291,-2.8291,-2.8291,-2.8291,-2.8291,-2.8291,-2.8291,-2.8291,-2.8291,-2.8291,-2.8291,-2.8291,-2.8291,-2.8291,-2.8291,-2.8291,-2.8291,-2.8291,-2.8291,-2.8291,-2.8291,-2.8291,-2.8291,-2.8291,-2.8291,-2.8291,-2.8184,-2.6971,-2.6472,-2.6191,-2.3863,-2.2974,-2.2813,-3.8293,-3.7965,-3.7764,-3.7942,-3.7986,-3.7986,-3.7986,-3.7986,-3.7986,-3.7986,-3.7986,-3.7986,-3.7986,-3.7986,-3.7986,-3.7986,-3.7986,-3.7986,-3.7986,-3.7986,-3.7986,-3.7986,-3.7986,-3.7914,-3.7745,-3.7228,-3.6955,-3.6935,-3.6395,-3.5527,-3.4288,-3.3549,-3.2448,-3.1084,-3.0349,-2.9994,-2.9994,-2.9994,-2.9994,-2.9994,-2.9994,-2.9994,-2.9994,-2.9994,-2.9994,-2.9994,-2.9994,-2.9994,-2.9994,-2.9994,-2.9994,-2.9994,-2.9774,-2.9722,-2.9617,-2.8993,-2.8834,-2.8717,-2.8398,-2.8291,-2.8291,-2.8291,-2.8291,-2.8291,-2.8291,-2.8291,-2.8291,-2.8291,-2.8291,-2.8291,-2.8291,-2.8291,-2.8291,-2.8291,-2.8291,-2.8291,-2.8291,-2.8291,-2.8291,-2.8291,-2.8291,-2.8291,-2.8291,-2.8291,-2.8291,-2.8291,-2.8291,-2.8291,-2.8291,-2.8291,-2.8291,-2.8291,-2.8291,-2.8291,-2.8291,-2.8291,-2.8291,-2.8291,-2.8291,-2.8291,-2.8291,-2.8291,-2.8291,-2.8291,-2.8291,-2.7799,-2.7079,-2.796,-2.7799,-2.7025,-2.6636,-2.5963,-2.5067,-2.3528,-2.2482,-2.171,-3.7476,-3.7204,-3.7048,-3.7577,-3.7841,-3.7986,-3.7986,-3.7986,-3.7986,-3.7986,-3.7986,-3.7986,-3.7986,-3.7986,-3.7986,-3.7986,-3.7986,-3.7986,-3.7986,-3.7986,-3.7986,-3.7986,-3.7986,-3.7986,-3.7986,-3.7457,-3.7197,-3.718,-3.664,-3.5832,-3.4775,-3.4141,-3.3039,-3.1575,-3.094,-3.0391,-2.9994,-2.9994,-2.9994,-2.9994,-2.9994,-2.9994,-2.9994,-2.9994,-2.9994,-2.9994,-2.9994,-2.9994,-2.9994,-2.9879,-2.9774,-2.9617,-2.9606,-2.9501,-2.929,-2.8834,-2.8684,-2.8621,-2.8344,-2.8291,-2.8291,-2.8291,-2.8291,-2.8291,-2.8291,-2.8291,-2.8291,-2.8291,-2.8291,-2.8291,-2.8291,-2.8291,-2.8291,-2.8291,-2.8291,-2.8291,-2.8291,-2.8291,-2.8291,-2.8291,-2.8291,-2.8291,-2.8291,-2.8291,-2.8291,-2.8291,-2.8291,-2.8291,-2.8291,-2.8291,-2.8291,-2.8291,-2.8291,-2.8291,-2.8291,-2.8291,-2.8291,-2.8291,-2.8291,-2.8291,-2.8291,-2.8291,-2.8014,-2.7574,-2.7574,-2.6907,-2.5845,-2.6563,-2.6454,-2.5735,-2.5305,-2.4689,-2.3911,-2.27,-2.1816,-2.1211,-3.6843,-3.6627,-3.6519,-3.7096,-3.7589,-3.7926,-3.7974,-3.7986,-3.7986,-3.7986,-3.7986,-3.7986,-3.7986,-3.7986,-3.7986,-3.7986,-3.7986,-3.7986,-3.7986,-3.7986,-3.7986,-3.7986,-3.7986,-3.7986,-3.7986,-3.7505,-3.727,-3.7254,-3.6714,-3.5954,-3.4993,-3.4751,-3.3624,-3.1728,-3.1534,-3.0929,-2.9994,-2.9994,-2.9994,-2.9994,-2.9994,-2.9994,-2.9994,-2.9994,-2.9994,-2.9994,-2.9994,-2.9994,-2.9942,-2.9711,-2.9396,-2.9132,-2.9448,-2.929,-2.9036,-2.8727,-2.8674,-2.8621,-2.8354,-2.8291,-2.8291,-2.8291,-2.8291,-2.8291,-2.8291,-2.8291,-2.8291,-2.8291,-2.8291,-2.8291,-2.8291,-2.8291,-2.8291,-2.8291,-2.8291,-2.8291,-2.8291,-2.8291,-2.8291,-2.8291,-2.8291,-2.8291,-2.8291,-2.8291,-2.8291,-2.8291,-2.8291,-2.8291,-2.8291,-2.8291,-2.8291,-2.8291,-2.8291,-2.8291,-2.8291,-2.8291,-2.8291,-2.8291,-2.8291,-2.8237,-2.813,-2.813,-2.7466,-2.6354,-2.6354,-2.568,-2.4561,-2.4671,-2.4616,-2.445,-2.3416,-2.2974,-2.2869,-2.1653,-2.1211,-2.1211,-3.5793,-3.585,-3.6086,-3.7024,-3.7288,-3.7505,-3.7926,-3.7986,-3.7986,-3.7986,-3.7986,-3.7986,-3.7986,-3.7986,-3.7986,-3.7986,-3.7986,-3.7986,-3.7986,-3.7986,-3.7986,-3.7986,-3.7986,-3.7986,-3.7986,-3.7878,-3.7814,-3.7806,-3.7266,-3.6912,-3.6635,-3.4526,-3.33,-3.2801,-3.1094,-3.0193,-2.9994,-2.9994,-2.9994,-2.9994,-2.9994,-2.9994,-2.9994,-2.9994,-2.9994,-2.9994,-2.9994,-2.9994,-2.9942,-2.9711,-2.9396,-2.9079,-2.893,-2.8834,-2.8727,-2.8461,-2.8408,-2.8344,-2.8291,-2.8291,-2.8291,-2.8291,-2.8291,-2.8291,-2.8291,-2.8291,-2.8291,-2.8291,-2.8291,-2.8291,-2.8291,-2.8291,-2.8291,-2.8291,-2.8291,-2.8291,-2.8291,-2.8291,-2.8291,-2.8291,-2.8291,-2.8291,-2.8291,-2.8291,-2.8291,-2.8291,-2.8291,-2.8291,-2.8291,-2.8291,-2.8291,-2.8291,-2.8291,-2.8291,-2.8291,-2.8291,-2.8291,-2.8291,-2.8291,-2.7799,-2.6907,-2.6907,-2.6236,-2.5067,-2.5067,-2.4458,-2.3416,-2.4339,-2.4181,-2.3359,-2.3087,-2.2974,-2.2869,-2.1653,-2.1211,-2.1211,-3.5184,-3.5437,-3.5797,-3.6338,-3.6855,-3.7288,-3.7565,-3.7817,-3.7986,-3.7986,-3.7986,-3.7986,-3.7986,-3.7986,-3.7986,-3.7986,-3.7986,-3.7986,-3.7986,-3.7986,-3.7986,-3.7986,-3.7986,-3.7986,-3.7986,-3.7986,-3.7932,-3.7824,-3.7286,-3.6998,-3.6944,-3.4783,-3.3549,-3.3151,-3.1494,-3.0495,-2.9994,-2.9994,-2.9994,-2.9994,-2.9994,-2.9994,-2.9994,-2.9994,-2.9994,-2.9994,-2.9994,-2.9827,-2.9564,-2.9606,-2.9185,-2.8717,-2.8674,-2.8621,-2.8461,-2.8344,-2.8291,-2.8291,-2.8291,-2.8291,-2.8291,-2.8291,-2.8291,-2.8291,-2.8291,-2.8291,-2.8291,-2.8291,-2.8291,-2.8291,-2.8291,-2.8291,-2.8291,-2.8291,-2.8291,-2.8291,-2.8291,-2.8291,-2.8291,-2.8291,-2.8291,-2.8291,-2.8291,-2.8291,-2.8291,-2.8291,-2.8291,-2.8291,-2.8291,-2.8291,-2.8291,-2.8291,-2.8291,-2.8291,-2.8291,-2.8291,-2.8291,-2.8291,-2.8291,-2.7682,-2.6527,-2.6527,-2.5525,-2.3911,-2.3911,-2.3247,-2.2207,-2.2805,-2.2692,-2.215,-2.215,-2.215,-2.2036,-2.1432,-2.1211,-2.1211,-3.4775,-3.5184,-3.5509,-3.5605,-3.6411,-3.7084,-3.718,-3.7649,-3.7986,-3.7986,-3.7986,-3.7986,-3.7986,-3.7986,-3.7986,-3.7986,-3.7986,-3.7986,-3.7986,-3.7986,-3.7986,-3.7986,-3.7986,-3.7986,-3.7986,-3.7986,-3.7927,-3.7752,-3.712,-3.6797,-3.6849,-3.499,-3.3796,-3.3101,-3.1891,-3.0836,-2.9994,-2.9994,-2.9994,-2.9994,-2.9994,-2.9994,-2.9994,-2.9994,-2.9994,-2.9994,-2.9994,-2.9669,-2.9237,-2.9448,-2.8973,-2.8408,-2.8568,-2.8461,-2.8291,-2.8291,-2.8291,-2.8291,-2.8291,-2.8291,-2.8291,-2.8291,-2.8291,-2.8291,-2.8291,-2.8291,-2.8291,-2.8291,-2.8291,-2.8291,-2.8291,-2.8291,-2.8291,-2.8291,-2.8291,-2.8291,-2.8291,-2.8291,-2.8291,-2.8291,-2.8291,-2.8291,-2.8291,-2.8291,-2.8291,-2.8291,-2.8291,-2.8291,-2.8291,-2.8291,-2.8291,-2.8291,-2.8291,-2.8291,-2.8291,-2.8291,-2.8291,-2.8291,-2.8291,-2.7565,-2.6191,-2.6191,-2.491,-2.27,-2.27,-2.2093,-2.1211,-2.1211,-2.1211,-2.1211,-2.1211,-2.1211,-2.1211,-2.1211,-2.1211,-2.1211,-3.4775,-3.4835,-3.5027,-3.5533,-3.611,-3.6663,-3.712,-3.7649,-3.7986,-3.7986,-3.7986,-3.7986,-3.7986,-3.7986,-3.7986,-3.7986,-3.7986,-3.7986,-3.7986,-3.7986,-3.7986,-3.7986,-3.7986,-3.7986,-3.7986,-3.7986,-3.8108,-3.8299,-3.7302,-3.6943,-3.7095,-3.4302,-3.2951,-3.275,-3.1002,-3.0151,-2.9994,-2.9994,-2.9994,-2.9994,-2.9994,-2.9994,-2.9994,-2.9994,-2.9994,-2.9994,-2.9994,-2.9774,-2.9501,-2.9237,-2.893,-2.8621,-2.8408,-2.8344,-2.8291,-2.8291,-2.8291,-2.8291,-2.8291,-2.8291,-2.8291,-2.8291,-2.8291,-2.8291,-2.8291,-2.8291,-2.8291,-2.8291,-2.8291,-2.8291,-2.8291,-2.8291,-2.8291,-2.8291,-2.8291,-2.8291,-2.8291,-2.8291,-2.8291,-2.8291,-2.8291,-2.8291,-2.8291,-2.8291,-2.8291,-2.8291,-2.8291,-2.8291,-2.8291,-2.8291,-2.8291,-2.8291,-2.8291,-2.8291,-2.8291,-2.8291,-2.8291,-2.8291,-2.8291,-2.7124,-2.4948,-2.4948,-2.3631,-2.1432,-2.1432,-2.1375,-2.1211,-2.1211,-2.1211,-2.1211,-2.1211,-2.1211,-2.1211,-2.1211,-2.1211,-2.1211,-3.4775,-3.4775,-3.4847,-3.5087,-3.5617,-3.6146,-3.6675,-3.7204,-3.7649,-3.7938,-3.7986,-3.7986,-3.7986,-3.7986,-3.7986,-3.7986,-3.7986,-3.7986,-3.7986,-3.7986,-3.7986,-3.7986,-3.7986,-3.7986,-3.7986,-3.7986,-3.8039,-3.8198,-3.7372,-3.7006,-3.6905,-3.4881,-3.3414,-3.2538,-3.1238,-3.0339,-2.9774,-2.9774,-2.9879,-2.9994,-2.9994,-2.9994,-2.9994,-2.9994,-2.9994,-2.9994,-2.9994,-2.9722,-2.929,-2.9132,-2.893,-2.8674,-2.8398,-2.8291,-2.8291,-2.8291,-2.8291,-2.8291,-2.8291,-2.8291,-2.8291,-2.8291,-2.8291,-2.8291,-2.8291,-2.8291,-2.8291,-2.8291,-2.8291,-2.8291,-2.8291,-2.8291,-2.8291,-2.8291,-2.8291,-2.8291,-2.8291,-2.8291,-2.8291,-2.8291,-2.8291,-2.8291,-2.8291,-2.8291,-2.8291,-2.8291,-2.8291,-2.8291,-2.8291,-2.8291,-2.8291,-2.8291,-2.8291,-2.8291,-2.8291,-2.8291,-2.8291,-2.8291,-2.7628,-2.64,-2.4727,-2.4727,-2.3407,-2.1211,-2.1211,-2.1211,-2.1211,-2.1211,-2.1211,-2.1211,-2.1211,-2.1211,-2.1211,-2.1211,-2.1211,-2.1211]},{"header":{"parameterUnit":"m.s-1","parameterCategory":1,"la1":30.6,"la2":28.766,"lo1":-90.7593,"lo2":-88.6598,"dy":0.0162,"dx":0.0183,"nx":116,"ny":114,"refTime":"2023-05-26T12:00:00:Z","depth":0,"parameterNumber":3,"parameterNumberName":"V-component_of_WINDS"},"data":[0.0,0.0,0.0,0.0,0.0,0.0,0.0,0.0,0.0,0.0,0.0,0.0,0.0,0.0,0.0,0.0,0.0,0.0,0.0,0.0,0.0,0.0,0.0,0.0,0.0,0.0,0.0,0.0,0.0,0.0,0.0,0.0,0.0,0.0,0.0,0.0,0.0,0.0,0.0,0.0,0.0,0.0,0.0,0.0,0.0,0.0,0.0,0.0,0.0,0.0,0.0,0.0,0.0,0.0,0.0,0.0,0.0,0.0,0.0,0.0,0.0,0.0,0.0,0.0,0.0,0.0,0.0,0.0,0.0,0.0,0.0,0.0,0.0,0.0,0.0,0.0,0.0,0.0,0.0,0.0,0.0,0.0,0.0,0.0,0.0,0.0,0.0,0.0,0.0,0.0,0.0,0.0,0.0,0.0,0.0,0.0,0.0,0.0,0.0,0.0,0.0,0.0,0.0,0.0,0.0,0.0,0.0,0.0,0.0,0.0,0.0,0.0,0.0,0.0,0.0,0.0,0.0,0.0,0.0,0.0,0.0,0.0,0.0,0.0,0.0,0.0,0.0,0.0,0.0,0.0,0.0,0.0,0.0,0.0,0.0,0.0,0.0,0.0,0.0,0.0,0.0,0.0,0.0,0.0,0.0,0.0,0.0,0.0,0.0,0.0,0.0,0.0,0.0,0.0,0.0,0.0,0.0,0.0,0.0,0.0,0.0,0.0,0.0,0.0,0.0,0.0,0.0,0.0,0.0,0.0,0.0,0.0,0.0,0.0,0.0,0.0,0.0,0.0,0.0,0.0,0.0,0.0,0.0,0.0,0.0,0.0,0.0,0.0,0.0,0.0,0.0,0.0,0.0,0.0,0.0,0.0,0.0,0.0,0.0,0.0,0.0,0.0,0.0,0.0,0.0,0.0,0.0,0.0,0.0,0.0,0.0,0.0,0.0,0.0,0.0,0.0,0.0,0.0,0.0,0.0,0.0,0.0,0.0,0.0,0.0,0.0,0.0,0.0,0.0,0.0,0.0,0.0,0.0,0.0,0.0,0.0,0.0,0.0,0.0,0.0,0.0,0.0,0.0,0.0,0.0,0.0,0.0,0.0,0.0,0.0,0.0,0.0,0.0,0.0,0.0,0.0,0.0,0.0,0.0,0.0,0.0,0.0,0.0,0.0,0.0,0.0,0.0,0.0,0.0,0.0,0.0,0.0,0.0,0.0,0.0,0.0,0.0,0.0,0.0,0.0,0.0,0.0,0.0,0.0,0.0,0.0,0.0,0.0,0.0,0.0,0.0,0.0,0.0,0.0,0.0,0.0,0.0,0.0,0.0,0.0,0.0,0.0,0.0,0.0,0.0,0.0,0.0,0.0,0.0,0.0,0.0,0.0,0.0,0.0,0.0,0.0,0.0,0.0,0.0,0.0,0.0,0.0,0.0,0.0,0.0,0.0,0.0,0.0,0.0,0.0,0.0,0.0,0.0,0.0,0.0,0.0,0.0,0.0,0.0,0.0,0.0,0.0,0.0,0.0,0.0,0.0,0.0,0.0,0.0,0.0,0.0,0.0,0.0,0.0,0.0,0.0,0.0,0.0,0.0,0.0,0.0,0.0,0.0,0.0,0.0,0.0,0.0,0.0,0.0,0.0,0.0,0.0,0.0,0.0,0.0,0.0,0.0,0.0,0.0,0.0,0.0,0.0,0.0,0.0,0.0,0.0,0.0,0.0,0.0,0.0,0.0,0.0,0.0,0.0,0.0,0.0,0.0,0.0,0.0,0.0,0.0,0.0,0.0,0.0,0.0,0.0,0.0,0.0,0.0,0.0,0.0,0.0,0.0,0.0,0.0,0.0,0.0,0.0,0.0,0.0,0.0,0.0,0.0,0.0,0.0,0.0,0.0,0.0,0.0,0.0,0.0,0.0,0.0,0.0,0.0,0.0,0.0,0.0,0.0,0.0,0.0,0.0,0.0,0.0,0.0,0.0,0.0,0.0,0.0,0.0,0.0,0.0,0.0,0.0,0.0,0.0,0.0,0.0,0.0,0.0,0.0,0.0,0.0,0.0,0.0,0.0,0.0,0.0,0.0,0.0,0.0,0.0,0.0,0.0,0.0,0.0,0.0,0.0,0.0,0.0,0.0,0.0,0.0,0.0,0.0,0.0,0.0,0.0,0.0,0.0,0.0,0.0,0.0,0.0,0.0,0.0,0.0,0.0,0.0,0.0,0.0,0.0,0.0,0.0,0.0,0.0,0.0,0.0,0.0,0.0,0.0,0.0,0.0,0.0,0.0,0.0,0.0,0.0,0.0,0.0,0.0,0.0,0.0,0.0,0.0,0.0,0.0,0.0,0.0,0.0,0.0,0.0,0.0,0.0,0.0,0.0,0.0,0.0,0.0,0.0,0.0,0.0,0.0,0.0,0.0,0.0,0.0,0.0,0.0,0.0,0.0,0.0,0.0,0.0,0.0,0.0,0.0,0.0,0.0,0.0,0.0,0.0,0.0,0.0,0.0,0.0,0.0,0.0,0.0,0.0,0.0,0.0,0.0,0.0,0.0,0.0,0.0,0.0,0.0,0.0,0.0,0.0,0.0,0.0,0.0,0.0,0.0,0.0,0.0,0.0,0.0,0.0,0.0,0.0,0.0,0.0,0.0,0.0,0.0,0.0,0.0,0.0,0.0,0.0,0.0,0.0,0.0,0.0,0.0,0.0,0.0,0.0,0.0,0.0,0.0,0.0,0.0,0.0,0.0,0.0,0.0,0.0,0.0,0.0,0.0,0.0,0.0,0.0,0.0,0.0,0.0,0.0,0.0,0.0,0.0,0.0,0.0,0.0,0.0,0.0,0.0,0.0,0.0,0.0,0.0,0.0,0.0,0.0,0.0,0.0,0.0,0.0,0.0,0.0,0.0,0.0,0.0,0.0,0.0,0.0,0.0,0.0,0.0,0.0,0.0,0.0,0.0,0.0,0.0,0.0,0.0,0.0,0.0,0.0,0.0,0.0,0.0,0.0,0.0,0.0,0.0,0.0,0.0,0.0,0.0,0.0,0.0,0.0,0.0,0.0,0.0,0.0,0.0,0.0,0.0,0.0,0.0,0.0,0.0,0.0,0.0,0.0,0.0,0.0,0.0,0.0,0.0,0.0,0.0,0.0,0.0,0.0,0.0,0.0,0.0,0.0,0.0,0.0,0.0,0.0,0.0,0.0,0.0,0.0,0.0,0.0,0.0,0.0,0.0,0.0,0.0,0.0,0.0,0.0,0.0,0.0,0.0,0.0,0.0,0.0,0.0,0.0,0.0,0.0,0.0,0.0,0.0,0.0,0.0,0.0,0.0,0.0,0.0,0.0,0.0,0.0,0.0,0.0,0.0,0.0,0.0,0.0,0.0,0.0,0.0,0.0,0.0,0.0,0.0,0.0,0.0,0.0,0.0,0.0,0.0,0.0,0.0,0.0,0.0,0.0,0.0,0.0,0.0,0.0,0.0,0.0,0.0,0.0,0.0,0.0,0.0,0.0,0.0,0.0,0.0,0.0,0.0,0.0,0.0,0.0,0.0,0.0,0.0,0.0,0.0,0.0,0.0,0.0,0.0,0.0,0.0,0.0,0.0,0.0,0.0,0.0,0.0,0.0,0.0,0.0,0.0,0.0,0.0,0.0,0.0,0.0,0.0,0.0,0.0,0.0,0.0,0.0,0.0,0.0,0.0,0.0,0.0,0.0,0.0,0.0,0.0,0.0,0.0,0.0,0.0,0.0,0.0,0.0,0.0,0.0,0.0,0.0,0.0,0.0,0.0,0.0,0.0,0.0,0.0,0.0,0.0,0.0,0.0,0.0,0.0,0.0,0.0,0.0,0.0,0.0,0.0,0.0,0.0,0.0,0.0,0.0,0.0,0.0,0.0,0.0,0.0,0.0,0.0,0.0,0.0,0.0,0.0,0.0,0.0,0.0,0.0,0.0,0.0,0.0,0.0,0.0,0.0,0.0,0.0,0.0,0.0,0.0,0.0,0.0,0.0,0.0,0.0,0.0,0.0,0.0,0.0,0.0,0.0,0.0,0.0,0.0,0.0,0.0,0.0,0.0,0.0,0.0,0.0,0.0,0.0,0.0,0.0,0.0,0.0,0.0,0.0,0.0,0.0,0.0,0.0,0.0,0.0,0.0,0.0,0.0,0.0,0.0,0.0,0.0,0.0,0.0,0.0,0.0,0.0,0.0,0.0,0.0,0.0,0.0,0.0,0.0,0.0,0.0,0.0,0.0,0.0,0.0,0.0,0.0,0.0,0.0,0.0,0.0,0.0,0.0,0.0,0.0,0.0,0.0,0.0,0.0,0.0,0.0,0.0,0.0,0.0,0.0,0.0,0.0,0.0,0.0,0.0,0.0,0.0,0.0,0.0,0.0,0.0,0.0,0.0,0.0,0.0,0.0,0.0,0.0,0.0,0.0,0.0,0.0,0.0,0.0,0.0,0.0,0.0,0.0,0.0,0.0,0.0,0.0,0.0,0.0,0.0,0.0,0.0,0.0,0.0,0.0,0.0,0.0,0.0,0.0,0.0,0.0,0.0,0.0,0.0,0.0,0.0,0.0,0.0,0.0,0.0,0.0,0.0,0.0,0.0,0.0,0.0,0.0,0.0,0.0,0.0,0.0,0.0,0.0,0.0,0.0,0.0,0.0,0.0,0.0,0.0,0.0,0.0,0.0,0.0,0.0,0.0,0.0,0.0,0.0,0.0,0.0,0.0,0.0,0.0,0.0,0.0,0.0,0.0,0.0,0.0,0.0,0.0,0.0,0.0,0.0,0.0,0.0,0.0,0.0,0.0,0.0,0.0,0.0,0.0,0.0,0.0,0.0,0.0,0.0,0.0,0.0,0.0,0.0,0.0,0.0,0.0,0.0,0.0,0.0,0.0,0.0,0.0,0.0,0.0,0.0,0.0,0.0,0.0,0.0,0.0,0.0,0.0,0.0,0.0,0.0,0.0,0.0,0.0,0.0,0.0,0.0,0.0,0.0,0.0,0.0,0.0,0.0,0.0,0.0,0.0,0.0,0.0,0.0,0.0,0.0,0.0,0.0,0.0,0.0,0.0,0.0,0.0,0.0,0.0,0.0,0.0,0.0,0.0,0.0,0.0,0.0,0.0,0.0,0.0,0.0,0.0,0.0,0.0,0.0,0.0,0.0,0.0,0.0,0.0,0.0,0.0,0.0,0.0,0.0,0.0,0.0,0.0,0.0,0.0,0.0,0.0,0.0,0.0,0.0,0.0,0.0,0.0,0.0,0.0,0.0,0.0,0.0,0.0,0.0,0.0,0.0,0.0,0.0,0.0,0.0,0.0,0.0,0.0,0.0,0.0,0.0,0.0,0.0,0.0,0.0,0.0,0.0,0.0,0.0,0.0,0.0,0.0,0.0,0.0,0.0,0.0,0.0,0.0,0.0,0.0,0.0,0.0,0.0,0.0,0.0,0.0,0.0,0.0,0.0,0.0,0.0,0.0,0.0,0.0,0.0,0.0,0.0,0.0,0.0,0.0,0.0,0.0,0.0,0.0,0.0,0.0,0.0,0.0,0.0,0.0,0.0,0.0,0.0,0.0,0.0,0.0,0.0,0.0,0.0,0.0,0.0,0.0,0.0,0.0,0.0,0.0,0.0,0.0,0.0,0.0,0.0,0.0,0.0,0.0,0.0,0.0,0.0,0.0,0.0,0.0,0.0,0.0,0.0,0.0,0.0,0.0,0.0,0.0,0.0,0.0,0.0,0.0,0.0,0.0,0.0,0.0,0.0,0.0,0.0,0.0,0.0,0.0,0.0,0.0,0.0,0.0,0.0,0.0,0.0,0.0,0.0,0.0,0.0,0.0,0.0,0.0,0.0,0.0,0.0,0.0,0.0,0.0,0.0,0.0,0.0,0.0,0.0,0.0,0.0,0.0,0.0,0.0,0.0,0.0,0.0,0.0,0.0,0.0,0.0,0.0,0.0,0.0,0.0,0.0,0.0,0.0,0.0,0.0,0.0,0.0,0.0,0.0,0.0,0.0,0.0,0.0,0.0,0.0,0.0,0.0,0.0,0.0,0.0,0.0,0.0,0.0,0.0,0.0,0.0,0.0,0.0,0.0,0.0,2.2274,0.0,0.0,0.0,0.0,0.0,0.0,0.0,0.0,0.0,0.0,0.0,0.0,0.0,0.0,0.0,0.0,0.0,0.0,0.0,0.0,0.0,0.0,0.0,0.0,0.0,0.0,0.0,0.0,0.0,0.0,0.0,0.0,0.0,0.0,0.0,0.0,0.0,0.0,3.629,3.629,3.6149,3.5881,3.5529,3.5154,3.4754,0.0,0.0,0.0,0.0,0.0,0.0,0.0,0.0,0.0,0.0,0.0,0.0,0.0,0.0,0.0,0.0,0.0,0.0,0.0,0.0,0.0,0.0,0.0,0.0,0.0,0.0,0.0,0.0,0.0,0.0,0.0,0.0,0.0,0.0,0.0,0.0,0.0,0.0,0.0,0.0,0.0,0.0,0.0,0.0,0.0,0.0,0.0,0.0,0.0,0.0,0.0,0.0,0.0,0.0,0.0,0.0,0.0,0.0,0.0,0.0,0.0,0.0,0.0,0.0,0.0,0.0,0.0,0.0,0.0,0.0,0.0,2.2097,0.0,0.0,0.0,0.0,0.0,0.0,0.0,0.0,0.0,0.0,0.0,0.0,0.0,0.0,0.0,0.0,0.0,0.0,0.0,0.0,0.0,0.0,0.0,0.0,3.9929,3.9727,3.9309,3.8922,0.0,0.0,0.0,0.0,0.0,0.0,0.0,3.7752,3.7584,3.7017,3.6908,3.6616,3.6165,3.6368,3.6118,3.5512,3.5023,0.0,0.0,0.0,0.0,0.0,0.0,0.0,0.0,0.0,0.0,0.0,0.0,0.0,0.0,0.0,0.0,0.0,0.0,0.0,0.0,0.0,0.0,0.0,0.0,0.0,0.0,0.0,0.0,0.0,0.0,0.0,0.0,0.0,0.0,0.0,0.0,0.0,0.0,0.0,0.0,0.0,0.0,0.0,0.0,0.0,0.0,0.0,0.0,0.0,0.0,0.0,0.0,0.0,0.0,0.0,0.0,0.0,0.0,0.0,0.0,0.0,0.0,0.0,2.4506,2.4331,2.4146,2.4146,2.4146,2.4108,2.2917,2.2445,2.2436,0.0,0.0,0.0,0.0,0.0,0.0,0.0,0.0,0.0,0.0,0.0,0.0,0.0,0.0,0.0,0.0,0.0,0.0,0.0,0.0,0.0,0.0,4.1042,4.086,4.0641,4.0189,3.9767,0.0,0.0,0.0,0.0,0.0,0.0,3.9015,3.9172,3.8919,3.8243,3.7675,3.7345,3.7285,3.6861,3.6738,3.6844,3.66,3.6182,3.5689,0.0,0.0,0.0,0.0,0.0,0.0,0.0,0.0,0.0,0.0,0.0,0.0,0.0,0.0,0.0,0.0,0.0,0.0,0.0,0.0,0.0,0.0,0.0,0.0,0.0,0.0,0.0,0.0,0.0,0.0,0.0,0.0,0.0,0.0,0.0,0.0,0.0,0.0,0.0,0.0,0.0,2.7133,2.701,0.0,0.0,0.0,0.0,0.0,0.0,0.0,0.0,0.0,0.0,0.0,0.0,0.0,2.6964,2.6985,2.6148,2.5698,2.5698,2.4818,2.4368,2.4378,2.4378,2.4378,2.4322,2.3984,0.0,2.3815,2.335,0.0,0.0,0.0,0.0,0.0,0.0,0.0,0.0,0.0,0.0,0.0,0.0,0.0,0.0,0.0,0.0,0.0,0.0,0.0,0.0,0.0,4.1239,4.1153,4.0984,4.1173,4.1196,4.0904,4.0718,0.0,0.0,0.0,3.9531,3.9424,3.9471,3.936,3.906,3.8397,3.8065,3.8049,3.7787,3.7727,3.7857,3.8096,3.7338,3.5913,3.6023,0.0,0.0,0.0,0.0,0.0,0.0,0.0,0.0,0.0,0.0,0.0,0.0,0.0,0.0,0.0,0.0,0.0,0.0,0.0,0.0,0.0,0.0,0.0,0.0,0.0,0.0,0.0,0.0,0.0,0.0,0.0,0.0,0.0,0.0,0.0,0.0,0.0,0.0,0.0,2.8429,2.8362,2.8362,2.8507,2.8557,0.0,0.0,0.0,0.0,0.0,0.0,0.0,0.0,0.0,2.7788,2.7799,2.7919,2.8138,2.7683,2.7454,2.7465,2.7052,2.6821,2.6821,2.6821,2.6821,2.6821,2.6728,2.6692,2.6537,2.4441,2.3499,2.3444,0.0,0.0,0.0,0.0,2.2516,2.2264,0.0,0.0,0.0,0.0,0.0,0.0,0.0,0.0,0.0,0.0,0.0,0.0,4.1949,4.1884,4.1819,4.1654,4.2253,4.2505,4.2284,4.2316,0.0,4.1823,4.1183,4.0753,4.054,4.0348,4.0252,4.0252,3.9414,3.9004,3.9019,3.8614,3.8524,3.8679,3.8947,3.8112,3.6508,3.6677,3.6368,3.5752,0.0,0.0,0.0,0.0,0.0,0.0,0.0,0.0,0.0,0.0,0.0,0.0,0.0,0.0,0.0,0.0,0.0,0.0,0.0,0.0,0.0,0.0,0.0,0.0,0.0,0.0,0.0,0.0,0.0,0.0,0.0,0.0,0.0,0.0,0.0,0.0,0.0,2.9172,2.9496,2.9496,2.9965,3.029,0.0,0.0,0.0,0.0,0.0,0.0,2.8563,2.8508,2.8633,2.9015,2.9026,2.915,2.9464,2.9189,2.9096,2.9096,2.8819,2.868,2.868,2.868,2.868,2.868,2.868,2.868,2.8522,2.5915,2.4653,2.4411,2.4305,2.3944,2.3455,2.3364,2.3119,2.2834,0.0,0.0,0.0,0.0,0.0,0.0,0.0,0.0,0.0,0.0,0.0,4.3185,4.3538,4.3466,4.3333,4.3216,4.3333,4.3287,4.2968,4.3122,4.3229,4.3196,4.3166,4.3194,4.3307,4.2659,4.234,4.234,4.105,4.0399,4.0383,3.9095,3.8806,3.9331,3.8711,3.8359,3.8165,3.8193,3.7851,3.7221,3.66,0.0,0.0,0.0,0.0,0.0,0.0,0.0,0.0,0.0,0.0,0.0,0.0,0.0,0.0,0.0,0.0,0.0,0.0,0.0,0.0,0.0,0.0,0.0,0.0,0.0,0.0,0.0,0.0,0.0,0.0,0.0,0.0,0.0,0.0,0.0,0.0,0.0,0.0,3.005,3.0506,0.0,0.0,0.0,0.0,3.1577,3.1533,3.1533,3.1488,3.1488,3.15,3.1524,3.1536,3.1536,3.1572,3.0588,3.0125,3.0125,2.9143,2.868,2.868,2.868,2.868,2.868,2.868,2.868,2.8637,2.81,2.7302,2.6398,2.5954,2.5199,2.4293,2.4117,2.4015,2.3938,0.0,0.0,0.0,0.0,0.0,0.0,0.0,0.0,0.0,4.4066,4.3881,4.3794,4.3714,4.3584,4.3482,4.3423,4.3852,4.41,4.3968,4.3922,4.3922,4.4088,4.3575,4.335,4.3512,4.3264,4.3144,4.3144,4.2228,4.1794,4.1778,4.059,4.0264,4.0668,4.0193,4.0124,4.0212,3.8853,3.7937,3.737,3.7131,3.7041,0.0,0.0,0.0,0.0,0.0,0.0,0.0,0.0,0.0,0.0,0.0,0.0,0.0,0.0,0.0,0.0,0.0,0.0,0.0,0.0,0.0,0.0,0.0,0.0,0.0,0.0,0.0,0.0,0.0,0.0,0.0,0.0,0.0,0.0,0.0,0.0,0.0,3.0834,3.1189,0.0,3.1428,3.1597,3.1705,3.1705,3.1705,3.1705,3.1705,3.1705,3.1705,3.1705,3.1705,3.1705,3.1705,3.1339,3.1149,3.1149,3.0824,3.0633,3.0633,3.0633,3.0633,3.0633,3.0633,3.0633,3.0621,3.0491,2.9444,2.7946,2.7774,2.7299,2.668,2.5967,2.5508,2.5144,0.0,0.0,0.0,0.0,0.0,0.0,0.0,0.0,4.5224,4.4984,4.4756,4.4563,4.4501,4.4322,4.4209,4.4209,4.4569,4.478,4.478,4.4663,4.4663,4.4797,4.4288,4.4042,4.414,4.414,4.414,4.414,4.3483,4.3175,4.3146,4.1981,4.1621,4.1932,4.1333,4.1262,4.1538,3.9999,3.8963,3.838,3.816,3.7929,3.7571,0.0,0.0,0.0,0.0,0.0,0.0,0.0,0.0,0.0,0.0,0.0,0.0,0.0,0.0,0.0,0.0,0.0,0.0,0.0,0.0,0.0,0.0,0.0,0.0,0.0,0.0,0.0,0.0,0.0,0.0,0.0,0.0,0.0,0.0,0.0,3.1521,3.1608,3.1663,3.1705,3.1805,3.1749,3.1705,3.1705,3.1705,3.1705,3.1705,3.1705,3.1705,3.1705,3.1705,3.1705,3.1705,3.1705,3.1705,3.1705,3.1705,3.1705,3.1705,3.1705,3.1705,3.1705,3.1705,3.1705,3.1705,3.1705,3.0913,2.9704,2.9326,2.8862,2.8211,2.7569,2.7101,2.668,0.0,0.0,0.0,0.0,0.0,0.0,0.0,4.5588,4.5503,4.5963,4.5658,4.5572,4.5947,4.5744,4.5607,4.5607,4.5476,4.5397,4.5397,4.5397,4.5397,4.5397,4.5397,4.5397,4.5397,4.5397,4.5397,4.5397,4.4824,4.453,4.4485,4.3191,4.2784,4.3115,4.1994,4.1749,4.2149,4.1671,4.1077,4.042,3.9716,3.9032,3.8331,0.0,0.0,0.0,0.0,0.0,0.0,0.0,0.0,0.0,0.0,0.0,0.0,0.0,0.0,0.0,0.0,0.0,0.0,0.0,0.0,0.0,0.0,0.0,0.0,0.0,0.0,0.0,0.0,0.0,0.0,0.0,0.0,0.0,3.1856,3.1883,3.2125,3.2388,3.1981,3.1805,3.1981,3.1849,3.1705,3.1705,3.1705,3.1705,3.1705,3.1705,3.1705,3.1705,3.1705,3.1705,3.1705,3.1705,3.1705,3.1705,3.1705,3.1705,3.1705,3.1705,3.1705,3.1705,3.1705,3.1705,3.1705,3.1705,3.1705,3.1617,3.0633,2.9658,2.8773,2.8773,2.8727,2.8522,0.0,0.0,0.0,0.0,0.0,0.0,0.0,4.6193,4.6235,4.6154,4.5955,4.5871,4.5998,4.5744,4.5607,4.5607,4.5476,4.5397,4.5397,4.5397,4.5397,4.5397,4.5397,4.5397,4.5397,4.5397,4.5397,4.5397,4.522,4.5167,4.5123,4.4338,4.4209,4.4592,4.3777,4.3524,4.3687,4.3546,4.2901,4.186,4.1156,4.0724,4.047,0.0,0.0,0.0,0.0,0.0,0.0,0.0,0.0,0.0,0.0,0.0,0.0,0.0,0.0,0.0,0.0,0.0,0.0,0.0,0.0,0.0,0.0,0.0,0.0,0.0,0.0,0.0,0.0,0.0,0.0,0.0,0.0,3.4712,3.3775,3.2998,3.2537,3.2593,3.2376,3.2213,3.2257,3.2081,3.1937,3.1937,3.1761,3.1705,3.1705,3.1705,3.1705,3.1705,3.1705,3.1705,3.1705,3.1705,3.1705,3.1705,3.1705,3.1705,3.1705,3.1705,3.1705,3.1705,3.1705,3.1705,3.1705,3.1705,3.1705,3.1661,3.1383,3.1104,3.0779,3.0079,2.9326,2.8659,0.0,0.0,0.0,0.0,0.0,0.0,0.0,4.6566,4.6542,4.6392,4.6196,4.6073,4.6073,4.5846,4.5667,4.5667,4.5502,4.5397,4.5397,4.5397,4.5397,4.5397,4.5397,4.5397,4.5397,4.5397,4.5397,4.5397,4.5397,4.5397,4.5397,4.5059,4.5069,4.5432,4.4872,4.4708,4.4807,4.4463,4.3915,4.3194,4.256,4.1943,4.1352,4.1021,4.0598,4.0181,3.9551,3.8617,3.7608,3.7372,0.0,0.0,0.0,0.0,0.0,0.0,0.0,0.0,0.0,0.0,0.0,0.0,0.0,0.0,0.0,0.0,0.0,0.0,0.0,0.0,0.0,0.0,0.0,0.0,3.6713,3.6002,3.5507,3.4191,3.3275,3.3386,3.281,3.2431,3.2519,3.23,3.2125,3.1994,3.1893,3.1849,3.1849,3.1761,3.1749,3.1805,3.1749,3.1705,3.1705,3.1705,3.1705,3.1705,3.1705,3.1705,3.1705,3.1705,3.1705,0.0,3.1705,3.1705,3.1705,3.1705,3.1705,0.0,0.0,0.0,0.0,0.0,3.0453,2.9886,0.0,0.0,0.0,0.0,0.0,0.0,0.0,4.6749,4.6542,4.6542,4.6343,4.6196,4.6172,4.5947,4.5795,4.577,4.5554,4.5397,4.5397,4.5397,4.5397,4.5397,4.5397,4.5397,4.5397,4.5397,4.5397,4.5397,4.5397,4.5397,4.5397,4.5397,4.5537,4.577,4.5432,4.5389,4.5555,4.478,4.4378,4.4265,4.3848,4.2862,4.1645,4.1645,4.1595,4.1439,4.0932,4.0226,3.9439,3.8933,0.0,0.0,0.0,0.0,0.0,0.0,0.0,0.0,0.0,0.0,0.0,0.0,0.0,0.0,0.0,0.0,0.0,0.0,0.0,0.0,0.0,0.0,0.0,0.0,3.7567,3.7081,3.7152,3.5602,3.4439,3.4509,3.3564,3.2897,3.2971,3.2872,3.2648,3.2308,3.2252,3.2208,3.2164,0.0,0.0,0.0,0.0,3.1765,3.1705,3.1705,3.1705,3.1705,3.1705,3.1705,3.1705,3.1705,3.1705,3.1705,3.1705,3.1705,3.1705,3.1705,3.1705,3.1705,3.1705,3.1705,3.1705,3.1705,3.1705,3.1572,0.0,0.0,0.0,0.0,0.0,0.0,0.0,4.6584,4.627,4.627,4.6221,4.6147,4.6048,4.5897,4.5761,4.5641,4.5502,4.5397,4.5397,4.5397,4.5397,4.5397,4.5397,4.5397,4.5397,4.5397,4.5397,4.5397,4.5397,4.5397,4.5397,4.5397,4.5537,4.5812,4.5718,4.5649,4.558,4.5424,4.4944,4.4293,4.4196,4.3768,4.3168,4.3168,4.2804,4.2274,4.2158,4.1337,4.0252,4.0162,3.9298,3.8264,3.8264,3.7846,0.0,0.0,0.0,0.0,0.0,0.0,0.0,0.0,0.0,0.0,0.0,0.0,0.0,0.0,0.0,0.0,0.0,0.0,0.0,3.8202,3.8037,3.8149,3.8698,3.7839,3.6698,3.5535,3.5625,3.5502,3.4795,3.495,3.4806,3.402,3.3724,3.353,3.3314,3.3268,0.0,3.2403,3.2379,3.2118,3.1717,3.1705,3.1705,3.1705,0.0,0.0,3.1705,3.1705,3.1705,3.1705,3.1705,3.1705,3.1705,3.1705,3.1705,3.1705,3.1705,3.1705,3.1705,3.1705,3.1705,3.1661,0.0,0.0,0.0,0.0,0.0,0.0,0.0,4.6368,4.6196,4.6196,4.6196,4.6172,4.6097,4.5922,4.577,4.571,4.5528,4.5397,4.5397,4.5397,4.5397,4.5397,4.5344,4.53,4.53,4.53,4.53,4.53,4.5371,4.5397,4.5397,4.5397,4.5537,4.5795,4.5795,4.5846,4.5879,4.5701,4.5345,4.4917,4.4463,4.4167,4.3935,4.3687,4.3367,4.3035,4.3035,4.2386,4.1547,4.1547,4.088,4.0011,4.0011,3.9514,3.8933,0.0,0.0,0.0,0.0,0.0,0.0,0.0,0.0,0.0,0.0,0.0,0.0,0.0,0.0,3.8202,0.0,0.0,3.8318,3.8652,3.8696,3.8928,3.9567,3.9272,3.8561,3.7396,3.7181,3.6901,3.6438,3.6147,3.5882,3.5807,3.5232,3.5054,3.5384,3.5296,3.5136,3.4855,3.4754,3.4399,3.3814,3.3611,3.3312,3.298,3.2803,3.2686,3.2686,3.2351,3.2189,3.2189,3.2189,3.2189,3.2232,3.2568,3.2481,3.2189,3.2189,3.2013,3.1705,3.1705,3.1705,3.1705,0.0,0.0,0.0,0.0,0.0,0.0,0.0,4.6221,4.6196,4.6196,4.6196,4.6172,4.6122,4.5922,4.577,4.5736,4.5528,4.5397,4.5397,4.5397,4.5397,4.5397,4.5274,4.5203,4.5203,4.5203,4.5203,4.5203,4.5327,4.5397,4.5397,4.5397,4.5528,4.5744,4.5795,4.5922,4.6147,4.5854,4.5658,4.5529,4.4835,4.4463,4.4253,4.3877,4.3671,4.3598,4.3598,4.3235,4.2772,4.2772,4.2317,4.1722,4.1722,4.1227,4.0684,4.0634,4.013,0.0,0.0,0.0,0.0,0.0,0.0,0.0,0.0,3.8202,3.8202,3.8202,3.8202,3.8246,3.8376,3.8391,3.8609,3.9276,3.9378,3.9596,4.0205,4.0292,4.0097,3.958,3.8796,3.82,3.8032,3.7391,3.7157,3.7574,3.6896,3.6779,3.7475,3.7346,3.7306,3.7313,3.7142,3.6665,3.5889,3.5592,3.5105,3.443,3.4024,3.3827,3.3784,3.3172,3.2884,3.2884,3.2884,3.2884,3.2927,3.3471,3.3386,3.2884,3.2884,3.2494,3.1881,3.1749,3.1705,3.1705,0.0,0.0,0.0,0.0,0.0,0.0,0.0,0.0,4.6196,4.6196,4.6196,4.6097,4.5871,4.5821,4.5693,4.5476,4.5423,4.5397,4.5397,4.5397,4.5397,4.5397,4.5274,4.5203,4.5203,4.5203,4.5203,4.5203,4.5327,4.5397,4.5397,4.5397,4.5476,4.5632,4.5761,4.5871,4.6023,4.6097,4.593,4.558,4.5503,4.4998,4.4293,4.4253,4.3964,4.3598,4.3598,4.3568,4.3492,4.3492,4.3035,4.2491,4.2491,4.1981,4.1344,4.1147,4.1162,4.1145,4.0779,4.0074,3.932,3.8649,3.8329,3.8202,0.0,3.8202,3.8202,3.8202,3.8202,3.8376,3.8986,3.9088,3.9291,3.99,4.0002,4.0234,4.0887,4.0989,4.1166,4.1678,4.1134,4.0392,3.9536,3.9829,3.9778,3.9037,3.8874,3.8772,3.8612,3.8612,3.8282,3.7672,3.7615,3.708,3.5889,3.5847,3.5538,3.4938,3.443,3.4223,3.4223,3.3784,3.3586,3.3586,3.3586,3.3586,3.3586,3.367,3.367,3.3586,3.3586,3.3172,3.2494,3.1925,3.1705,3.1705,0.0,0.0,0.0,0.0,0.0,0.0,0.0,0.0,0.0,0.0,4.6122,4.6048,4.5922,4.5787,4.5607,4.5423,4.5397,4.5397,4.5397,4.5344,4.5274,4.5274,4.5086,4.4968,4.4968,4.5032,4.5086,4.5086,4.5318,4.5397,4.5397,4.5397,4.5476,4.5607,4.5744,4.5871,4.5998,4.6147,4.6097,4.5905,4.5407,4.4964,4.4597,4.4093,4.3759,4.3598,4.3598,4.3598,0.0,0.0,4.3402,4.3174,4.3174,4.271,4.211,4.2029,4.1771,4.1444,4.1164,4.0591,3.9999,3.9662,3.9169,3.8723,3.8723,3.8464,3.8318,3.8696,3.8783,3.8971,3.961,3.9726,3.9929,0.0,4.067,4.0916,4.1584,4.1671,4.1787,4.2063,4.1845,4.1548,4.1106,4.0788,4.0703,4.0873,4.036,4.0216,4.0674,4.0717,4.0562,4.0266,4.0252,3.9816,3.8944,3.8712,3.8073,3.7073,3.6618,3.6224,3.5856,3.5291,3.4883,3.4622,3.4371,3.4509,3.4881,3.4881,3.4634,3.4301,3.4301,3.3882,3.3215,3.2537,3.2057,3.1705,0.0,0.0,0.0,0.0,0.0,0.0,0.0,0.0,0.0,0.0,4.6048,4.5972,4.5897,4.5667,4.5502,4.5397,4.5397,4.5397,4.5397,4.53,4.5247,4.5247,4.5032,4.4886,4.4858,4.4978,4.5032,4.5005,4.5264,4.5397,4.5397,4.5397,4.545,4.5554,4.5718,4.5846,4.5947,4.6122,4.6196,4.6147,4.5381,4.5018,4.4828,4.4093,4.37,4.3598,4.3598,4.3598,0.0,0.0,4.3598,4.3598,4.3598,4.3265,4.2881,4.2881,4.2506,4.2013,4.169,4.1262,4.086,4.0554,4.0132,3.9706,3.943,3.9158,3.9098,3.9387,3.945,3.9639,4.0263,4.0379,4.0597,4.1265,4.1381,4.1541,4.2034,4.2092,4.2092,4.2092,4.2092,4.2092,4.2092,4.1437,4.1296,4.2051,4.1437,4.1339,4.2051,4.2092,4.2092,4.2092,4.2092,4.1773,4.1105,4.0821,4.0098,3.8993,3.8388,3.7865,3.7427,3.6642,3.6096,3.5762,3.5359,3.5426,3.5884,3.575,3.5426,3.4964,3.4964,3.4551,3.3924,3.3428,3.2698,3.1969,0.0,0.0,0.0,0.0,0.0,0.0,0.0,0.0,0.0,0.0,0.0,0.0,0.0,4.5502,4.5397,4.5397,4.5397,4.5397,4.5397,4.5397,4.5397,4.5397,4.5274,4.514,4.5005,4.514,4.514,4.5005,4.5264,4.5397,4.5397,4.5397,4.5397,4.5423,4.5667,4.5795,4.5821,4.6097,4.6196,4.6147,4.5752,4.5302,4.4855,4.4418,4.3993,4.3598,4.3598,0.0,0.0,4.3598,4.3598,4.3598,4.3598,4.3598,4.3568,4.3568,4.3552,4.3402,4.2741,4.2412,4.1997,4.0961,4.1048,4.1168,4.0203,4.05,4.0837,4.0178,4.0075,4.0278,4.0945,4.1062,4.1279,4.1961,4.2063,4.2078,4.2092,4.2092,4.2092,4.2092,4.2092,4.2092,0.0,4.2092,4.2051,4.2092,4.2092,4.2051,4.2092,4.2092,4.2092,4.2092,4.2092,4.1773,4.1105,4.1091,4.0757,4.006,3.9036,3.8578,3.851,3.7455,3.6978,3.694,3.6536,3.6365,3.6351,3.5884,3.5669,3.5669,3.5669,3.5263,3.4675,3.4634,3.3797,3.2581,0.0,0.0,0.0,0.0,0.0,0.0,0.0,0.0,0.0,0.0,0.0,0.0,0.0,0.0,0.0,0.0,4.53,4.53,4.5397,4.522,4.514,4.514,4.5086,4.4951,4.4737,4.5032,4.5123,4.5005,4.5264,4.5397,4.5397,4.5397,4.545,4.5528,4.5432,4.5441,4.552,4.5381,4.5354,4.5284,4.4917,4.4642,4.4446,4.4023,4.373,4.3598,0.0,0.0,4.3598,4.3598,4.3598,4.3598,4.3598,4.3598,4.3698,4.4191,4.4324,4.4293,4.4064,4.413,4.4106,4.3235,4.2895,4.2657,4.2339,4.1946,4.1633,4.1429,4.1362,4.1464,4.1709,4.1758,4.1831,4.2063,4.2092,4.2092,4.2092,4.2092,4.2092,4.2092,4.2092,0.0,0.0,0.0,0.0,4.2092,4.2092,4.2092,4.2092,4.2092,4.2092,4.2092,4.2092,4.199,4.1758,4.1758,4.1424,4.0742,3.9985,3.9386,3.8996,3.8339,3.7816,3.738,3.6954,3.6811,3.6811,3.6626,3.6547,3.6547,3.6547,3.627,3.5764,3.5264,3.4649,3.3924,0.0,0.0,0.0,0.0,0.0,0.0,0.0,0.0,0.0,0.0,0.0,0.0,0.0,0.0,0.0,0.0,0.0,4.53,4.5397,4.5032,4.4797,4.4708,4.4541,4.4316,4.403,4.4401,4.4541,4.4373,4.4597,4.4708,4.4708,4.4708,4.4818,4.5025,4.4917,4.4971,4.5133,4.4964,4.491,4.4855,4.4446,4.431,4.4253,4.3789,4.3598,0.0,0.0,0.0,4.3598,4.3598,4.3598,4.3598,4.3598,4.3764,4.4092,4.4556,4.487,4.5086,4.5086,4.5278,4.5336,4.4733,4.4412,4.418,4.3815,4.3345,4.2894,4.2464,4.2372,4.2307,4.2129,4.2092,4.2092,4.2092,4.2092,4.2092,4.2092,4.2092,4.2092,4.2092,4.2092,4.2092,0.0,0.0,0.0,4.2092,4.2092,4.2092,4.2092,4.2092,4.2092,4.2092,4.2092,4.2092,4.2092,4.2092,4.1758,4.1091,4.0655,4.0017,3.9204,3.8919,3.8443,3.7801,3.738,3.7226,3.7187,3.707,3.6978,3.6978,3.6978,3.6836,3.6575,3.607,3.5629,3.5141,0.0,0.0,0.0,0.0,0.0,0.0,0.0,0.0,0.0,0.0,0.0,0.0,0.0,0.0,0.0,0.0,0.0,0.0,4.53,4.4752,4.4356,4.4164,4.3731,4.3347,4.3029,4.3317,4.3423,4.3306,4.3423,4.3512,4.3512,4.3512,4.3676,4.3985,4.4112,4.4356,4.468,4.4773,4.4828,4.4801,4.4418,4.4265,4.4224,4.3759,4.3598,0.0,4.3598,4.3598,4.3598,4.3598,4.3598,4.3598,4.3598,4.4125,4.4718,4.4738,4.5268,4.5847,4.5847,4.5864,4.5835,4.5485,4.5636,4.5636,4.4752,4.4752,4.4586,4.3364,4.3101,4.2875,0.0,0.0,4.2092,4.2092,4.2092,4.2092,4.2092,4.2092,4.2092,0.0,0.0,0.0,0.0,0.0,0.0,4.2092,0.0,4.2092,4.2092,4.2092,4.2092,4.2092,4.2092,4.2092,4.2092,4.2092,4.1773,4.1149,4.1149,4.0495,3.9305,3.9305,3.8928,3.8266,3.7902,3.771,3.771,3.731,3.7155,3.7155,3.7127,3.7113,3.7074,3.7031,3.6772,3.6192,0.0,0.0,0.0,0.0,0.0,0.0,0.0,0.0,0.0,0.0,0.0,0.0,0.0,0.0,0.0,0.0,0.0,0.0,4.4026,4.3735,4.3575,4.3529,4.3512,4.338,4.308,4.335,4.3423,4.3306,4.3423,4.3512,4.3512,4.3512,4.3601,4.376,4.3752,4.3856,4.4013,4.396,4.3948,4.3919,4.3818,4.3789,4.3776,4.3658,4.3598,4.3598,4.3598,4.3598,4.3598,4.3598,4.3598,4.3598,4.3598,4.4125,4.4804,4.5351,4.603,4.6609,4.6609,4.7023,4.7273,4.6663,4.675,4.6925,4.6671,4.6507,4.6056,4.502,4.4403,4.3843,4.2955,4.2392,0.0,4.2092,4.2092,0.0,4.2092,4.2092,0.0,4.2092,0.0,4.2092,4.2092,4.2092,0.0,0.0,4.2092,4.2092,4.2092,4.2092,4.2092,4.2092,4.2092,4.2092,4.2092,4.2092,4.2005,4.1845,4.1845,4.141,4.0612,4.0612,4.0249,3.961,3.9493,3.9469,3.9454,3.9337,3.9297,3.9254,3.8808,3.848,3.8136,3.7628,3.7187,3.6797,0.0,0.0,0.0,0.0,0.0,0.0,0.0,0.0,0.0,0.0,0.0,0.0,0.0,0.0,0.0,0.0,0.0,0.0,0.0,4.3108,4.288,4.288,4.263,4.2459,4.2301,4.2522,4.2615,4.2538,4.2615,4.2678,4.2678,4.2678,4.2785,4.3,4.3094,4.3292,4.3502,4.3582,4.3598,0.0,0.0,4.3598,4.3598,4.3598,4.3598,4.3598,4.3598,4.3598,4.3598,4.3598,4.3598,4.3598,4.3598,4.434,4.5251,4.5665,4.6543,4.7388,4.7388,4.7686,4.7901,4.7487,4.7391,4.7404,4.7404,4.715,4.6617,4.5624,4.5132,4.4533,4.3245,4.2729,4.2392,4.2133,0.0,0.0,4.2092,4.2092,4.2092,0.0,4.2092,0.0,4.2092,4.2092,4.2092,0.0,4.2092,4.2092,4.2092,4.2092,4.2092,4.2092,4.2092,4.2092,4.2092,4.2092,4.2092,4.2092,4.2092,4.1744,4.1091,4.1091,4.0728,4.0104,0.0,4.0104,4.0104,4.0104,4.0104,4.006,3.9726,3.932,3.8837,3.8438,3.7853,3.7264,0.0,0.0,0.0,0.0,0.0,0.0,0.0,0.0,0.0,0.0,0.0,0.0,0.0,0.0,0.0,0.0,0.0,0.0,0.0,0.0,4.219,4.219,4.1655,4.1357,4.1357,4.1522,4.1588,4.1588,4.1588,4.1588,4.1588,4.1588,4.1785,4.2109,4.2428,4.2789,4.3113,4.3462,4.3598,4.3598,4.3598,4.3598,4.3598,0.0,0.0,4.3598,4.3598,4.3598,4.3598,4.3598,4.3598,4.3615,4.3714,4.4705,4.5814,4.5914,4.6924,4.8001,4.8001,4.8001,4.8001,4.8001,4.7737,4.7488,4.7488,4.7252,4.6756,4.5877,4.5608,4.5095,4.3506,4.3126,4.2875,4.2242,4.2133,4.2092,4.2092,4.2092,4.2092,4.2092,4.2092,4.2092,4.2092,4.2092,4.2092,4.2092,4.2092,4.2092,4.2092,4.2092,4.2092,4.2092,4.2092,4.2092,4.2092,4.2092,4.2092,4.2092,4.2092,4.1802,4.1221,4.1221,4.0916,4.0365,0.0,0.0,4.0365,4.0365,4.0365,4.035,4.0263,3.9857,3.9305,3.9233,3.8553,3.7687,0.0,0.0,0.0,0.0,0.0,0.0,0.0,0.0,0.0,0.0,4.1835,4.1802,0.0,0.0,0.0,0.0,0.0,0.0,0.0,0.0,0.0,4.1704,4.1621,4.1555,4.1555,4.1588,4.1588,4.1588,4.1588,4.1588,4.1588,4.1588,4.1785,4.2109,4.2428,4.2789,4.3113,4.3462,4.3598,4.3598,4.3598,4.3598,4.3598,0.0,0.0,0.0,4.3598,4.3598,4.3598,4.3598,4.3598,4.3698,4.4324,4.5102,4.5914,4.6527,4.7322,4.8001,4.8001,4.8001,4.8001,4.8001,4.7968,4.7902,4.7902,4.7853,4.7688,4.7168,4.6638,4.5953,4.4721,4.3905,4.3175,4.2459,4.2216,4.2092,4.2092,4.2092,4.2092,0.0,4.2092,4.2092,4.2092,4.2092,0.0,0.0,0.0,4.2092,4.2092,4.2092,4.2092,4.2092,4.2092,4.2092,4.2092,4.2092,4.2092,4.2092,4.2092,4.2034,4.1918,4.1918,4.186,4.1744,4.1744,0.0,4.1744,4.1744,4.1744,4.17,4.1134,4.0525,3.9886,3.9378,3.8745,3.8089,0.0,0.0,0.0,0.0,0.0,0.0,0.0,4.1423,4.1588,4.1588,4.1588,4.1588,4.1588,4.19,0.0,0.0,0.0,0.0,0.0,0.0,0.0,0.0,4.1489,4.1357,4.1189,4.1189,4.1189,4.1189,0.0,4.1189,4.1189,4.1654,4.1802,4.1721,4.2522,4.2943,4.3113,4.3462,4.3598,4.3598,4.3598,4.3598,0.0,0.0,0.0,0.0,4.3598,4.3598,4.3598,4.3598,4.3598,4.3714,4.4456,4.5202,4.593,4.6676,4.7421,4.8001,4.8001,4.8001,4.8001,4.8001,4.8001,4.8001,4.8001,4.8001,4.7886,4.7488,4.7186,4.6638,4.5624,4.4743,4.3944,4.3284,4.2729,4.2392,4.2284,4.2242,4.2201,4.2092,4.2092,4.2092,0.0,4.2092,0.0,0.0,0.0,4.2092,4.2092,4.2092,4.2092,4.2092,4.2092,4.2092,4.2092,4.2092,4.2092,4.2092,4.2092,4.2092,4.2092,4.2092,4.2092,4.2092,4.2092,0.0,4.2092,4.2092,4.2092,4.2063,4.1744,4.1004,4.006,3.977,3.9044,3.8202,0.0,0.0,0.0,0.0,0.0,0.0,0.0,4.0972,4.1274,4.1423,4.1423,4.1456,4.1588,4.1588,4.1588,0.0,0.0,0.0,0.0,0.0,0.0,0.0,0.0,0.0,4.0612,0.0,0.0,4.0612,4.0612,0.0,0.0,0.0,0.0,0.0,4.2349,4.2851,4.2772,4.3204,4.3402,0.0,0.0,4.3462,0.0,0.0,0.0,0.0,0.0,4.3598,4.3598,4.3598,4.3698,4.3976,4.4688,4.5317,4.5963,4.6874,4.7554,4.8001,4.8001,4.8001,4.8001,4.8001,4.8001,4.8001,4.8001,4.8001,4.7886,4.7588,4.7521,4.7236,4.634,4.5608,4.493,4.4327,4.3506,4.2915,4.2729,4.2541,4.2366,4.2175,4.2133,0.0,4.2092,4.2092,0.0,0.0,0.0,0.0,4.2092,4.2092,4.2092,4.2092,4.2092,4.2092,4.2092,4.2092,4.2092,4.2092,4.2092,4.2092,4.2092,4.2092,4.2092,4.2092,4.2092,0.0,0.0,4.2092,4.2092,4.2092,4.2092,4.1279,4.0104,4.0104,3.9291,3.8202,0.0,0.0,0.0,0.0,0.0,0.0,0.0,4.003,4.0255,4.0783,4.0867,4.1055,4.1555,4.1588,4.1588,0.0,0.0,0.0,0.0,0.0,0.0,0.0,0.0,0.0,0.0,0.0,0.0,3.9975,3.9975,0.0,0.0,0.0,0.0,0.0,0.0,4.1981,4.1689,4.238,0.0,0.0,0.0,0.0,0.0,0.0,0.0,0.0,0.0,4.3598,4.3598,4.3598,4.4059,4.4721,4.5467,4.5748,4.6079,4.7487,4.7951,4.8001,4.8001,4.8001,4.8001,4.8001,4.8001,4.8001,4.8001,4.8001,4.8001,4.7968,4.7919,4.7704,4.6862,4.6534,4.608,4.5306,4.4388,4.3765,4.3765,4.2996,4.2392,4.2351,0.0,0.0,4.2092,0.0,0.0,0.0,0.0,0.0,4.2092,4.2092,4.2092,4.2092,4.2092,4.2092,4.2092,4.2092,4.2092,4.2092,4.2092,4.2092,4.2092,4.2092,4.2092,4.2092,4.2092,0.0,0.0,4.2092,4.2092,4.2092,4.2092,4.1279,4.0104,4.0104,3.9291,3.8202,0.0,0.0,0.0,0.0,0.0,0.0,3.9436,3.9692,4.001,4.0235,4.0562,4.0901,4.1088,4.1122,4.1256,0.0,0.0,0.0,0.0,0.0,0.0,0.0,0.0,0.0,0.0,0.0,3.9436,3.9436,3.9436,0.0,0.0,0.0,0.0,0.0,0.0,4.1558,4.1525,4.1819,0.0,0.0,0.0,0.0,0.0,0.0,0.0,0.0,0.0,0.0,4.3598,4.3598,4.4092,4.4821,4.5566,4.6096,4.6659,4.7703,4.8001,4.8001,4.8001,4.8001,4.8001,4.8001,4.8001,4.8001,4.8001,4.8001,4.8001,4.8001,4.8001,4.7886,4.7588,4.7067,4.6604,4.6256,4.5504,4.4759,4.4167,4.3741,4.3205,4.2514,4.231,0.0,0.0,0.0,0.0,0.0,0.0,0.0,4.2092,4.2092,4.2092,4.2092,4.2092,4.2092,4.2092,4.2092,4.2092,4.2092,4.2092,4.2092,4.2092,4.2092,4.2092,4.2092,4.2092,0.0,0.0,4.2092,4.2092,4.2049,4.1657,4.0916,4.006,3.9697,3.8986,3.8202,0.0,0.0,0.0,0.0,0.0,3.9394,3.8995,3.9256,3.9514,3.9657,4.0041,4.037,4.0543,4.0528,4.0631,4.0907,0.0,0.0,0.0,0.0,0.0,0.0,0.0,0.0,0.0,0.0,3.8723,3.8833,3.8833,3.8833,0.0,0.0,3.9713,3.9514,0.0,0.0,0.0,0.0,0.0,0.0,0.0,0.0,0.0,0.0,0.0,0.0,0.0,0.0,0.0,0.0,0.0,4.5102,4.5632,4.646,4.7322,4.7852,4.8001,4.8001,4.8001,4.8001,4.8001,4.8001,4.8001,4.8001,4.8001,4.8001,4.8001,4.8001,4.8001,4.8001,4.8001,4.7521,4.7152,4.7152,4.6515,4.5789,4.5095,4.4706,4.4136,4.3076,0.0,4.2688,0.0,0.0,0.0,0.0,0.0,0.0,0.0,4.2092,4.2092,4.2092,4.2092,4.2092,4.2092,4.2092,4.2092,4.2092,4.2092,4.2092,4.2092,4.2092,4.2092,4.2092,0.0,0.0,0.0,4.2092,4.1976,4.1758,4.1279,4.0583,3.9784,3.9363,3.8783,3.8202,0.0,0.0,0.0,0.0,0.0,0.0,3.8553,3.8516,3.8664,3.9068,3.9104,3.9343,3.9869,3.9889,3.9748,3.9356,0.0,0.0,0.0,0.0,0.0,0.0,0.0,0.0,0.0,0.0,3.7801,3.8202,3.8202,3.8202,3.8202,3.8441,3.8516,3.8553,0.0,0.0,0.0,0.0,0.0,0.0,0.0,0.0,0.0,0.0,0.0,0.0,0.0,0.0,0.0,0.0,0.0,0.0,0.0,4.6808,4.7984,4.8001,4.8001,4.8001,4.8001,4.8001,4.8001,4.8001,4.8001,4.8001,4.8001,4.8001,4.8001,4.8001,4.8001,4.8001,4.8001,4.8001,4.8001,4.8001,4.7303,4.6777,4.6777,4.5937,4.5026,0.0,0.0,4.3585,0.0,0.0,0.0,0.0,0.0,0.0,0.0,4.2092,4.2092,4.2092,4.2092,4.2092,4.2092,4.2092,4.2092,4.2092,4.2092,4.2092,4.2092,4.2092,4.2092,0.0,0.0,0.0,0.0,4.2092,4.17,4.1105,4.1091,4.0321,3.9218,3.9204,3.8783,3.8202,0.0,0.0,0.0,0.0,0.0,0.0,0.0,3.8478,3.8478,3.8501,3.8833,3.9162,3.9328,3.9364,3.9169,3.8789,0.0,0.0,0.0,0.0,0.0,0.0,0.0,0.0,0.0,0.0,3.7801,3.8202,3.8202,3.8202,3.8202,3.8277,3.8366,3.8516,3.9002,3.9184,0.0,0.0,0.0,0.0,0.0,0.0,0.0,0.0,0.0,0.0,0.0,0.0,0.0,0.0,0.0,0.0,0.0,0.0,0.0,4.7852,4.8001,4.8001,4.8001,4.8001,4.8001,4.8001,4.8001,4.8001,4.8001,4.8001,4.8001,4.8001,4.8001,4.8001,4.8001,4.8001,4.8001,4.8001,4.7787,4.7438,0.0,0.0,0.0,4.4358,4.3521,4.2996,0.0,0.0,0.0,0.0,0.0,0.0,0.0,4.2392,4.2242,4.2092,4.2092,4.2092,4.2092,4.2092,4.2092,4.2092,4.2092,4.2092,4.2092,4.2092,0.0,0.0,0.0,0.0,0.0,4.1599,4.1279,4.1004,4.0133,3.9567,3.9146,3.8696,3.8376,3.8202,0.0,0.0,0.0,0.0,0.0,0.0,0.0,3.8612,3.8501,3.824,3.8538,3.876,3.876,3.876,3.8612,3.8188,0.0,0.0,0.0,0.0,0.0,0.0,0.0,0.0,3.7123,3.7317,3.7572,3.7976,3.8127,3.8202,3.8202,3.8202,3.8277,3.8404,3.8686,3.887,0.0,0.0,0.0,0.0,0.0,0.0,4.3235,0.0,0.0,0.0,0.0,0.0,0.0,0.0,0.0,0.0,0.0,0.0,0.0,0.0,4.8001,4.8001,4.8001,4.8001,4.8001,4.8001,4.8001,4.8001,4.8001,4.8001,4.8001,4.8001,4.8001,4.8001,4.8001,4.8001,4.8001,4.8001,4.8001,4.782,0.0,0.0,0.0,4.5337,0.0,0.0,0.0,0.0,0.0,0.0,0.0,0.0,0.0,4.2581,4.2433,4.2201,4.2133,4.2092,4.2092,4.2092,4.1976,4.1715,4.1715,4.1584,4.1337,4.1337,0.0,0.0,0.0,0.0,0.0,4.1127,4.0781,4.0307,3.9509,3.9044,3.8768,3.8362,3.8202,3.8202,0.0,0.0,0.0,0.0,0.0,0.0,0.0,3.8782,3.8671,3.8277,3.8202,3.8202,3.8202,3.8202,3.8052,3.7663,0.0,0.0,0.0,0.0,0.0,0.0,0.0,0.0,3.6405,3.6797,3.7187,3.7625,3.8014,3.8202,3.8202,3.8202,3.8202,3.8202,3.8598,3.8819,3.887,0.0,0.0,0.0,4.0547,4.1409,0.0,0.0,0.0,0.0,0.0,0.0,0.0,0.0,0.0,0.0,0.0,0.0,0.0,0.0,0.0,0.0,0.0,4.8001,4.8001,4.8001,4.8001,4.8001,4.8001,4.8001,0.0,4.8001,4.8001,4.8001,4.8001,4.8001,4.8001,4.8001,4.8001,4.8001,0.0,4.7968,0.0,0.0,4.6147,0.0,0.0,0.0,0.0,0.0,0.0,0.0,0.0,4.2769,4.2622,4.2433,4.2242,4.2104,4.2061,4.2061,4.1727,4.1058,4.1058,4.0699,4.0104,4.0104,0.0,0.0,0.0,0.0,0.0,4.0799,4.0315,3.9304,3.9222,3.883,3.8277,3.8202,3.824,3.8277,0.0,0.0,0.0,0.0,0.0,0.0,0.0,0.0,0.0,0.0,3.8277,3.8202,3.8202,3.8202,3.8052,0.0,0.0,0.0,0.0,0.0,0.0,0.0,0.0,0.0,3.6405,3.6797,3.7187,3.7625,3.8014,3.8202,3.8202,3.8202,3.8202,3.8202,3.8598,3.898,3.9265,3.9337,0.0,0.0,4.1075,4.1787,0.0,0.0,0.0,0.0,4.3952,4.3969,0.0,0.0,0.0,0.0,0.0,0.0,0.0,0.0,4.7554,4.8001,4.8001,0.0,4.8001,4.8001,4.8001,4.8001,0.0,4.8001,4.8001,4.8001,4.8001,4.8001,4.8001,4.8001,4.8001,4.8001,4.8001,4.8001,4.8001,0.0,0.0,4.6811,0.0,0.0,0.0,0.0,0.0,0.0,0.0,0.0,0.0,4.3339,4.2915,4.2835,4.2648,4.2225,4.1595,4.1741,4.1389,4.0573,4.0573,4.0421,4.0104,4.0104,0.0,0.0,0.0,0.0,4.1393,4.1046,4.076,4.0417,3.9483,3.9018,3.8833,3.8352,3.8501,3.8885,0.0,0.0,0.0,0.0,0.0,0.0,0.0,0.0,0.0,0.0,0.0,0.0,0.0,0.0,0.0,0.0,0.0,0.0,0.0,0.0,0.0,0.0,0.0,3.5804,3.6058,3.6665,3.7109,3.7303,3.7901,3.8202,3.8202,3.8202,3.8202,3.8202,3.8598,3.898,3.9265,3.9337,3.9625,4.0056,4.0771,0.0,0.0,0.0,0.0,0.0,4.4051,4.4085,0.0,4.4126,4.4155,4.4202,0.0,0.0,0.0,0.0,4.7614,4.8212,4.8115,4.8066,4.8001,4.8001,4.8001,4.8001,4.8001,4.8001,4.8001,4.8001,4.8001,4.8001,4.8001,4.8001,4.8001,4.8001,4.8001,0.0,0.0,0.0,4.7337,4.7337,0.0,0.0,0.0,0.0,0.0,0.0,0.0,0.0,0.0,4.4167,4.3639,4.356,4.2912,4.2243,4.1546,4.1651,4.1165,4.0109,4.0032,3.9755,3.9348,3.9271,3.9624,0.0,0.0,0.0,4.1153,4.1085,4.0841,4.0385,3.9715,3.9343,3.909,3.8987,3.9038,3.9141,0.0,0.0,0.0,0.0,0.0,0.0,0.0,0.0,0.0,0.0,0.0,0.0,0.0,0.0,0.0,0.0,0.0,0.0,0.0,0.0,0.0,0.0,3.571,3.571,3.571,3.6547,3.6978,3.6978,3.7825,3.8202,3.8202,3.8202,3.8202,3.824,3.8634,3.8907,3.9104,3.9301,3.9388,3.9445,4.0216,0.0,0.0,0.0,0.0,0.0,0.0,0.0,0.0,4.4253,4.427,4.4272,4.488,0.0,0.0,0.0,0.0,0.0,4.8258,4.8179,4.8049,4.8001,4.8001,4.8001,4.8001,4.8001,4.8001,4.8001,4.8001,4.8001,4.8001,4.8001,4.8001,4.8001,0.0,0.0,4.8001,4.8001,4.8001,4.8001,0.0,0.0,0.0,0.0,0.0,0.0,0.0,0.0,0.0,4.5095,4.4586,4.4434,4.3213,4.2374,4.1984,4.1661,4.0908,3.9689,3.9524,3.9178,3.8723,3.8523,3.8994,0.0,0.0,0.0,4.0792,4.1294,4.1026,4.0293,4.0224,3.9905,3.9544,3.9869,3.9743,3.9472,0.0,0.0,0.0,0.0,0.0,0.0,0.0,0.0,0.0,0.0,0.0,0.0,0.0,0.0,0.0,0.0,0.0,0.0,0.0,0.0,0.0,3.571,3.571,3.571,3.571,3.6547,3.6978,3.6978,3.7825,3.8202,3.8202,3.8202,3.8277,3.8478,3.8686,3.8907,3.9104,3.9301,3.9388,3.9445,4.0216,0.0,0.0,0.0,0.0,0.0,0.0,0.0,0.0,4.4457,4.4542,4.4502,4.4444,0.0,0.0,0.0,0.0,0.0,4.8284,4.8452,4.8373,4.8066,4.8001,4.8001,4.8001,4.8001,4.8001,4.8001,4.8001,4.8001,4.8001,4.8001,4.8001,4.8001,0.0,4.8001,0.0,0.0,4.8001,0.0,0.0,0.0,0.0,0.0,0.0,0.0,0.0,0.0,0.0,4.5933,4.5515,4.5478,4.4087,4.3328,4.3314,4.1529,4.0122,3.9216,3.918,3.9361,3.9692,3.9642,4.0293,0.0,0.0,4.1852,4.2285,4.2349,4.2317,4.2142,4.1689,4.1459,4.1278,4.0603,4.0603,4.094,0.0,0.0,0.0,0.0,0.0,0.0,0.0,0.0,0.0,0.0,0.0,0.0,0.0,0.0,0.0,0.0,0.0,0.0,0.0,0.0,3.571,3.571,3.571,3.571,3.571,3.6547,3.6978,3.6978,3.7825,3.8202,3.8202,3.8202,3.824,3.8366,3.8538,3.876,3.8943,3.9141,3.9301,3.9445,0.0,0.0,0.0,0.0,0.0,0.0,0.0,0.0,0.0,0.0,4.4615,4.457,4.4367,0.0,0.0,0.0,0.0,0.0,4.8474,4.8658,4.8595,4.834,4.8179,4.8115,4.8115,4.8066,4.8001,4.8001,4.8001,4.8001,4.8001,4.8001,4.8001,4.8001,0.0,4.8001,4.8001,0.0,0.0,0.0,0.0,0.0,0.0,0.0,0.0,0.0,0.0,0.0,0.0,0.0,4.6288,4.6288,4.4496,4.3592,4.3611,4.1868,4.0805,4.0413,4.0293,4.0347,4.0588,4.0504,4.1046,4.2078,0.0,4.238,4.2881,4.2881,4.2772,4.2585,4.2333,4.2077,4.1754,4.1311,4.1393,4.1721,0.0,0.0,0.0,0.0,0.0,0.0,0.0,0.0,0.0,0.0,0.0,0.0,0.0,0.0,0.0,0.0,0.0,0.0,0.0,3.6284,3.5804,3.571,3.5804,3.5804,3.571,3.6547,3.6978,3.6978,3.7825,3.8202,3.8202,3.8202,3.8202,3.8202,3.8404,3.8612,3.8819,3.9017,3.9228,3.9445,0.0,0.0,0.0,0.0,0.0,0.0,0.0,0.0,0.0,0.0,0.0,0.0,0.0,0.0,0.0,4.6149,4.695,4.7787,4.8408,4.8714,4.8801,4.8658,4.842,4.8195,4.8195,4.8082,4.8001,4.8001,4.8001,4.8001,4.8001,4.8001,4.8001,4.8001,4.8001,4.8001,4.8001,0.0,0.0,0.0,0.0,0.0,0.0,0.0,0.0,0.0,0.0,0.0,0.0,0.0,4.7084,4.7084,4.4996,4.3954,4.4124,4.2553,4.1656,4.1492,4.1329,4.1346,4.1511,4.1363,4.1772,4.26,4.26,4.2834,4.3204,4.3204,4.3082,4.2851,4.2836,4.2539,4.2094,4.2094,4.2142,4.2254,0.0,0.0,0.0,0.0,0.0,0.0,0.0,0.0,0.0,0.0,0.0,0.0,0.0,0.0,0.0,0.0,0.0,0.0,0.0,0.0,3.6152,3.571,3.6098,3.6152,3.571,3.6547,3.6978,3.6978,3.7825,3.8202,3.8202,3.8202,3.8202,3.8202,3.8404,3.8612,3.8819,3.9017,3.9228,3.9409,3.9445,0.0,0.0,0.0,0.0,0.0,0.0,0.0,0.0,0.0,0.0,0.0,0.0,0.0,4.4807,4.5568,4.6295,4.7039,4.777,4.8463,4.897,4.897,4.8578,4.8195,4.8195,4.8082,4.8001,4.8001,4.8001,4.8001,4.8001,4.8001,4.8001,4.8001,4.8001,4.8001,0.0,0.0,0.0,0.0,0.0,0.0,0.0,0.0,0.0,0.0,0.0,0.0,0.0,0.0,0.0,4.7886,4.5832,4.5,4.5656,4.3551,4.219,4.1492,4.1492,4.1852,4.2506,4.2475,4.2834,4.3492,4.3492,4.3539,4.3552,4.3552,4.3568,4.3539,4.3539,4.3295,4.3005,4.3005,4.282,4.2554,0.0,0.0,0.0,0.0,0.0,0.0,0.0,0.0,0.0,0.0,0.0,0.0,0.0,0.0,0.0,0.0,0.0,0.0,0.0,3.7007,3.6575,3.6138,3.6312,3.6192,3.571,3.6547,3.6978,3.6978,3.7825,3.8202,3.8202,3.8202,3.8202,3.8202,3.8277,3.8441,3.8612,3.8833,3.9017,3.9228,3.9337,3.997,0.0,0.0,0.0,0.0,0.0,0.0,0.0,0.0,4.4184,4.4196,4.4367,4.4412,4.4592,4.5454,4.5906,4.638,4.7597,4.8091,4.8443,4.89,4.8784,4.8564,4.8564,4.8436,4.8276,4.8147,4.8115,4.8115,4.8001,4.8001,4.8001,4.8001,4.8001,4.8001,0.0,0.0,0.0,0.0,0.0,0.0,0.0,0.0,0.0,0.0,0.0,0.0,0.0,0.0,0.0,4.8001,4.6336,4.553,4.5798,4.4097,4.3066,4.2803,4.2803,4.2943,4.3235,4.3235,4.3372,4.3598,4.3598,4.3598,4.3598,4.3598,4.3598,4.3598,4.3598,4.3522,4.3402,4.3402,4.3204,4.2943,0.0,0.0,0.0,0.0,0.0,0.0,0.0,0.0,0.0,0.0,0.0,0.0,0.0,0.0,0.0,0.0,0.0,0.0,3.8171,3.7923,3.7608,3.7198,3.7158,3.7024,3.6714,3.7276,3.7372,3.6978,3.7825,3.8202,3.8202,3.8202,3.8202,3.8202,3.8202,3.8315,3.8516,3.8708,3.8907,3.9104,3.9301,3.9844,0.0,0.0,0.0,0.0,0.0,0.0,0.0,0.0,4.4027,4.4056,4.4196,4.4281,4.4411,4.5007,4.5431,4.5945,4.7119,4.7673,4.8075,4.8832,4.8925,4.8863,4.8863,4.8658,4.8452,4.8324,4.8227,4.8163,4.8033,4.8001,0.0,0.0,4.8001,0.0,0.0,0.0,0.0,0.0,0.0,0.0,0.0,0.0,0.0,0.0,0.0,0.0,0.0,0.0,0.0,0.0,4.6792,4.603,4.5798,4.4572,4.3813,4.3598,4.3598,4.3598,4.3598,4.3598,4.3598,4.3598,4.3598,4.3598,4.3598,4.3598,4.3598,4.3598,4.3598,4.3598,4.3598,4.3598,4.3462,4.3295,0.0,0.0,0.0,0.0,0.0,0.0,0.0,0.0,0.0,0.0,0.0,0.0,0.0,0.0,0.0,0.0,0.0,0.0,3.9441,3.9522,3.9321,3.8941,3.886,3.8819,3.8901,3.886,3.8215,3.7046,3.7839,3.8217,3.8217,3.8217,3.8217,3.8202,3.8202,3.8315,3.8516,3.8708,3.8907,3.9104,3.9301,3.9844,4.0478,0.0,0.0,0.0,0.0,0.0,0.0,0.0,4.3898,4.3927,4.4056,4.4196,4.4281,4.4155,4.4865,4.5781,4.6342,4.716,4.8058,4.8815,4.9001,4.9001,4.9001,4.8736,4.8515,4.8515,4.8356,4.8163,4.8033,4.8001,0.0,4.8001,0.0,0.0,0.0,0.0,0.0,0.0,0.0,0.0,0.0,0.0,0.0,0.0,0.0,0.0,0.0,0.0,0.0,0.0,4.7272,4.6543,4.5798,4.5052,4.4324,4.3598,4.3598,4.3598,4.3598,4.3598,4.3598,4.3598,4.3598,4.3598,4.3598,4.3598,4.3598,4.3598,4.3598,4.3598,4.3598,4.3598,4.3598,4.3598,0.0,0.0,0.0,0.0,0.0,0.0,0.0,0.0,0.0,0.0,0.0,0.0,0.0,0.0,0.0,0.0,0.0,0.0,3.9866,3.9906,3.9747,3.9361,3.8982,3.8819,3.8901,3.9145,3.9256,3.9186,3.9421,3.932,3.8899,3.8899,3.8652,3.8202,3.8202,3.824,3.8315,3.8634,3.8819,3.8907,3.9265,3.9517,3.9717,0.0,0.0,0.0,0.0,0.0,0.0,0.0,0.0,0.0,4.3881,4.3969,4.4027,4.4068,4.4322,4.4862,4.6148,4.6696,4.7245,4.8649,4.9001,4.9001,4.9001,4.894,4.8815,4.8738,4.8564,4.8388,4.8356,4.8244,0.0,0.0,0.0,0.0,0.0,0.0,0.0,0.0,0.0,0.0,0.0,0.0,0.0,0.0,0.0,0.0,0.0,0.0,0.0,0.0,4.7272,4.6543,4.5798,4.5052,4.4324,4.3598,4.3598,4.3598,4.3598,4.3598,4.3598,4.3598,4.3598,4.3598,4.3598,4.3598,4.3598,4.3598,4.3598,4.3598,4.3598,4.3598,4.3598,4.3598,0.0,0.0,0.0,0.0,0.0,0.0,0.0,0.0,0.0,0.0,3.7762,3.7652,0.0,0.0,0.0,0.0,0.0,0.0,0.0,4.0304,4.0277,4.0239,3.9992,3.9854,3.991,4.032,4.066,4.0887,4.035,3.99,3.9567,3.9567,3.9218,3.8609,3.8609,3.8449,3.8202,3.8538,3.8686,3.8723,3.9104,3.9265,3.9301,0.0,0.0,0.0,0.0,0.0,0.0,0.0,0.0,0.0,4.3734,4.3839,4.3898,4.3894,4.3981,4.4444,4.6008,4.6455,4.6898,4.8506,4.894,4.9001,4.9001,4.9001,4.894,4.8832,4.8707,4.8578,4.8515,4.8388,0.0,0.0,0.0,0.0,0.0,0.0,0.0,0.0,0.0,0.0,0.0,0.0,0.0,0.0,0.0,0.0,0.0,0.0,0.0,0.0,4.757,4.6841,4.5798,4.5351,4.4622,4.3598,4.3598,4.3598,4.3598,4.3598,4.3598,4.3598,4.3598,4.3598,4.3598,4.3598,4.3598,4.3598,4.3598,4.3598,4.3598,4.3598,4.3598,4.3598,0.0,0.0,0.0,0.0,0.0,0.0,0.0,0.0,0.0,0.0,3.79,3.7808,0.0,0.0,0.0,0.0,0.0,0.0,0.0,0.0,4.0802,4.1297,4.1396,4.1438,4.1396,4.187,4.2092,4.2092,4.0873,4.0249,4.0191,4.0191,3.9871,3.9276,3.9218,3.887,3.8289,3.8433,3.8478,3.8516,3.8922,3.9068,3.9104,3.9301,0.0,0.0,0.0,0.0,0.0,0.0,0.0,0.0,4.3598,4.3734,4.3839,4.3658,4.3835,4.4386,4.5775,4.6314,4.6821,4.8346,4.892,4.9107,4.9168,4.9152,4.9077,4.8863,4.8801,4.8769,4.8578,4.8547,4.8452,0.0,0.0,0.0,0.0,0.0,0.0,0.0,0.0,0.0,0.0,0.0,0.0,0.0,0.0,0.0,0.0,0.0,0.0,4.8001,4.8001,4.7289,4.5798,4.5798,4.5069,0.0,4.3598,4.3598,4.3598,4.3598,4.3598,4.3598,4.3598,4.3598,4.3598,4.3598,4.3598,4.3598,4.3598,4.3598,4.3598,4.3598,4.3598,4.3598,0.0,0.0,0.0,0.0,0.0,0.0,0.0,0.0,0.0,0.0,0.0,0.0,0.0,0.0,0.0,0.0,0.0,0.0,0.0,0.0,4.0646,4.0788,4.1549,4.1787,4.1396,4.187,4.2092,4.2092,4.1802,4.1395,4.0887,4.0887,4.0525,3.9886,3.9407,3.9117,3.8957,3.8623,3.8478,3.8516,3.876,3.8943,3.9104,3.9141,3.9265,0.0,0.0,0.0,0.0,0.0,0.0,0.0,4.3598,4.3628,4.3674,4.3628,4.3658,4.3946,4.4977,4.5704,4.6525,4.7915,4.9152,5.0067,5.0304,5.0342,5.0079,4.9168,4.8956,4.894,4.8909,4.8832,0.0,0.0,0.0,0.0,0.0,0.0,0.0,0.0,0.0,0.0,0.0,0.0,0.0,0.0,0.0,0.0,0.0,0.0,0.0,4.8001,4.8001,4.7289,4.5798,4.5798,4.5069,0.0,4.3598,4.3598,4.3598,4.3598,4.3598,4.3598,4.3598,4.3598,4.3598,4.3598,4.3598,4.3598,4.3598,4.3598,4.3598,4.3598,4.3598,4.3598,0.0,0.0,0.0,0.0,0.0,0.0,0.0,0.0,0.0,0.0,0.0,0.0,0.0,0.0,0.0,0.0,0.0,0.0,0.0,0.0,4.0346,4.1296,4.1606,4.1745,4.1745,4.1968,4.2092,4.2092,4.2092,4.1918,4.157,4.157,4.1221,4.0568,4.0249,3.977,3.9175,3.8955,3.8417,3.781,3.8412,3.8486,3.8271,3.887,3.9177,3.9265,3.9373,0.0,0.0,0.0,0.0,0.0,0.0,0.0,4.3598,4.3598,4.3598,4.3807,4.4734,4.5543,4.6514,4.8196,4.9406,5.0265,5.047,5.0616,5.0535,4.9925,4.9627,4.9333,4.9063,0.0,0.0,0.0,0.0,0.0,0.0,0.0,0.0,0.0,0.0,0.0,0.0,0.0,0.0,0.0,0.0,0.0,0.0,4.8001,4.8001,4.8001,4.8001,4.7289,4.5798,4.5798,4.5069,4.3598,4.3598,4.3598,4.3598,4.3598,4.3598,4.3598,4.3598,4.3598,4.3598,4.3598,4.3598,4.3598,4.3598,4.3598,4.3598,4.3598,4.3598,4.3598,0.0,0.0,0.0,0.0,0.0,0.0,0.0,0.0,0.0,0.0,0.0,0.0,0.0,0.0,0.0,0.0,0.0,0.0,0.0,0.0,0.0,4.1773,4.1647,4.1704,4.2092,4.2092,4.2092,4.2092,4.2092,4.2092,4.2092,4.2092,4.1802,4.1265,4.1149,4.0372,3.9155,3.9039,3.8075,3.6766,3.781,3.782,3.7357,3.8583,3.9068,3.9141,3.9337,3.9879,4.0581,4.1127,0.0,0.0,0.0,0.0,4.3598,4.3598,4.3598,4.3761,4.4554,4.5427,4.6672,4.8774,4.9768,5.031,5.0542,5.0822,5.0964,5.0885,5.0349,4.9762,4.926,0.0,0.0,0.0,0.0,0.0,0.0,0.0,0.0,0.0,0.0,0.0,0.0,0.0,0.0,0.0,0.0,0.0,4.8001,4.8001,4.8001,4.8001,4.8001,4.7289,4.5798,4.5798,4.5069,4.3598,4.3598,4.3598,4.3598,4.3598,4.3598,4.3598,4.3598,4.3598,4.3598,4.3598,4.3598,4.3598,4.3598,4.3598,4.3598,4.3598,4.3598,4.3598,0.0,0.0,0.0,0.0,0.0,0.0,0.0,0.0,0.0,0.0,3.79,3.79,0.0,0.0,0.0,0.0,0.0,0.0,0.0,0.0,0.0,4.0731,4.1577,4.2051,4.2092,4.2092,4.2092,4.2092,4.2092,4.2092,4.2092,4.2092,4.2049,4.1932,4.1352,4.0308,3.8908,3.8342,3.7193,3.5869,3.6766,3.7155,3.7319,3.842,3.8943,3.9141,3.9337,3.9879,4.0512,4.0615,4.1492,0.0,0.0,0.0,4.3598,4.3598,4.3598,4.3615,4.3744,4.51,4.6967,4.9181,5.0258,5.0982,5.1687,5.2066,5.2096,0.0,5.0642,4.989,0.0,0.0,0.0,0.0,0.0,0.0,0.0,0.0,0.0,0.0,0.0,0.0,0.0,0.0,0.0,0.0,0.0,0.0,4.8001,4.8001,4.8001,4.8001,4.8001,4.7289,4.5798,4.5798,4.5069,4.3598,4.3598,4.3598,4.3598,4.3598,4.3598,4.3598,4.3598,4.3598,4.3598,4.3598,4.3598,4.3598,4.3598,4.3598,4.3598,4.3598,4.3598,4.3598,0.0,0.0,0.0,0.0,0.0,0.0,0.0,0.0,0.0,0.0,0.0,3.79,0.0,0.0,0.0,3.7108,0.0,0.0,0.0,0.0,0.0,4.0589,4.1577,4.2092,4.2092,4.2092,4.2092,4.2092,4.2092,4.2092,4.2092,4.2092,4.2092,4.2092,4.1787,4.1076,4.0048,3.8948,3.7575,3.6144,3.6166,3.6227,3.645,3.7639,3.8435,3.898,3.9301,3.9625,3.995,4.0339,4.0907,4.1558,4.2349,0.0,0.0,0.0,4.3598,4.378,4.4622,4.5634,4.6937,4.874,4.9936,5.0796,5.1304,5.1878,5.2228,5.2138,5.1424,5.0733,0.0,0.0,0.0,0.0,0.0,0.0,0.0,0.0,0.0,0.0,0.0,0.0,0.0,0.0,0.0,0.0,0.0,4.8001,4.8001,4.8001,4.8001,4.8001,4.8001,4.7289,4.5798,4.5798,4.5069,4.3598,4.3598,4.3598,4.3598,4.3598,4.3598,4.3598,4.3598,4.3598,4.3598,4.3598,4.3598,4.3598,4.3598,4.3598,4.3598,4.3598,4.3598,4.3598,0.0,0.0,0.0,0.0,0.0,0.0,0.0,0.0,0.0,0.0,0.0,0.0,0.0,0.0,0.0,0.0,3.6862,0.0,0.0,0.0,0.0,4.0246,4.1451,4.2092,4.2092,4.2092,4.2092,4.2092,4.2092,4.2092,4.2092,4.2092,4.2092,4.2092,4.2092,4.1454,4.0326,3.9226,3.7661,3.5887,3.5626,3.5399,3.548,3.6933,3.8005,3.8795,3.943,3.9768,3.9961,4.036,4.06,4.09,4.1785,4.2317,0.0,0.0,0.0,4.3913,4.54,4.6043,4.6713,4.838,4.9605,5.0497,5.0796,5.1569,5.2246,0.0,5.209,0.0,0.0,0.0,0.0,0.0,0.0,0.0,0.0,0.0,0.0,0.0,0.0,0.0,0.0,0.0,0.0,0.0,0.0,4.8001,4.8001,4.8001,4.8001,4.8001,4.8001,4.7289,4.5798,4.5433,4.4705,4.3598,4.3598,4.3598,4.3598,4.3598,4.3598,4.3598,4.3598,4.3598,4.3598,4.3598,4.3598,4.3598,4.3598,4.3598,4.3598,4.3598,4.3598,4.3598,0.0,0.0,0.0,0.0,0.0,0.0,0.0,0.0,0.0,0.0,0.0,0.0,3.79,3.7657,3.74,3.7108,3.6862,3.6628,3.6499,3.8225,0.0,3.9285,4.11,0.0,4.2092,4.2092,4.2092,4.2092,4.2092,4.2092,4.2092,4.2092,4.2092,4.2092,4.2092,4.0745,3.853,3.846,3.672,3.4104,3.4882,3.4939,3.4662,3.6738,3.792,3.8683,3.9898,4.0756,4.1212,4.0598,4.084,4.1278,4.0766,4.1525,4.2617,0.0,0.0,0.0,4.54,4.5829,4.6348,4.8475,4.9605,5.0324,5.0731,5.168,5.241,5.2174,5.2293,0.0,0.0,0.0,0.0,0.0,0.0,0.0,0.0,0.0,0.0,0.0,0.0,0.0,0.0,0.0,0.0,0.0,0.0,4.8001,4.8001,4.8001,4.8001,4.8001,4.8001,4.7289,4.5798,4.4423,4.3664,4.3598,4.3598,4.3598,4.3598,4.3598,4.3598,4.3598,4.3598,4.3598,4.3598,4.3598,4.3598,4.3598,4.3598,4.3598,4.3598,4.3598,4.3598,4.3598,0.0,0.0,0.0,0.0,0.0,0.0,0.0,0.0,0.0,0.0,0.0,0.0,0.0,3.8316,3.8033,3.7392,3.6956,3.6628,3.6405,3.8147,0.0,3.921,4.1057,4.2092,4.2092,4.2092,4.2092,4.2092,4.2092,4.2092,4.2092,4.2092,4.2092,4.2092,4.2092,4.1239,3.9769,3.8781,3.7434,3.5832,3.5162,3.51,3.5542,3.6573,3.7851,3.9118,3.9867,4.0675,4.1339,4.1115,4.1197,4.1379,4.1132,4.1426,4.1944,4.2446,4.3066,4.3813,4.4821,4.5433,4.6092,4.7341,4.8456,4.944,5.023,5.0955,5.1651,5.2228,5.241,0.0,0.0,0.0,0.0,0.0,0.0,0.0,0.0,0.0,0.0,0.0,0.0,0.0,0.0,0.0,0.0,0.0,0.0,0.0,4.8001,4.8001,4.8001,4.8001,4.8001,4.7289,4.5798,4.4357,4.3598,4.3598,4.3598,4.3598,4.3598,4.3598,4.3598,4.3598,4.3598,4.3598,4.3598,4.3598,4.3598,4.3598,4.3598,4.3598,4.3598,4.3598,4.3598,4.3598,0.0,0.0,0.0,0.0,0.0,0.0,0.0,0.0,3.9819,3.9725,0.0,0.0,0.0,0.0,3.8395,3.7557,3.7015,3.6815,3.7002,3.8373,3.9329,3.9637,4.1226,4.2092,4.2092,4.2092,4.2092,4.2092,4.2092,4.2092,4.2092,4.2092,4.2092,4.2092,4.2092,4.1535,4.0532,3.9212,3.8037,3.6875,3.5537,3.527,3.582,3.6751,3.8033,3.9453,4.0444,4.134,4.1998,4.1788,4.1752,4.1708,4.1453,4.1418,4.162,4.2623,4.3092,4.349,4.4429,4.5235,4.5995,4.6789,4.7914,4.8992,4.9646,5.0314,5.1008,5.1793,5.2096,0.0,0.0,0.0,0.0,0.0,0.0,0.0,0.0,0.0,0.0,0.0,0.0,0.0,0.0,0.0,0.0,0.0,0.0,0.0,4.8001,4.8001,4.8001,4.8001,4.752,4.6792,4.5798,4.4357,4.3598,4.3598,4.3598,4.3598,4.3598,4.3598,4.3598,4.3598,4.3598,4.3598,4.3598,4.3598,4.3598,4.3598,4.3598,4.3598,4.3598,4.3598,4.3598,4.3598,0.0,0.0,0.0,0.0,0.0,0.0,0.0,0.0,3.9435,3.919,0.0,0.0,0.0,0.0,0.0,3.7583,3.7041,3.7155,3.8122,3.8823,3.9637,4.0504,0.0,0.0,4.2092,4.2092,4.2092,4.2092,4.2092,4.2092,4.2092,4.2092,4.2092,4.2092,4.2092,4.1577,4.0589,3.9593,3.8354,3.694,3.5923,3.5344,3.5347,3.7248,3.8574,3.9704,4.1636,4.2751,4.32,4.2635,4.2425,4.2306,4.1647,4.141,4.1709,4.315,4.3105,4.292,0.0,0.0,0.0,4.6964,4.8147,4.9053,4.9015,0.0,5.0525,5.0832,0.0,0.0,0.0,0.0,0.0,0.0,0.0,0.0,0.0,0.0,0.0,0.0,0.0,0.0,0.0,0.0,0.0,0.0,0.0,4.8001,4.8001,4.8001,4.8001,4.8001,4.656,4.5798,4.5798,4.4357,4.3598,4.3598,4.3598,4.3598,4.3598,4.3598,4.3598,4.3598,4.3598,4.3598,4.3598,4.3598,4.3598,4.3598,4.3598,4.3598,4.3598,4.3598,4.3598,4.3598,0.0,0.0,0.0,0.0,0.0,4.0489,4.0902,4.0635,4.0314,0.0,0.0,0.0,3.9596,3.9446,3.9033,3.8212,3.8019,3.7779,3.7413,3.8702,3.959,3.9853,4.1283,4.2092,4.2092,4.2092,4.2092,4.2092,4.2092,4.2092,4.2092,4.2092,4.2092,4.2092,4.2092,4.1953,4.1577,3.9927,3.8582,3.7482,3.654,3.6184,3.6358,3.7053,3.8451,4.0095,4.0843,4.2036,4.326,4.3135,4.306,4.2955,4.2336,4.2122,4.2186,4.2614,4.3024,4.3492,4.4382,0.0,0.0,0.0,0.0,0.0,0.0,0.0,4.9658,5.0279,0.0,0.0,0.0,0.0,0.0,0.0,0.0,0.0,0.0,0.0,0.0,0.0,0.0,0.0,0.0,0.0,0.0,0.0,4.826,4.813,4.813,4.8049,4.8001,4.8001,4.656,4.5798,4.5798,4.4357,4.3598,4.3598,4.3598,4.3598,4.3598,4.3598,4.3598,4.3598,4.3598,4.3598,4.3598,4.3598,4.3598,4.3598,4.3598,4.3598,4.3598,4.3598,4.3598,4.3598,0.0,0.0,0.0,0.0,0.0,4.0703,4.1069,4.074,4.0426,0.0,0.0,0.0,3.9902,3.9926,3.9564,3.86,3.8441,3.8415,3.844,3.9224,4.0027,4.0731,4.1717,4.2175,4.2092,4.2092,4.2092,4.2092,4.2092,4.2092,4.2092,4.2092,4.2092,4.2092,4.2092,4.2092,4.2009,4.0446,3.9461,3.8854,3.7533,3.7394,3.7997,3.775,3.9064,4.0958,4.1113,4.2099,4.329,4.329,4.329,4.323,4.2895,4.259,4.2445,4.2726,4.2938,4.3311,4.4347,4.5163,4.5929,4.6711,0.0,0.0,4.856,4.87,4.8914,0.0,0.0,0.0,0.0,0.0,0.0,0.0,0.0,0.0,0.0,0.0,0.0,0.0,0.0,0.0,0.0,0.0,0.0,4.8627,4.842,4.8292,4.8195,4.8082,4.8001,4.8001,4.656,4.5798,4.5798,4.4357,4.3598,4.3598,4.3598,4.3598,4.3598,4.3598,4.3598,4.3598,4.3598,4.3598,4.3598,4.3598,4.3598,4.3598,4.3598,4.3598,4.3598,4.3598,4.3598,4.3598,0.0,0.0,4.1381,4.191,4.1517,4.1123,4.1123,4.0648,4.0177,0.0,3.9836,3.982,3.991,4.0263,4.0004,3.8985,3.8665,3.9005,4.0223,4.0085,4.066,4.2254,4.2351,4.2325,4.2133,4.2092,4.2092,4.2092,4.2092,4.2092,4.2092,4.2092,4.2092,4.2092,4.2092,4.2092,4.2051,4.1156,4.0788,4.0603,3.872,3.8765,3.9812,3.8975,4.0073,4.199,4.199,4.2578,4.329,4.329,4.329,0.0,4.329,4.294,4.2617,4.3205,4.2978,4.2819,4.4216,4.5071,4.5793,4.6667,4.7374,0.0,4.7968,4.8082,4.8339,0.0,0.0,0.0,0.0,0.0,0.0,0.0,0.0,0.0,0.0,0.0,0.0,0.0,0.0,0.0,0.0,4.8894,4.8801,4.8801,4.8627,4.842,4.8195,4.8082,4.8001,4.8001,4.656,4.5798,4.5798,4.4357,4.3598,4.3598,4.3598,4.3598,4.3598,4.3598,4.3598,4.3598,4.3598,4.3598,4.3598,4.3598,4.3598,4.3598,4.3598,4.3598,4.3598,4.3598,4.3598,4.3598,0.0,4.191,4.1869,4.1978,4.1517,4.1123,4.1123,4.1015,4.0711,4.0209,3.9914,3.9913,4.0173,4.0531,4.0539,4.0109,3.9642,3.9593,4.0101,4.0173,4.0731,4.1785,4.2213,4.2392,4.2366,4.2175,4.2092,4.2092,4.2092,4.2092,4.2092,4.2092,4.2092,4.2092,4.2092,4.2092,4.2092,4.1912,4.1814,4.1675,3.9885,3.9434,3.9899,3.9871,4.0746,4.199,4.199,4.2578,4.329,4.329,4.329,4.329,0.0,0.0,0.0,4.3277,0.0,0.0,0.0,0.0,0.0,0.0,0.0,0.0,4.7853,4.8033,4.8049,0.0,0.0,0.0,0.0,0.0,0.0,0.0,0.0,0.0,0.0,0.0,0.0,0.0,0.0,0.0,0.0,4.8987,4.894,4.894,4.8673,4.842,4.8195,4.8082,4.8001,4.8001,4.656,4.5798,4.5798,4.4357,4.3598,4.3598,4.3598,4.3598,4.3598,4.3598,4.3598,4.3598,4.3598,4.3598,4.3598,4.3598,4.3598,4.3598,4.3598,4.3598,4.3598,4.3598,4.3598,4.3598,4.2263,4.2209,4.2005,4.2005,4.1517,4.1123,4.1123,4.1123,4.1001,4.0689,4.0674,4.077,4.0924,4.1582,4.1845,4.1379,4.145,4.1484,4.1557,4.1596,4.1864,4.2307,4.2566,4.2648,4.2541,4.2351,4.2242,4.2242,4.2133,4.2092,4.2092,4.2092,4.2092,4.2092,4.2092,4.2092,4.2092,4.2092,4.2175,4.2104,4.0788,4.0689,4.1212,4.0476,4.1211,4.2578,4.2155,4.2578,4.329,4.329,4.329,0.0,4.329,4.329,4.329,0.0,4.3311,4.3525,0.0,0.0,0.0,4.5961,0.0,0.0,0.0,4.7404,4.7521,4.7935,4.8179,4.8388,4.8483,0.0,0.0,0.0,0.0,0.0,0.0,0.0,0.0,0.0,0.0,0.0,0.0,4.9001,4.9001,4.9001,4.8784,4.8564,4.8356,4.8179,4.8049,4.8001,4.656,4.5798,4.5798,4.4357,4.3598,4.3598,4.3598,4.3598,4.3598,4.3598,4.3598,4.3598,4.3704,4.3763,4.3763,4.3805,4.3864,4.3835,4.3658,4.3598,4.3598,4.3598,4.3658,4.3763,4.2656,4.2507,4.2168,4.2168,4.1774,4.1462,4.1462,4.1462,4.1408,4.1313,4.1396,4.1605,4.1829,4.2644,4.3066,4.2761,4.3086,4.3302,4.3355,4.3005,4.2919,4.3229,4.3095,4.2915,4.2769,4.2541,4.2433,4.2392,4.2242,4.2133,4.2092,4.2092,4.2092,4.2092,4.2092,4.2092,4.2092,4.2092,4.2216,4.2351,4.1604,4.1881,4.2633,4.1295,4.185,4.321,4.2496,4.2699,4.329,4.329,4.329,4.329,4.329,4.329,0.0,0.0,0.0,0.0,0.0,0.0,0.0,0.0,0.0,4.566,0.0,0.0,0.0,4.7638,4.8,4.826,4.842,0.0,0.0,0.0,0.0,0.0,0.0,0.0,0.0,0.0,0.0,0.0,0.0,4.9001,4.9001,4.9001,4.8863,4.8707,4.8515,4.8324,4.8147,4.8001,4.656,4.5798,4.5798,4.4357,4.3598,4.3598,4.3598,4.3598,4.3598,4.3598,4.3628,4.3658,4.3822,4.3927,4.3956,4.4056,4.4097,4.4068,4.3776,4.3658,4.3687,4.3658,4.3793,4.3956,4.2656,4.2833,4.2792,4.2792,4.2724,4.2697,4.2697,4.2697,4.2493,4.1978,4.1456,4.1567,4.2703,4.2953,4.3361,4.4255,4.3446,4.335,4.4501,4.3036,4.2737,4.4101,4.3428,4.2981,4.2996,4.2769,4.2581,4.2392,4.2392,4.2284,4.2092,4.2092,4.2092,4.2092,4.2092,4.2092,4.2092,4.2092,4.2216,4.2392,4.2485,4.2673,0.0,4.2941,4.3076,4.329,4.321,4.321,4.329,0.0,4.329,4.329,0.0,4.329,4.329,4.329,0.0,0.0,0.0,0.0,0.0,0.0,4.4624,0.0,0.0,0.0,4.6828,4.6931,0.0,4.8195,4.8227,0.0,0.0,0.0,0.0,0.0,0.0,0.0,0.0,0.0,0.0,0.0,0.0,0.0,4.9001,4.9001,4.8863,4.8707,4.8515,4.8324,4.8147,4.8001,4.656,4.5798,4.5798,4.4357,4.3598,4.3598,4.3598,4.3598,4.3598,4.3598,4.3704,4.3868,4.3898,4.3985,4.4068,4.4097,4.4097,4.4068,4.3927,4.3939,4.401,4.391,4.3956,4.4085,4.2656,4.2887,4.2887,4.2887,4.2887,4.2887,4.2887,4.2887,4.3019,4.3302,4.2657,4.2763,4.4428,4.4487,4.4724,4.5631,4.5639,4.5622,4.5678,4.4583,4.4039,4.4276,4.3593,4.3155,4.3155,4.2955,4.2835,4.2729,4.2607,4.2474,4.2284,4.2284,4.2201,4.2092,4.2092,4.2092,4.2092,4.2201,4.2392,4.2581,0.0,4.2996,0.0,4.325,4.329,4.329,4.329,4.329,4.329,0.0,4.329,0.0,0.0,0.0,0.0,0.0,0.0,0.0,0.0,0.0,0.0,0.0,0.0,0.0,4.4812,0.0,4.5593,0.0,0.0,0.0,0.0,0.0,0.0,0.0,4.8675,0.0,0.0,0.0,0.0,0.0,0.0,0.0,0.0,0.0,0.0,0.0,0.0,4.8863,4.869,4.8483,4.8292,4.8115,4.6623,4.5798,4.5798,4.4357,4.3598,4.3598,4.3598,4.3598,4.3598,4.3734,4.3839,4.3898,4.4068,4.4167,4.4241,4.4327,4.44,4.4372,4.4184,4.4126,4.4097,4.4027,4.4097,4.4224,4.2412,4.2778,4.2887,4.2887,4.2887,4.2887,4.2887,4.3115,4.3505,4.4219,4.3965,4.434,4.6003,4.5988,4.6211,4.6944,4.7299,4.7184,4.6421,4.5762,4.5087,4.4347,4.3813,4.3484,4.329,4.3155,4.3076,4.2981,4.2835,4.2662,4.2392,4.2392,4.231,4.2175,4.2175,4.2201,4.2284,4.2433,4.2581,4.2795,4.2955,4.3115,4.329,4.329,4.329,4.329,4.329,4.329,4.329,4.329,4.329,0.0,4.329,0.0,0.0,0.0,0.0,0.0,4.329,0.0,0.0,0.0,0.0,0.0,0.0,0.0,0.0,0.0,0.0,0.0,0.0,0.0,4.744,0.0,0.0,0.0,0.0,0.0,0.0,0.0,0.0,0.0,0.0,0.0,0.0,0.0,0.0,0.0,4.8818,4.8658,4.8452,4.8195,4.6686,4.586,4.5844,4.4417,4.3687,4.3747,4.3747,4.3747,4.3747,4.3881,4.3969,4.4027,4.4224,4.4338,4.4395,4.4542,4.4615,4.4587,4.444,4.4327,4.4212,4.4184,4.4253,4.4367,4.1788,4.2493,4.2887,4.2887,4.2887,4.2887,4.2887,4.3695,4.4266,4.4312,4.5144,4.6092,4.706,4.7161,4.742,4.8202,4.7649,4.7087,4.6641,4.6011,4.5266,4.4347,4.4287,4.3947,4.3305,4.329,4.321,4.2981,4.2981,4.2809,4.2392,4.2392,4.2392,4.2392,4.2392,4.2514,4.2688,4.2688,4.2809,4.2981,4.2981,4.3115,4.329,0.0,4.329,4.329,4.329,0.0,0.0,4.329,4.329,0.0,0.0,0.0,0.0,0.0,0.0,0.0,0.0,0.0,0.0,4.329,0.0,0.0,0.0,0.0,4.451,0.0,0.0,0.0,0.0,4.648,4.6941,0.0,0.0,0.0,0.0,0.0,0.0,0.0,0.0,0.0,0.0,0.0,0.0,0.0,0.0,0.0,4.8818,4.8769,4.8612,4.8195,4.6828,4.6046,4.5996,4.4597,4.3956,4.4068,4.4068,4.4068,4.4068,4.4097,4.4167,4.431,4.431,4.4412,4.4598,4.4615,4.4615,4.4615,4.4598,4.4587,4.4542,4.4384,4.4412,4.4598,4.1259,4.1896,4.2426,4.2819,4.2887,4.3115,4.3729,4.4092,4.4762,4.6063,4.5988,4.6403,4.7961,4.7591,4.7521,4.8244,4.8072,4.7741,4.7277,4.6659,4.5898,4.499,4.4541,4.4003,0.0,0.0,0.0,4.321,4.321,4.3036,4.2809,4.2809,4.2729,4.2581,4.2581,4.2662,4.2688,4.2835,4.2955,0.0,0.0,4.325,4.329,0.0,0.0,4.329,4.329,4.329,0.0,4.329,4.329,4.329,4.329,4.329,4.329,4.329,4.329,0.0,0.0,0.0,4.329,4.329,0.0,0.0,0.0,0.0,0.0,0.0,0.0,0.0,0.0,0.0,0.0,0.0,0.0,0.0,0.0,0.0,0.0,0.0,0.0,0.0,0.0,0.0,0.0,0.0,0.0,0.0,0.0,4.8832,4.8738,4.8612,4.7515,4.67,4.6182,4.5243,4.4553,4.4097,4.4097,4.4097,4.4097,4.4196,4.4253,4.431,4.444,4.4542,4.4615,4.4615,4.4615,4.4615,4.4615,4.4615,4.4598,4.4542,4.4542,4.4615,4.096,4.1422,4.1951,4.2751,4.3197,4.36,4.4219,4.49,4.5795,4.7016,4.6973,4.7248,4.848,4.8046,4.7904,4.837,4.8328,4.8027,4.7419,4.6882,4.6109,4.499,4.4541,4.4003,0.0,0.0,0.0,0.0,0.0,4.321,4.2981,4.2981,4.2915,4.2809,4.2809,4.285,4.293,4.3036,4.3115,0.0,0.0,4.329,0.0,0.0,4.329,4.329,0.0,4.329,4.329,4.329,4.329,4.329,4.329,4.329,4.329,4.329,4.329,4.329,4.329,4.329,0.0,4.329,4.329,0.0,4.329,0.0,0.0,0.0,0.0,0.0,0.0,0.0,0.0,0.0,0.0,0.0,0.0,4.8551,0.0,0.0,0.0,0.0,0.0,0.0,0.0,0.0,4.9001,0.0,0.0,0.0,4.8832,4.8818,4.7953,4.7136,4.6381,4.5626,4.4934,4.4286,4.4286,4.4286,4.4286,4.4355,4.4412,4.4412,4.4542,4.4615,4.4615,4.4615,4.4615,4.4615,4.4615,4.4615,4.4615,4.4615,4.4615,4.4615,4.0879,4.1164,4.1557,4.278,4.3695,4.4312,4.4359,4.5974,4.7204,4.7248,4.8046,4.862,4.862,4.862,4.862,4.862,4.8412,4.7928,4.7095,4.6796,0.0,0.0,4.4332,4.4003,4.3305,0.0,0.0,0.0,0.0,4.321,4.3036,4.3036,4.3036,4.3036,4.3036,4.3115,4.329,4.329,4.329,4.329,4.329,4.329,4.329,4.329,4.329,4.329,4.329,4.329,4.329,4.329,4.329,4.329,4.329,4.329,4.329,4.329,4.329,4.329,4.329,4.329,4.329,4.329,0.0,0.0,0.0,0.0,4.329,0.0,0.0,0.0,0.0,0.0,0.0,0.0,0.0,0.0,0.0,0.0,0.0,0.0,0.0,0.0,0.0,0.0,4.8193,4.8951,4.9001,4.9001,0.0,0.0,4.8956,4.8801,4.811,4.7369,4.6565,4.5871,4.525,4.4649,4.4649,4.4649,4.4615,4.4615,4.4615,4.4615,4.4615,4.4615,4.4615,4.4615,4.4615,4.4615,4.4615,4.4615,4.4615,4.4615,4.4615,4.4615,4.0879,4.1829,4.2746,4.3768,4.4125,4.4531,4.5312,4.6447,4.7463,4.813,4.8438,4.862,4.862,4.862,4.862,4.862,4.8537,4.8293,0.0,0.0,0.0,4.5121,4.4571,4.4003,4.3305,4.329,0.0,4.329,0.0,4.325,4.321,4.321,4.321,4.321,4.321,4.325,4.329,4.329,4.329,4.329,4.329,4.329,0.0,0.0,4.329,4.329,4.329,4.329,4.329,4.329,4.329,4.329,4.329,4.329,4.329,4.329,4.329,4.329,4.329,4.329,4.329,4.329,4.329,4.329,0.0,0.0,0.0,0.0,0.0,0.0,0.0,0.0,0.0,0.0,0.0,0.0,0.0,0.0,0.0,4.7175,0.0,0.0,0.0,4.7889,4.8193,4.8951,4.9001,4.9001,0.0,0.0,0.0,4.8956,4.8771,4.8298,4.7541,4.7368,4.6625,4.5415,4.5415,4.5128,4.4615,4.4615,4.4615,4.4615,4.4615,4.4615,4.4615,4.4615,4.4615,4.4615,4.4615,4.4615,4.4615,4.4615,4.4615,4.4615,4.0933,4.2073,4.3197,4.4139,4.467,4.5267,4.6255,4.7204,4.7988,4.8521,4.862,4.862,4.862,4.862,4.862,4.862,4.8537,0.0,4.8133,0.0,0.0,4.55,4.4432,4.3678,4.3305,4.329,0.0,4.329,0.0,4.329,4.329,4.329,4.329,4.329,4.329,4.329,4.329,4.329,4.329,4.329,4.329,0.0,0.0,4.329,4.329,4.329,4.329,4.329,4.329,4.329,4.329,4.329,4.329,4.329,4.329,4.329,4.329,4.329,4.329,4.329,4.329,4.329,4.329,4.329,4.329,4.329,4.329,0.0,0.0,0.0,0.0,0.0,0.0,0.0,0.0,0.0,0.0,0.0,0.0,0.0,4.7293,0.0,0.0,4.7733,4.8193,4.8951,4.9001,0.0,0.0,0.0,0.0,4.9001,4.9001,4.8663,4.7889,4.7889,4.7327,4.6177,4.5855,4.5483,4.506,4.475,4.4615,4.4615,4.4615,4.4615,4.4615,4.4615,4.4615,4.4615,4.4615,4.4615,4.4615,4.4615,4.4615,4.4615,4.1096,4.2127,4.3245,4.4312,4.5235,4.6181,4.7204,4.8088,4.862,4.862,0.0,4.862,4.862,4.862,4.862,4.862,4.8453,4.8328,4.8286,4.6796,4.5837,4.5705,4.4298,4.3434,4.329,4.329,4.329,0.0,0.0,4.329,4.329,4.329,4.329,4.329,4.329,0.0,0.0,4.329,4.329,4.329,4.329,4.329,4.329,4.329,4.329,4.329,4.329,4.329,4.329,4.329,4.329,4.329,4.329,4.329,4.329,4.329,4.329,4.329,4.329,4.329,4.329,4.329,4.329,4.329,4.329,4.329,4.329,4.329,4.3503,4.369,0.0,0.0,0.0,0.0,0.0,0.0,0.0,0.0,0.0,0.0,0.0,0.0,0.0,0.0,4.8189,4.8815,4.8951,0.0,0.0,0.0,0.0,4.9001,4.9001,0.0,4.8041,0.0,4.7682,4.6938,4.6295,4.594,4.5821,4.506,4.475,4.475,4.4649,4.4615,4.4615,4.4615,4.4615,4.4615,4.4615,4.4615,4.4615,4.4615,4.4615,4.4615,4.1625,4.2412,4.3471,4.5235,4.5689,4.6403,4.8088,4.848,4.862,4.862,4.862,4.862,4.862,4.862,4.862,4.862,4.8578,0.0,0.0,0.0,0.0,4.5736,4.4911,4.4073,4.3305,4.329,4.329,0.0,0.0,0.0,4.329,4.329,4.329,4.329,4.329,0.0,4.329,4.329,0.0,4.329,4.329,4.329,4.329,4.329,4.329,4.329,4.329,4.329,4.329,4.329,4.329,4.329,4.329,4.329,4.329,4.329,4.329,4.329,4.329,4.329,4.329,4.329,4.329,4.329,4.329,4.329,4.329,4.329,4.3329,4.3503,4.3871,0.0,0.0,0.0,0.0,0.0,0.0,0.0,0.0,0.0,0.0,0.0,0.0,0.0,0.0,0.0,0.0,0.0,0.0,0.0,0.0,0.0,4.9001,0.0,0.0,0.0,4.8443,4.7733,4.7567,4.7208,4.6583,4.5838,4.5517,4.5466,4.484,4.4615,4.4615,4.4615,4.4615,4.4615,4.4615,4.4615,4.4615,4.4615,4.4615,4.4615,4.229,4.2697,4.3341,4.4776,4.5463,0.0,0.0,4.8313,4.862,4.862,4.862,4.862,4.862,4.862,4.862,4.862,4.862,4.8578,4.8453,4.7742,4.6905,4.6047,4.5193,4.4328,4.3518,4.3384,4.329,4.329,0.0,0.0,4.329,0.0,0.0,4.329,0.0,4.329,0.0,0.0,0.0,4.329,4.329,4.329,4.329,4.329,4.329,4.329,4.329,4.329,4.329,4.329,4.329,4.329,4.329,4.329,4.329,4.329,4.329,4.329,4.329,4.329,4.329,4.329,4.329,4.329,4.329,4.3423,4.3463,4.3329,4.3488,4.3879,4.4579,4.6166,0.0,0.0,0.0,0.0,0.0,0.0,0.0,0.0,0.0,0.0,0.0,0.0,0.0,0.0,0.0,0.0,0.0,0.0,0.0,0.0,0.0,0.0,0.0,0.0,0.0,4.8477,4.8075,4.7733,4.7361,4.6616,4.6058,4.5686,4.5314,4.4942,4.4615,4.4615,4.4615,4.4615,4.4615,4.4615,4.4615,4.4615,4.4615,4.4615,4.2765,4.2887,4.3197,4.4139,4.513,4.6137,4.706,4.8003,4.862,4.862,4.862,4.862,4.862,4.862,4.862,4.862,4.862,4.862,4.862,4.7963,4.7181,4.633,4.5435,4.4599,4.3705,4.3423,4.329,0.0,0.0,0.0,0.0,0.0,0.0,0.0,0.0,0.0,0.0,0.0,4.329,4.329,4.329,4.3409,4.3551,4.3369,4.3409,4.3512,4.3369,4.329,4.329,4.329,4.329,4.329,4.329,4.329,4.329,4.329,4.329,4.329,4.329,4.329,4.329,4.329,4.329,4.329,4.329,4.3518,4.3636,4.3423,4.3879,4.4617,4.5665,4.6984,0.0,0.0,0.0,0.0,0.0,0.0,0.0,0.0,0.0,0.0,0.0,0.0,0.0,0.0,0.0,0.0,0.0,0.0,0.0,0.0,0.0,4.9001,4.9001,0.0,4.9001,0.0,4.8426,4.8125,4.8122,4.7378,4.6718,4.616,4.5838,4.528,4.4615,4.4615,4.4615,4.4615,4.4615,4.4615,4.4615,4.4615,4.4615,4.4615,4.2765,4.2887,4.3197,0.0,0.0,4.6137,4.706,4.8003,4.862,4.862,4.862,4.862,4.862,4.862,4.862,4.862,4.862,4.862,4.862,4.8517,4.782,4.637,4.6037,4.5173,4.372,4.3423,4.329,0.0,0.0,0.0,0.0,0.0,0.0,0.0,0.0,0.0,0.0,4.329,4.329,4.329,4.329,4.3747,4.4297,4.3591,4.3732,4.4297,4.3551,4.329,4.329,4.329,4.329,4.329,4.329,4.329,4.329,4.329,4.329,4.329,4.329,4.329,4.329,4.329,4.329,4.329,4.329,4.3518,4.369,4.369,4.4503,4.5701,4.7138,4.7671,4.8129,0.0,0.0,0.0,0.0,0.0,0.0,0.0,0.0,0.0,0.0,0.0,0.0,0.0,0.0,0.0,0.0,0.0,0.0,4.9001,0.0,4.9001,4.9001,4.9001,0.0,4.9001,4.8934,4.89,4.8883,4.8139,4.7753,4.7601,4.6295,4.528,4.4615,4.4615,4.4615,4.4615,4.4615,4.4615,4.4615,4.4615,4.4615,4.4615,0.0,0.0,0.0,0.0,0.0,0.0,0.0,4.7161,4.7946,4.8521,4.862,4.862,4.862,4.862,4.862,4.862,4.862,4.862,4.862,4.862,4.7978,4.653,4.6163,4.5314,4.3901,4.3503,4.329,0.0,0.0,0.0,0.0,0.0,0.0,0.0,0.0,4.3551,4.4028,4.4028,4.4297,4.4737,4.4737,4.4924,4.5184,4.4849,4.4962,4.5184,4.4849,4.4737,4.4737,4.4737,4.4105,4.329,4.329,4.363,4.4028,4.4028,4.4028,4.4105,4.4624,4.4043,4.3512,4.451,4.4373,4.4143,4.4624,4.4999,4.5169,4.5058,4.5937,4.69,4.7489,4.8129,4.8656,0.0,0.0,0.0,0.0,0.0,0.0,0.0,0.0,0.0,0.0,0.0,0.0,0.0,0.0,0.0,0.0,0.0,0.0,4.9001,0.0,4.9001,4.9001,4.9001,4.9001,4.9001,4.9001,4.9001,4.8984,4.8697,4.8342,4.7804,4.6346,4.5534,4.5229,4.4801,4.4615,4.4615,4.4615,4.4615,4.4615,4.4615,4.4615,4.4615,4.2887,0.0,4.2887,0.0,4.3695,4.4638,4.5644,4.6579,4.7548,4.848,4.862,4.862,4.862,4.862,4.862,4.862,4.862,4.862,4.862,4.862,4.8096,4.6942,4.6391,0.0,4.4306,4.3726,4.3384,4.329,4.329,0.0,0.0,0.0,0.0,0.0,4.3551,4.3966,4.4526,4.4737,4.5184,4.5697,4.5697,4.5841,4.6005,4.5769,4.5841,4.602,4.5769,4.5697,4.5697,4.5697,4.4962,4.395,4.3747,4.4028,4.451,4.451,4.4662,4.4999,4.5551,4.4887,4.4297,4.5405,4.5316,4.5042,4.5645,4.6024,4.6327,4.6451,4.7154,4.777,4.7982,4.8545,4.9001,4.9001,0.0,0.0,0.0,0.0,0.0,0.0,4.9001,4.9001,4.9001,0.0,0.0,0.0,0.0,0.0,0.0,0.0,0.0,0.0,0.0,0.0,0.0,4.9001,4.9001,4.9001,4.9001,4.9001,4.9001,4.9001,4.8612,4.7838,4.6819,4.6109,4.5669,4.5128,4.4801,4.4615,4.4615,4.4615,4.4615,4.4615,4.4615,4.4615,4.2887,4.2887,4.2887,4.2887,4.3695,4.4638,4.5644,4.6579,4.7548,4.848,4.862,4.862,4.862,4.862,4.862,4.862,4.862,4.862,4.862,4.862,4.8312,0.0,0.0,4.5898,4.5029,4.414,4.3557,4.329,0.0,0.0,4.329,0.0,4.329,4.3329,4.4143,4.4472,4.4548,4.5369,4.5697,4.5697,4.5697,4.6163,4.6708,4.5985,4.6147,4.6673,4.5985,4.5697,4.5697,4.5697,4.5697,4.5551,4.4737,4.4472,4.451,4.451,4.5073,4.5697,4.5697,4.5697,4.566,4.5697,4.5773,4.5901,4.5901,4.6221,4.6761,4.7688,4.7885,4.8129,4.8861,4.9001,4.9001,4.9001,0.0,0.0,0.0,0.0,0.0,0.0,4.9001,4.9001,4.9001,0.0,0.0,0.0,0.0,0.0,0.0,0.0,0.0,4.9001,4.9001,0.0,4.9001,4.9001,4.9001,4.9001,4.9001,4.9001,4.9001,4.9001,4.8612,4.7889,4.7872,4.7043,4.5703,4.5703,4.5263,4.4615,4.4615,4.4615,4.4615,4.4615,4.4615,4.4615,4.2887,4.2887,4.2887,4.2887,4.3163,4.3648,4.4638,4.5629,4.6579,4.7505,4.8214,4.862,4.862,4.862,4.862,0.0,4.862,4.862,0.0,4.862,4.8312,4.7635,4.6757,4.5978,4.5227,4.4219,4.3651,4.3557,0.0,0.0,0.0,4.329,4.329,4.3329,4.4143,4.4812,4.5369,4.6147,4.6775,4.7286,4.7286,4.7421,4.7588,4.7354,4.7421,4.7588,4.7354,4.7286,4.7286,4.7286,4.6913,4.6394,4.6131,4.606,4.606,4.606,4.6253,4.6585,4.7134,4.6496,4.5949,4.6997,4.6981,4.6846,4.7338,4.7787,4.8162,4.8562,4.8656,4.8719,4.897,4.9001,4.9001,4.9001,4.9001,0.0,0.0,0.0,0.0,0.0,4.9001,4.9001,0.0,4.9001,0.0,0.0,0.0,0.0,0.0,0.0,0.0,0.0,4.9001,0.0,4.9001,4.9001,4.9001,4.9001,4.9001,4.9001,4.9001,4.9001,4.8883,4.8629,4.8108,4.7618,4.7111,4.6126,4.5568,4.5297,4.4801,4.4615,4.4615,4.4615,4.4615,4.4615,4.2887,4.2887,4.2887,4.2887,4.2887,4.3328,4.4684,4.5417,4.627,4.7548,4.8229,4.862,4.862,4.862,0.0,4.862,4.862,4.862,4.862,4.862,4.8419,4.8004,4.6975,4.6165,4.5672,0.0,0.0,4.369,4.3423,4.329,4.329,4.329,4.329,4.3329,4.445,4.5221,4.5769,4.6809,4.7555,4.8001,4.8001,4.8001,4.8001,4.8001,4.8001,4.8001,4.8001,4.8001,4.8001,4.8001,4.7671,4.7253,4.7253,4.7253,4.7186,4.6896,4.6999,4.7371,4.7853,4.7286,4.6809,4.7803,4.7853,4.7787,4.8388,4.869,4.8894,4.897,4.9001,4.9001,4.9001,4.9001,4.9001,4.9001,4.9001,4.9001,4.9001,0.0,0.0,0.0,0.0,0.0,0.0,4.9001,0.0,0.0,0.0,0.0,0.0,0.0,0.0,4.9001,4.9001,0.0,4.9001,4.9001,4.9001,4.9001,4.9001,4.9001,4.9001,4.9001,4.9001,4.8984,4.8528,4.8173,4.7821,4.6921,4.621,4.5652,4.5179,4.4823,4.4615,4.4615,4.4615,4.4615,4.2887,4.2887,0.0,0.0,4.2935,0.0,4.5417,4.5824,4.6535,4.8256,4.8578,4.862,4.862,4.862,4.862,4.862,0.0,0.0,0.0,4.862,4.862,4.862,4.7327,4.6524,4.6324,4.4789,4.391,4.369,4.3423,4.329,4.329,4.329,4.329,4.3369,4.4999,4.5697,4.5805,4.7354,4.8001,4.8001,4.8001,4.8001,4.8001,4.8001,4.8001,4.8001,4.8001,4.8001,4.8001,4.8001,4.8001,4.8001,4.8001,4.8001,4.7853,4.7118,4.7404,4.8001,4.8001,4.8001,4.8066,4.8195,4.8356,4.861,4.894,4.9001,4.9001,4.9001,4.9001,4.9001,4.9001,4.9001,4.9001,4.9001,4.9001,4.9001,4.9001,0.0,0.0,0.0,0.0,0.0,0.0,4.9001,4.9001,0.0,0.0,0.0,0.0,0.0,4.9001,4.9001,4.9001,4.9001,4.9001,4.9001,4.9001,4.9001,4.9001,4.9001,4.9001,4.9001,4.9001,4.9001,4.9001,4.8612,4.7956,4.7906,4.7107,4.5838,4.5737,4.528,4.4682,4.4632,4.4615,4.4598,0.0,0.0,4.2887,4.2887,4.3505,4.4139,4.4591,4.5899,4.7016,4.7463,4.8172,4.862,4.862,4.862,4.862,4.862,4.862,4.862,4.862,4.862,4.862,4.862,4.7327,4.6603,4.6524,4.4852,4.3778,4.3384,4.3329,4.329,4.329,4.329,4.329,4.3369,4.4999,4.5697,4.5805,4.7354,4.8001,4.8001,4.8001,4.8001,4.8001,4.8001,4.8001,4.8001,4.8001,4.8001,4.8001,4.8001,4.8001,4.8001,4.8001,4.8001,4.7968,4.777,4.7853,4.8033,4.8115,4.813,4.8212,4.8388,4.8595,4.8769,4.894,4.9001,4.9001,4.9001,4.9001,4.9001,4.9001,4.9001,4.9001,4.9001,4.9001,4.9001,4.9001,4.9001,0.0,0.0,4.9001,4.9001,4.9001,4.9001,4.9001,0.0,0.0,0.0,0.0,4.9001,4.9001,4.9001,4.9001,4.9001,4.9001,4.9001,4.9001,4.9001,4.9001,4.9001,4.9001,4.9001,4.9001,4.9001,4.9001,4.89,4.8714,4.8125,4.7686,4.7263,4.6143,4.5602,4.5365,4.4818,4.4615,4.4654,4.2833,4.2887,4.3032,4.3471,4.3951,4.4577,4.5479,4.652,4.7377,4.7776,4.8297,4.862,4.862,4.862,4.862,4.862,4.862,4.862,4.862,4.862,4.862,4.862,4.7619,4.6911,4.6603,4.5196,4.408,4.329,4.329,4.329,4.329,4.329,4.3488,4.3888,4.5147,4.5877,4.6288,4.7488,4.8001,4.8001,4.8001,4.8001,4.8001,4.8001,4.8001,4.8001,4.8001,4.8001,4.8001,4.8001,4.8001,4.8001,4.8001,4.8001,4.8001,4.8001,4.8001,4.8033,4.8163,4.8195,4.826,4.8564,4.8769,4.8925,4.897,4.9001,4.9001,4.9001,4.9001,4.9001,4.9001,4.9001,4.9001,4.9001,4.9001,4.9001,4.9001,4.9001,0.0,4.9001,4.9001,4.9001,4.9001,4.9001,4.9001,4.9001,0.0,0.0,4.9001,4.9001,4.9001,4.9001,4.9001,4.9001,4.9001,4.9001,4.9001,4.9001,4.9001,4.9001,4.9001,4.9001,4.9001,4.9001,4.9001,4.9001,4.8968,4.8578,4.8193,4.7804,4.7039,4.6498,4.6109,4.5365,4.5094,4.5111,4.2765,4.2887,4.3197,4.4139,4.4452,4.513,4.6929,4.7334,4.7691,4.848,4.862,4.862,4.862,4.862,4.862,4.862,4.862,4.862,4.862,4.862,4.862,4.862,4.7973,4.7296,4.6603,4.5456,4.4352,4.329,4.329,4.329,4.329,4.3433,4.3849,4.4548,4.5478,4.6218,4.6846,4.7671,4.8001,4.8001,4.8001,4.8001,4.8001,4.8001,4.8001,4.8001,4.8001,4.8001,4.8001,4.8001,4.8001,4.8001,4.8001,4.8001,4.8001,4.8033,4.8033,4.8049,4.8195,4.8292,4.8388,4.8738,4.8925,4.9001,4.9001,4.9001,4.9001,4.9001,4.9001,4.9001,4.9001,4.9001,4.9001,4.9001,4.9001,4.9001,4.9001,0.0,4.9001,4.9001,4.9001,4.9001,4.9001,4.9001,4.9001,4.9001,4.9001,4.9001,0.0,4.9001,4.9001,4.9001,4.9001,4.9001,4.9001,4.9001,4.9001,4.9001,4.9001,4.9001,4.9001,4.9001,4.9001,4.9001,4.9001,4.9001,4.9001,4.9001,4.8646,4.8041,4.7922,4.753,4.687,4.6143,4.5862,4.5784,4.2765,4.2887,4.3197,4.4139,4.4992,4.5958,4.7016,4.7861,4.8438,4.8563,4.862,4.862,4.862,4.862,4.862,4.862,4.862,4.862,4.862,4.862,4.862,4.862,4.7973,4.7296,4.6603,4.4998,4.3883,4.329,4.329,4.329,4.3329,4.4004,4.4373,4.4548,4.5989,4.6673,4.6846,4.7671,4.8001,4.8001,4.8001,4.8001,4.8001,4.8001,4.8001,4.8001,4.8001,4.8001,4.8001,4.8001,4.8001,4.8001,4.8001,4.8001,4.8033,4.8147,4.8163,4.8195,4.8388,4.8642,4.8877,4.894,4.897,4.9001,4.9001,4.9001,4.9001,4.9001,4.9001,4.9001,4.9001,4.9001,4.9001,4.9001,4.9001,4.9001,4.9001,0.0,4.9001,4.9001,4.9001,4.9001,4.9001,4.9001,4.9001,4.9001,4.9001,4.9001,4.9001,4.9001,4.9001,4.9001,4.9001,4.9001,4.9001,4.9001,4.9001,4.9001,4.9001,4.9001,4.9001,4.9001,4.9001,4.9001,4.9001,4.9001,4.9001,4.9001,4.8934,4.8781,4.8125,4.7821,4.7618,4.6904,4.6527,4.6429,4.2711,4.3293,4.3965,4.4961,4.5899,4.6886,4.7819,4.8313,4.862,4.862,4.862,4.862,4.862,4.862,4.862,4.862,4.862,4.862,4.862,4.862,4.862,4.862,4.8312,4.7625,4.6459,4.5178,4.418,4.3518,4.3384,4.3512,4.3966,4.4335,4.4946,4.5773,4.6483,4.7033,4.7488,4.7853,4.8001,4.8001,4.8001,4.8001,4.8001,4.8001,4.8001,4.8001,4.8001,4.8001,4.8001,4.8001,4.8001,4.8001,4.8001,4.8001,4.8001,4.8082,4.8308,4.8532,4.8644,4.8815,4.9001,4.9001,4.9001,4.9001,4.9001,4.9001,4.9001,4.9001,4.9001,4.9001,4.9001,4.9001,4.9001,4.9001,4.9001,0.0,0.0,4.9001,4.9001,4.9001,4.9001,4.9001,4.9001,4.9001,4.9001,4.9001,4.9001,4.9001,4.9001,4.9001,4.9001,4.9001,4.9001,4.9001,4.9001,4.9001,4.9001,4.9001,4.9001,4.9001,4.9001,4.9001,4.9001,4.9001,4.9001,4.9001,4.9001,4.9001,4.9001,4.8968,4.8646,4.8689,4.8885,4.8162,4.8,4.8198,4.274,4.3726,4.467,4.5913,4.6711,4.7505,4.8438,4.862,4.862,4.862,4.862,4.862,4.862,4.862,4.862,4.862,4.862,4.862,4.862,4.862,4.862,4.862,4.8466,4.7697,4.6355,4.5483,4.4616,4.369,4.3503,4.3786,4.451,4.4699,4.5483,4.6811,4.6999,4.7404,4.8001,4.8001,4.8001,4.8001,4.8001,4.8001,4.8001,4.8001,4.8001,4.8001,4.8001,4.8001,4.8001,4.8001,4.8001,4.8001,4.8001,4.8001,4.8001,4.8033,4.8421,4.8818,4.8832,4.8925,4.9001,4.9001,4.9001,4.9001,4.9001,4.9001,4.9001,4.9001,4.9001,4.9001,4.9001,4.9001,4.9001,4.9001,0.0,0.0,0.0,4.9001,4.9001,4.9001,4.9001,4.9001,4.9001,4.9001,4.9001,4.9001,4.9001,4.9001,4.9001,4.9001,4.9001,4.9001,4.9001,4.9001,4.9001,4.9001,4.9001,4.9001,4.9001,4.9001,4.9001,4.9001,4.9001,4.9001,4.9001,4.9001,4.9001,4.9001,4.9001,4.9001,4.9001,4.9273,4.9634,4.9223,4.9281,4.9573,4.3068,4.3873,4.49,4.6755,4.7146,4.7505,4.8438,4.862,4.862,4.862,4.862,4.862,4.862,4.862,4.862,4.862,4.862,4.862,4.862,4.862,4.862,4.862,4.8019,4.7261,4.6299,4.5627,4.4774,4.369,4.369,4.3972,4.4526,4.5258,4.604,4.6811,4.7588,4.7919,4.8001,4.8001,4.8001,4.8001,4.8001,4.8001,4.8001,4.8001,4.8001,4.8001,4.8001,4.8001,4.8001,4.8001,4.8001,4.8001,4.8001,4.8001,4.8033,4.8147,4.8468,4.8849,4.8956,4.9001,4.9001,4.9001,4.9001,4.9001,4.9001,4.9001,4.9001,4.9001,4.9001,4.9001,4.9001,4.9001,4.9001,4.9001,0.0,0.0,4.9001,4.9001,4.9001,4.9001,4.9001,4.9001,4.9001,4.9001,4.9001,4.9001,4.9001,4.9001,4.9001,4.9001,4.9001,4.9001,4.9001,4.9001,4.9001,4.9001,4.9001,4.9001,4.9001,4.9001,4.9001,4.9001,4.9001,4.9001,4.9001,4.9001,4.9001,4.9001,4.9001,4.9001,4.9001,4.9032,4.9138,4.9634,4.9688,4.9583,4.3227,4.4867,4.6344,4.706,4.7676,4.8172,4.8537,4.862,4.862,4.862,4.862,4.862,4.862,4.862,4.862,4.862,4.862,4.862,4.862,4.862,4.862,4.862,4.8373,4.7871,4.7113,4.6333,4.5462,4.4491,4.3965,4.4228,4.5258,4.5551,4.6375,4.7555,4.7853,4.8001,4.8001,4.8001,4.8001,4.8001,4.8001,4.8001,4.8001,4.8001,4.8001,4.8001,4.8001,4.8001,4.8001,4.8001,4.8001,4.8001,4.8001,4.8001,4.8066,4.8292,4.8483,4.8658,4.894,4.9001,4.9001,4.9001,4.9001,4.9001,4.9001,4.9001,4.9001,4.9001,4.9001,4.9001,4.9001,4.9001,4.9001,4.9001,0.0,4.9001,4.9001,4.9001,4.9001,4.9001,4.9001,4.9001,4.9001,4.9001,4.9001,4.9001,4.9001,4.9001,4.9001,4.9001,4.9001,4.9001,4.9001,4.9001,4.9001,4.9001,4.9001,4.9001,4.9001,4.9001,4.9001,4.9001,4.9001,4.9001,4.9001,4.9001,4.9001,4.9001,4.9001,4.9001,4.9001,4.9419,5.0079,5.0304,5.0805,5.1394,4.3383,4.5376,4.7051,4.7561,4.8172,4.862,4.862,4.862,4.862,4.862,4.862,4.862,4.862,4.862,4.862,4.862,4.862,4.862,4.862,4.862,4.862,4.862,4.862,4.8296,4.7619,4.6822,4.5963,4.4974,4.4204,4.4442,4.5697,4.5697,4.6531,4.8001,4.8001,4.8001,4.8001,4.8001,4.8001,4.8001,4.8001,4.8001,4.8001,4.8001,4.8001,4.8001,4.8001,4.8001,4.8001,4.8001,4.8001,4.8001,4.8001,4.8001,4.8066,4.8388,4.8515,4.8578,4.8909,4.9001,4.9001,4.9001,4.9001,4.9001,4.9001,4.9001,4.9001,4.9001,4.9001,4.9001,4.9001,4.9001,4.9001,4.9001,4.9001,4.9001,4.9001,4.9001,4.9001,4.9001,4.9001,4.9001,4.9001,4.9001,4.9001,4.9001,4.9001,4.9001,4.9001,4.9001,4.9001,4.9001,4.9001,4.9001,4.9001,4.9001,4.9001,4.9001,4.9001,4.9001,4.9001,4.9001,4.9001,4.9001,4.9001,4.9001,4.9001,4.9001,4.9001,4.9032,4.9199,4.9756,5.0497,5.0849,5.1508,5.2233,4.3675,4.5219,4.6738,4.8315,4.862,4.862,4.862,4.862,4.862,4.862,4.862,4.862,4.862,4.862,4.862,4.862,4.862,4.862,4.862,4.862,4.862,4.862,4.862,4.8296,4.7635,4.6942,4.6082,4.4989,4.4322,4.461,4.5697,4.5697,4.6531,4.8001,4.8001,4.8001,4.8001,4.8001,4.8001,4.8001,4.8001,4.8001,4.8001,4.8001,4.8001,4.8001,4.8001,4.8001,4.8001,4.8001,4.8001,4.8001,4.8001,4.8001,4.8066,4.8388,4.8515,4.8578,4.8909,4.9001,4.9001,4.9001,4.9001,4.9001,4.9001,4.9001,4.9001,4.9001,4.9001,4.9001,4.9001,4.9001,4.9001,4.9001,4.9001,4.9001,4.9001,4.9001,4.9001,4.9001,4.9001,4.9001,4.9001,4.9001,4.9001,4.9001,4.9001,4.9001,4.9001,4.9001,4.9001,4.9001,4.9001,4.9001,4.9001,4.9001,4.9001,4.9001,4.9001,4.9001,4.9001,4.9001,4.9001,4.9001,4.9001,4.9001,4.9001,4.9001,4.9001,4.9063,4.9674,4.9919,5.0045,5.1174,5.1601,5.1694,4.4736,4.6158,4.7476,4.8455,4.862,4.862,4.862,4.862,4.862,4.862,4.862,4.862,4.862,4.862,4.862,4.862,4.862,4.862,4.862,4.862,4.862,4.862,4.862,4.8527,4.8312,4.765,4.6772,4.5713,4.5044,4.4764,4.4887,4.5442,4.6234,4.7186,4.7754,4.8001,4.8001,4.8001,4.8001,4.8001,4.8001,4.8001,4.8001,4.8001,4.8001,4.8001,4.8001,4.8001,4.8001,4.8001,4.8001,4.8001,4.8115,4.8147,4.8212,4.8612,4.8707,4.8753,4.894,4.9001,4.9001,4.9001,4.9001,4.9001,4.9001,4.9001,4.9001,4.9001,4.9001,4.9001,4.9001,4.9001,4.9001,4.9001,4.9001,4.9001,4.9001,4.9001,4.9001,4.9001,4.9001,4.9001,4.9001,4.9001,4.9001,4.9001,4.9001,4.9001,4.9001,4.9001,4.9001,4.9001,4.9001,4.9001,4.9001,4.9001,4.9001,4.9001,4.9001,4.9001,4.9001,4.9001,4.9001,4.9001,4.9001,4.926,4.9615,4.9168,4.926,4.9644,4.9832,5.0142,5.0552,5.1329,5.186,5.2251,4.4762,4.6148,4.7419,4.8096,4.8435,4.862,4.862,4.862,4.862,4.862,4.862,4.862,4.862,4.862,4.862,4.862,4.862,4.862,4.862,4.862,4.862,4.862,4.862,4.862,4.862,4.7942,4.7078,4.6017,4.5348,4.4845,4.451,4.4999,4.5789,4.6811,4.7303,4.7704,4.8001,4.8001,4.8001,4.8001,4.8001,4.8001,4.8001,4.8001,4.8001,4.8001,4.8001,4.8001,4.8001,4.8049,4.8115,4.8212,4.8195,4.826,4.8388,4.8707,4.8818,4.8832,4.897,4.9001,4.9001,4.9001,4.9001,4.9001,4.9001,4.9001,4.9001,4.9001,4.9001,4.9001,4.9001,4.9001,4.9001,4.9001,4.9001,4.9001,4.9001,4.9001,4.9001,4.9001,4.9001,4.9001,4.9001,4.9001,4.9001,4.9001,4.9001,4.9001,4.9001,4.9001,4.9001,4.9001,4.9001,4.9001,4.9001,4.9001,4.9001,4.9001,4.9001,4.9001,4.9001,4.9001,4.9138,4.9364,4.9364,4.9686,5.0181,4.9826,4.9884,5.0237,5.0477,5.076,5.1131,5.1743,5.2186,5.2498,4.4298,4.5534,4.6742,4.7481,4.8112,4.8543,4.8604,4.862,4.862,4.862,4.862,4.862,4.862,4.862,4.862,4.862,4.862,4.862,4.862,4.862,4.862,4.862,4.862,4.862,4.862,4.8004,4.717,4.6108,4.5439,4.4898,4.4488,4.4579,4.5337,4.6708,4.6862,4.7287,4.8001,4.8001,4.8001,4.8001,4.8001,4.8001,4.8001,4.8001,4.8001,4.8001,4.8001,4.8001,4.8033,4.813,4.8324,4.8483,4.8292,4.8388,4.8564,4.8769,4.8801,4.8832,4.8987,4.9001,4.9001,4.9001,4.9001,4.9001,4.9001,4.9001,4.9001,4.9001,4.9001,4.9001,4.9001,4.9001,4.9001,4.9001,4.9001,4.9001,4.9001,4.9001,4.9001,4.9001,4.9001,4.9001,4.9001,4.9001,4.9001,4.9001,4.9001,4.9001,4.9001,4.9001,4.9001,4.9001,4.9001,4.9001,4.9001,4.9001,4.9001,4.9001,4.9001,4.9032,4.9094,4.9094,4.9424,4.9959,4.9959,5.0265,5.0778,5.0724,5.0751,5.0832,5.1381,5.1601,5.1669,5.2275,5.2498,5.2498,4.52,4.5578,4.6188,4.7388,4.7727,4.8004,4.8543,4.862,4.862,4.862,4.862,4.862,4.862,4.862,4.862,4.862,4.862,4.862,4.862,4.862,4.862,4.862,4.862,4.862,4.862,4.8481,4.786,4.6791,4.6123,4.5279,4.4343,4.5098,4.5624,4.5985,4.7202,4.7853,4.8001,4.8001,4.8001,4.8001,4.8001,4.8001,4.8001,4.8001,4.8001,4.8001,4.8001,4.8001,4.8033,4.813,4.8324,4.8515,4.8627,4.8707,4.8769,4.8925,4.8956,4.897,4.9001,4.9001,4.9001,4.9001,4.9001,4.9001,4.9001,4.9001,4.9001,4.9001,4.9001,4.9001,4.9001,4.9001,4.9001,4.9001,4.9001,4.9001,4.9001,4.9001,4.9001,4.9001,4.9001,4.9001,4.9001,4.9001,4.9001,4.9001,4.9001,4.9001,4.9001,4.9001,4.9001,4.9001,4.9001,4.9001,4.9001,4.9001,4.9001,4.9001,4.9001,4.926,4.9686,4.9686,4.9999,5.0552,5.0552,5.0849,5.1381,5.0885,5.0982,5.1406,5.1551,5.1601,5.1669,5.2275,5.2498,5.2498,4.5033,4.5357,4.5818,4.6511,4.7173,4.7727,4.8081,4.8404,4.862,4.862,4.862,4.862,4.862,4.862,4.862,4.862,4.862,4.862,4.862,4.862,4.862,4.862,4.862,4.862,4.862,4.862,4.8116,4.7128,4.6458,4.5587,4.4519,4.5024,4.5442,4.5733,4.6913,4.7638,4.8001,4.8001,4.8001,4.8001,4.8001,4.8001,4.8001,4.8001,4.8001,4.8001,4.8001,4.8082,4.8244,4.8195,4.8452,4.8753,4.8801,4.8832,4.8925,4.897,4.9001,4.9001,4.9001,4.9001,4.9001,4.9001,4.9001,4.9001,4.9001,4.9001,4.9001,4.9001,4.9001,4.9001,4.9001,4.9001,4.9001,4.9001,4.9001,4.9001,4.9001,4.9001,4.9001,4.9001,4.9001,4.9001,4.9001,4.9001,4.9001,4.9001,4.9001,4.9001,4.9001,4.9001,4.9001,4.9001,4.9001,4.9001,4.9001,4.9001,4.9001,4.9001,4.9001,4.9303,4.989,4.989,5.0366,5.1131,5.1131,5.1457,5.2,5.1676,5.1725,5.2024,5.2024,5.2024,5.2072,5.2387,5.2498,5.2498,4.461,4.5033,4.5449,4.5572,4.6603,4.7465,4.7588,4.8189,4.862,4.862,4.862,4.862,4.862,4.862,4.862,4.862,4.862,4.862,4.862,4.862,4.862,4.862,4.862,4.862,4.862,4.862,4.8219,4.7461,4.6666,4.5849,4.4901,4.4987,4.5258,4.5769,4.662,4.7371,4.8001,4.8001,4.8001,4.8001,4.8001,4.8001,4.8001,4.8001,4.8001,4.8001,4.8001,4.8179,4.842,4.8292,4.8578,4.8956,4.8863,4.8925,4.9001,4.9001,4.9001,4.9001,4.9001,4.9001,4.9001,4.9001,4.9001,4.9001,4.9001,4.9001,4.9001,4.9001,4.9001,4.9001,4.9001,4.9001,4.9001,4.9001,4.9001,4.9001,4.9001,4.9001,4.9001,4.9001,4.9001,4.9001,4.9001,4.9001,4.9001,4.9001,4.9001,4.9001,4.9001,4.9001,4.9001,4.9001,4.9001,4.9001,4.9001,4.9001,4.9001,4.9001,4.9001,4.9346,5.0045,5.0045,5.0651,5.1743,5.1743,5.2048,5.2498,5.2498,5.2498,5.2498,5.2498,5.2498,5.2498,5.2498,5.2498,5.2498,4.461,4.4687,4.4933,4.548,4.6219,4.6927,4.7511,4.8189,4.862,4.862,4.862,4.862,4.862,4.862,4.862,4.862,4.862,4.862,4.862,4.862,4.862,4.862,4.862,4.862,4.862,4.862,4.8449,4.8149,4.6895,4.6133,4.5809,4.5831,4.5877,4.602,4.7286,4.7902,4.8001,4.8001,4.8001,4.8001,4.8001,4.8001,4.8001,4.8001,4.8001,4.8001,4.8001,4.8115,4.826,4.842,4.8627,4.8832,4.8956,4.897,4.9001,4.9001,4.9001,4.9001,4.9001,4.9001,4.9001,4.9001,4.9001,4.9001,4.9001,4.9001,4.9001,4.9001,4.9001,4.9001,4.9001,4.9001,4.9001,4.9001,4.9001,4.9001,4.9001,4.9001,4.9001,4.9001,4.9001,4.9001,4.9001,4.9001,4.9001,4.9001,4.9001,4.9001,4.9001,4.9001,4.9001,4.9001,4.9001,4.9001,4.9001,4.9001,4.9001,4.9001,4.9001,4.9568,5.0589,5.0589,5.126,5.2387,5.2387,5.241,5.2498,5.2498,5.2498,5.2498,5.2498,5.2498,5.2498,5.2498,5.2498,5.2498,4.461,4.461,4.4702,4.501,4.5588,4.6265,4.6942,4.7619,4.8189,4.8558,4.862,4.862,4.862,4.862,4.862,4.862,4.862,4.862,4.862,4.862,4.862,4.862,4.862,4.862,4.862,4.862,4.8578,4.8453,4.7512,4.6732,4.6188,4.6079,4.6097,4.6147,4.7084,4.7737,4.8115,4.8115,4.8049,4.8001,4.8001,4.8001,4.8001,4.8001,4.8001,4.8001,4.8001,4.8147,4.8388,4.8483,4.8627,4.8801,4.894,4.9001,4.9001,4.9001,4.9001,4.9001,4.9001,4.9001,4.9001,4.9001,4.9001,4.9001,4.9001,4.9001,4.9001,4.9001,4.9001,4.9001,4.9001,4.9001,4.9001,4.9001,4.9001,4.9001,4.9001,4.9001,4.9001,4.9001,4.9001,4.9001,4.9001,4.9001,4.9001,4.9001,4.9001,4.9001,4.9001,4.9001,4.9001,4.9001,4.9001,4.9001,4.9001,4.9001,4.9001,4.9001,4.9333,4.9913,5.0697,5.0697,5.1363,5.2498,5.2498,5.2498,5.2498,5.2498,5.2498,5.2498,5.2498,5.2498,5.2498,5.2498,5.2498,5.2498]}]]